[[{"header":{"parameterUnit":"m.s-1","parameterCategory":1,"la1":30.6,"la2":28.766,"lo1":-90.7593,"lo2":-88.6598,"dy":0.0162,"dx":0.0183,"nx":116,"ny":114,"refTime":"2024-06-22T18:00:00:Z","depth":0,"parameterNumber":2,"parameterNumberName":"U-component_of_WINDS"},"data":[0.0,0.0,0.0,0.0,0.0,0.0,0.0,0.0,0.0,0.0,0.0,0.0,0.0,0.0,0.0,0.0,0.0,0.0,0.0,0.0,0.0,0.0,0.0,0.0,0.0,0.0,0.0,0.0,0.0,0.0,0.0,0.0,0.0,0.0,0.0,0.0,0.0,0.0,0.0,0.0,0.0,0.0,0.0,0.0,0.0,0.0,0.0,0.0,0.0,0.0,0.0,0.0,0.0,0.0,0.0,0.0,0.0,0.0,0.0,0.0,0.0,0.0,0.0,0.0,0.0,0.0,0.0,0.0,0.0,0.0,0.0,0.0,0.0,0.0,0.0,0.0,0.0,0.0,0.0,0.0,0.0,0.0,0.0,0.0,0.0,0.0,0.0,0.0,0.0,0.0,0.0,0.0,0.0,0.0,0.0,0.0,0.0,0.0,0.0,0.0,0.0,0.0,0.0,0.0,0.0,0.0,0.0,0.0,0.0,0.0,0.0,0.0,0.0,0.0,0.0,0.0,0.0,0.0,0.0,0.0,0.0,0.0,0.0,0.0,0.0,0.0,0.0,0.0,0.0,0.0,0.0,0.0,0.0,0.0,0.0,0.0,0.0,0.0,0.0,0.0,0.0,0.0,0.0,0.0,0.0,0.0,0.0,0.0,0.0,0.0,0.0,0.0,0.0,0.0,0.0,0.0,0.0,0.0,0.0,0.0,0.0,0.0,0.0,0.0,0.0,0.0,0.0,0.0,0.0,0.0,0.0,0.0,0.0,0.0,0.0,0.0,0.0,0.0,0.0,0.0,0.0,0.0,0.0,0.0,0.0,0.0,0.0,0.0,0.0,0.0,0.0,0.0,0.0,0.0,0.0,0.0,0.0,0.0,0.0,0.0,0.0,0.0,0.0,0.0,0.0,0.0,0.0,0.0,0.0,0.0,0.0,0.0,0.0,0.0,0.0,0.0,0.0,0.0,0.0,0.0,0.0,0.0,0.0,0.0,0.0,0.0,0.0,0.0,0.0,0.0,0.0,0.0,0.0,0.0,0.0,0.0,0.0,0.0,0.0,0.0,0.0,0.0,0.0,0.0,0.0,0.0,0.0,0.0,0.0,0.0,0.0,0.0,0.0,0.0,0.0,0.0,0.0,0.0,0.0,0.0,0.0,0.0,0.0,0.0,0.0,0.0,0.0,0.0,0.0,0.0,0.0,0.0,0.0,0.0,0.0,0.0,0.0,0.0,0.0,0.0,0.0,0.0,0.0,0.0,0.0,0.0,0.0,0.0,0.0,0.0,0.0,0.0,0.0,0.0,0.0,0.0,0.0,0.0,0.0,0.0,0.0,0.0,0.0,0.0,0.0,0.0,0.0,0.0,0.0,0.0,0.0,0.0,0.0,0.0,0.0,0.0,0.0,0.0,0.0,0.0,0.0,0.0,0.0,0.0,0.0,0.0,0.0,0.0,0.0,0.0,0.0,0.0,0.0,0.0,0.0,0.0,0.0,0.0,0.0,0.0,0.0,0.0,0.0,0.0,0.0,0.0,0.0,0.0,0.0,0.0,0.0,0.0,0.0,0.0,0.0,0.0,0.0,0.0,0.0,0.0,0.0,0.0,0.0,0.0,0.0,0.0,0.0,0.0,0.0,0.0,0.0,0.0,0.0,0.0,0.0,0.0,0.0,0.0,0.0,0.0,0.0,0.0,0.0,0.0,0.0,0.0,0.0,0.0,0.0,0.0,0.0,0.0,0.0,0.0,0.0,0.0,0.0,0.0,0.0,0.0,0.0,0.0,0.0,0.0,0.0,0.0,0.0,0.0,0.0,0.0,0.0,0.0,0.0,0.0,0.0,0.0,0.0,0.0,0.0,0.0,0.0,0.0,0.0,0.0,0.0,0.0,0.0,0.0,0.0,0.0,0.0,0.0,0.0,0.0,0.0,0.0,0.0,0.0,0.0,0.0,0.0,0.0,0.0,0.0,0.0,0.0,0.0,0.0,0.0,0.0,0.0,0.0,0.0,0.0,0.0,0.0,0.0,0.0,0.0,0.0,0.0,0.0,0.0,0.0,0.0,0.0,0.0,0.0,0.0,0.0,0.0,0.0,0.0,0.0,0.0,0.0,0.0,0.0,0.0,0.0,0.0,0.0,0.0,0.0,0.0,0.0,0.0,0.0,0.0,0.0,0.0,0.0,0.0,0.0,0.0,0.0,0.0,0.0,0.0,0.0,0.0,0.0,0.0,0.0,0.0,0.0,0.0,0.0,0.0,0.0,0.0,0.0,0.0,0.0,0.0,0.0,0.0,0.0,0.0,0.0,0.0,0.0,0.0,0.0,0.0,0.0,0.0,0.0,0.0,0.0,0.0,0.0,0.0,0.0,0.0,0.0,0.0,0.0,0.0,0.0,0.0,0.0,0.0,0.0,0.0,0.0,0.0,0.0,0.0,0.0,0.0,0.0,0.0,0.0,0.0,0.0,0.0,0.0,0.0,0.0,0.0,0.0,0.0,0.0,0.0,0.0,0.0,0.0,0.0,0.0,0.0,0.0,0.0,0.0,0.0,0.0,0.0,0.0,0.0,0.0,0.0,0.0,0.0,0.0,0.0,0.0,0.0,0.0,0.0,0.0,0.0,0.0,0.0,0.0,0.0,0.0,0.0,0.0,0.0,0.0,0.0,0.0,0.0,0.0,0.0,0.0,0.0,0.0,0.0,0.0,0.0,0.0,0.0,0.0,0.0,0.0,0.0,0.0,0.0,0.0,0.0,0.0,0.0,0.0,0.0,0.0,0.0,0.0,0.0,0.0,0.0,0.0,0.0,0.0,0.0,0.0,0.0,0.0,0.0,0.0,0.0,0.0,0.0,0.0,0.0,0.0,0.0,0.0,0.0,0.0,0.0,0.0,0.0,0.0,0.0,0.0,0.0,0.0,0.0,0.0,0.0,0.0,0.0,0.0,0.0,0.0,0.0,0.0,0.0,0.0,0.0,0.0,0.0,0.0,0.0,0.0,0.0,0.0,0.0,0.0,0.0,0.0,0.0,0.0,0.0,0.0,0.0,0.0,0.0,0.0,0.0,0.0,0.0,0.0,0.0,0.0,0.0,0.0,0.0,0.0,0.0,0.0,0.0,0.0,0.0,0.0,0.0,0.0,0.0,0.0,0.0,0.0,0.0,0.0,0.0,0.0,0.0,0.0,0.0,0.0,0.0,0.0,0.0,0.0,0.0,0.0,0.0,0.0,0.0,0.0,0.0,0.0,0.0,0.0,0.0,0.0,0.0,0.0,0.0,0.0,0.0,0.0,0.0,0.0,0.0,0.0,0.0,0.0,0.0,0.0,0.0,0.0,0.0,0.0,0.0,0.0,0.0,0.0,0.0,0.0,0.0,0.0,0.0,0.0,0.0,0.0,0.0,0.0,0.0,0.0,0.0,0.0,0.0,0.0,0.0,0.0,0.0,0.0,0.0,0.0,0.0,0.0,0.0,0.0,0.0,0.0,0.0,0.0,0.0,0.0,0.0,0.0,0.0,0.0,0.0,0.0,0.0,0.0,0.0,0.0,0.0,0.0,0.0,0.0,0.0,0.0,0.0,0.0,0.0,0.0,0.0,0.0,0.0,0.0,0.0,0.0,0.0,0.0,0.0,0.0,0.0,0.0,0.0,0.0,0.0,0.0,0.0,0.0,0.0,0.0,0.0,0.0,0.0,0.0,0.0,0.0,0.0,0.0,0.0,0.0,0.0,0.0,0.0,0.0,0.0,0.0,0.0,0.0,0.0,0.0,0.0,0.0,0.0,0.0,0.0,0.0,0.0,0.0,0.0,0.0,0.0,0.0,0.0,0.0,0.0,0.0,0.0,0.0,0.0,0.0,0.0,0.0,0.0,0.0,0.0,0.0,0.0,0.0,0.0,0.0,0.0,0.0,0.0,0.0,0.0,0.0,0.0,0.0,0.0,0.0,0.0,0.0,0.0,0.0,0.0,0.0,0.0,0.0,0.0,0.0,0.0,0.0,0.0,0.0,0.0,0.0,0.0,0.0,0.0,0.0,0.0,0.0,0.0,0.0,0.0,0.0,0.0,0.0,0.0,0.0,0.0,0.0,0.0,0.0,0.0,0.0,0.0,0.0,0.0,0.0,0.0,0.0,0.0,0.0,0.0,0.0,0.0,0.0,0.0,0.0,0.0,0.0,0.0,0.0,0.0,0.0,0.0,0.0,0.0,0.0,0.0,0.0,0.0,0.0,0.0,0.0,0.0,0.0,0.0,0.0,0.0,0.0,0.0,0.0,0.0,0.0,0.0,0.0,0.0,0.0,0.0,0.0,0.0,0.0,0.0,0.0,0.0,0.0,0.0,0.0,0.0,0.0,0.0,0.0,0.0,0.0,0.0,0.0,0.0,0.0,0.0,0.0,0.0,0.0,0.0,0.0,0.0,0.0,0.0,0.0,0.0,0.0,0.0,0.0,0.0,0.0,0.0,0.0,0.0,0.0,0.0,0.0,0.0,0.0,0.0,0.0,0.0,0.0,0.0,0.0,0.0,0.0,0.0,0.0,0.0,0.0,0.0,0.0,0.0,0.0,0.0,0.0,0.0,0.0,0.0,0.0,0.0,0.0,0.0,0.0,0.0,0.0,0.0,0.0,0.0,0.0,0.0,0.0,0.0,0.0,0.0,0.0,0.0,0.0,0.0,0.0,0.0,0.0,0.0,0.0,0.0,0.0,0.0,0.0,0.0,0.0,0.0,0.0,0.0,0.0,0.0,0.0,0.0,0.0,0.0,0.0,0.0,0.0,0.0,0.0,0.0,0.0,0.0,0.0,0.0,0.0,0.0,0.0,0.0,0.0,0.0,0.0,0.0,0.0,0.0,0.0,0.0,0.0,0.0,0.0,0.0,0.0,0.0,0.0,0.0,0.0,0.0,0.0,0.0,0.0,0.0,0.0,0.0,0.0,0.0,0.0,0.0,0.0,0.0,0.0,0.0,0.0,0.0,0.0,0.0,0.0,0.0,0.0,0.0,0.0,0.0,0.0,0.0,0.0,0.0,0.0,0.0,0.0,0.0,0.0,0.0,0.0,0.0,0.0,0.0,0.0,0.0,0.0,0.0,0.0,0.0,0.0,0.0,0.0,0.0,0.0,0.0,0.0,0.0,0.0,0.0,0.0,0.0,0.0,0.0,0.0,0.0,0.0,0.0,0.0,0.0,0.0,0.0,0.0,0.0,0.0,0.0,0.0,0.0,0.0,0.0,0.0,0.0,0.0,0.0,0.0,0.0,0.0,0.0,0.0,0.0,0.0,0.0,0.0,0.0,0.0,0.0,0.0,0.0,0.0,0.0,0.0,0.0,0.0,0.0,0.0,0.0,0.0,0.0,0.0,0.0,0.0,0.0,0.0,0.0,0.0,0.0,0.0,0.0,0.0,0.0,0.0,0.0,0.0,0.0,0.0,0.0,0.0,0.0,0.0,0.0,0.0,0.0,0.0,0.0,0.0,0.0,0.0,0.0,0.0,0.0,0.0,0.0,0.0,0.0,0.0,0.0,0.0,0.0,0.0,0.0,0.0,0.0,0.0,0.0,0.0,0.0,0.0,0.0,0.0,0.0,0.0,0.0,0.0,0.0,0.0,0.0,0.0,0.0,0.0,0.0,0.0,0.0,0.0,0.0,0.0,0.0,0.0,0.0,0.0,0.0,0.0,0.0,0.0,0.0,0.0,0.0,0.0,0.0,0.0,0.0,0.0,0.0,0.0,0.0,0.0,0.0,0.0,0.0,0.0,0.0,0.0,0.0,0.0,0.0,0.0,0.0,0.0,0.0,0.0,0.0,0.0,0.0,0.0,0.0,0.0,0.0,0.0,0.0,0.0,0.0,0.0,0.0,0.0,0.0,0.0,0.0,0.0,0.0,0.0,0.0,0.0,0.0,0.0,0.0,0.0,0.0,0.0,0.0,0.0,0.0,0.0,0.0,0.0,0.0,0.0,0.0,0.0,0.0,0.0,0.0,0.0,0.0,0.0,0.0,0.0,0.0,0.0,0.0,0.0,0.0,0.0,0.0,0.0,0.0,0.0,0.0,0.0,0.0,0.0,0.0,0.0,0.0,0.0,0.0,0.0,0.0,0.0,0.0,0.0,-2.2974,0.0,0.0,0.0,0.0,0.0,0.0,0.0,0.0,0.0,0.0,0.0,0.0,0.0,0.0,0.0,0.0,0.0,0.0,0.0,0.0,0.0,0.0,0.0,0.0,-1.564,-1.6457,-1.6983,-1.7203,-1.7277,-1.7196,0.0,0.0,0.0,0.0,0.0,-1.6193,-1.5869,-1.5679,-1.5622,-1.5617,-1.5594,-1.5525,-1.5127,-1.414,-1.2732,0.0,0.0,0.0,0.0,0.0,0.0,0.0,0.0,0.0,0.0,0.0,0.0,0.0,0.0,0.0,0.0,0.0,0.0,0.0,0.0,0.0,0.0,0.0,0.0,0.0,0.0,0.0,0.0,0.0,0.0,0.0,0.0,0.0,0.0,0.0,0.0,0.0,0.0,0.0,0.0,0.0,0.0,0.0,0.0,0.0,0.0,0.0,0.0,0.0,0.0,0.0,0.0,0.0,0.0,0.0,0.0,0.0,0.0,0.0,0.0,0.0,0.0,0.0,0.0,0.0,0.0,0.0,0.0,0.0,0.0,0.0,-2.5161,0.0,0.0,0.0,0.0,0.0,0.0,0.0,0.0,0.0,0.0,0.0,0.0,0.0,0.0,0.0,0.0,0.0,0.0,0.0,0.0,0.0,-1.3799,-1.5147,-1.6104,-1.7049,-1.8051,-1.8221,-1.8113,-1.7813,-1.7987,0.0,0.0,0.0,-1.7157,-1.7035,-1.7112,-1.7378,-1.7796,-1.7852,-1.7871,-1.7802,-1.7321,-1.6049,-1.4245,-1.4567,0.0,0.0,0.0,0.0,0.0,0.0,0.0,0.0,0.0,0.0,0.0,0.0,0.0,0.0,0.0,0.0,0.0,0.0,0.0,0.0,0.0,0.0,0.0,0.0,0.0,0.0,0.0,0.0,0.0,0.0,0.0,0.0,0.0,0.0,0.0,0.0,0.0,0.0,0.0,0.0,0.0,0.0,0.0,0.0,0.0,0.0,0.0,0.0,0.0,0.0,0.0,0.0,0.0,0.0,0.0,0.0,0.0,0.0,0.0,0.0,0.0,0.0,0.0,-2.7028,-2.7422,-2.7197,-2.8673,-2.9711,-3.0321,-3.009,-2.9617,-2.8844,-2.6793,0.0,0.0,0.0,0.0,0.0,0.0,0.0,0.0,0.0,0.0,0.0,0.0,0.0,0.0,0.0,0.0,0.0,0.0,0.0,-1.5313,-1.6366,-1.716,-1.814,-1.9414,-1.8883,-1.8732,-1.9357,-1.9264,0.0,0.0,-1.9001,-1.8669,-1.835,-1.7976,-1.7942,-1.8235,-1.8515,-1.8791,-1.9044,-1.8461,-1.7976,-1.7536,-1.6751,-1.6312,-1.6051,0.0,0.0,0.0,0.0,0.0,0.0,0.0,0.0,0.0,0.0,0.0,0.0,0.0,0.0,0.0,0.0,0.0,0.0,0.0,0.0,0.0,0.0,0.0,0.0,0.0,0.0,0.0,0.0,0.0,0.0,0.0,0.0,0.0,0.0,0.0,0.0,0.0,0.0,0.0,0.0,0.0,-1.8284,-2.004,0.0,0.0,0.0,0.0,0.0,0.0,0.0,0.0,0.0,0.0,0.0,0.0,0.0,-2.603,-2.6139,-2.8198,-2.9231,-2.9213,-3.0446,-3.1382,-3.2114,-3.3079,-3.398,-3.484,-3.504,0.0,-3.0231,-2.9894,0.0,0.0,0.0,0.0,0.0,0.0,0.0,0.0,0.0,0.0,0.0,0.0,0.0,0.0,0.0,0.0,0.0,0.0,0.0,0.0,0.0,-1.8216,-1.9257,-2.0536,-2.0573,-2.0356,-1.9959,-1.9924,-1.9697,-1.9214,-1.8661,-1.8376,-1.8376,-1.8587,-1.9101,-2.0004,-2.0289,-2.0324,-2.0139,-1.9477,-1.9346,-1.9598,-1.9132,-1.8273,-1.7014,-1.5915,0.0,0.0,0.0,0.0,0.0,0.0,0.0,0.0,0.0,0.0,0.0,0.0,0.0,0.0,0.0,0.0,0.0,0.0,0.0,0.0,0.0,0.0,0.0,0.0,0.0,0.0,0.0,0.0,0.0,0.0,0.0,0.0,0.0,0.0,0.0,0.0,0.0,0.0,0.0,-1.9035,-2.0797,-2.1104,-2.1299,-2.1134,0.0,0.0,0.0,0.0,0.0,0.0,0.0,0.0,0.0,-2.7177,-2.821,-2.9083,-2.9827,-3.1133,-3.1788,-3.1756,-3.2313,-3.2789,-3.3216,-3.4653,-3.5555,-3.5951,-3.6789,-3.6178,-3.4534,-3.2771,-3.1218,-2.9799,0.0,0.0,0.0,0.0,-2.9617,-3.0041,0.0,0.0,0.0,0.0,0.0,0.0,0.0,0.0,0.0,0.0,0.0,0.0,-1.8509,-1.9582,-2.0616,-2.1768,-2.213,-2.1911,0.0,0.0,-2.0492,-1.9744,-1.8967,-1.8696,-1.8963,-1.9683,-2.0569,-2.1612,-2.1764,-2.1547,-2.0993,-2.0321,-2.0154,-2.0465,-2.0465,-1.9648,-1.8202,-1.744,-1.6283,0.0,0.0,0.0,0.0,0.0,0.0,0.0,0.0,0.0,0.0,0.0,0.0,0.0,0.0,0.0,0.0,0.0,0.0,0.0,0.0,0.0,0.0,0.0,0.0,0.0,0.0,0.0,0.0,0.0,0.0,0.0,0.0,0.0,0.0,0.0,0.0,0.0,0.0,-2.1196,-2.2664,-2.2057,-2.3156,-2.3409,0.0,0.0,0.0,0.0,0.0,0.0,-2.6878,-2.7238,-2.8201,-3.0042,-3.0811,-3.1699,-3.2695,-3.3092,-3.3284,-3.3284,-3.3284,-3.355,-3.4065,-3.5454,-3.6362,-3.6866,-3.7758,-3.8145,-3.7934,-3.5166,-3.3396,-3.237,-3.1724,-3.1059,-3.0684,-3.178,-3.23,-3.2678,0.0,0.0,0.0,0.0,0.0,0.0,0.0,0.0,0.0,0.0,0.0,-1.8903,-2.0396,0.0,-2.2338,-2.3323,-2.2998,-2.2944,0.0,0.0,-2.2215,-2.2232,-2.1213,-2.0782,-2.1039,-2.1764,-2.2235,-2.2443,-2.2263,-2.1969,-2.1561,-2.087,-2.0296,-1.9849,-1.9849,-2.0087,-2.0453,-1.9359,-1.8254,-1.7096,0.0,0.0,0.0,0.0,0.0,0.0,0.0,0.0,0.0,0.0,0.0,0.0,0.0,0.0,0.0,0.0,0.0,0.0,0.0,0.0,0.0,0.0,0.0,0.0,0.0,0.0,0.0,0.0,0.0,0.0,0.0,0.0,0.0,0.0,0.0,0.0,0.0,0.0,0.0,-2.3051,-2.4553,0.0,0.0,0.0,0.0,-2.594,-2.6623,-2.7999,-3.0207,-3.0123,-3.0956,-3.3032,-3.2908,-3.2956,-3.3248,-3.3272,-3.3284,-3.3284,-3.3284,-3.4235,-3.597,-3.6057,-3.7064,-3.8779,-3.8819,-3.886,-3.8705,-3.6764,-3.5597,-3.495,-3.4295,-3.3641,-3.3178,-3.3824,-3.4478,-3.5094,0.0,0.0,0.0,-1.0838,-1.0837,-1.1372,-1.2703,-1.3196,-1.3988,-1.5504,-1.7609,-1.9151,0.0,-2.1419,-2.274,-2.3194,-2.3682,-2.3737,-2.324,0.0,-2.256,-2.2272,-2.12,-2.0963,-2.1754,-2.2114,-2.265,-2.339,-2.2649,-2.2383,-2.2612,-2.1586,-2.1222,-2.1418,-2.1418,-2.1531,-2.1606,-1.9773,-1.877,-1.8268,-1.6609,-1.5266,0.0,0.0,0.0,0.0,0.0,0.0,0.0,0.0,0.0,0.0,0.0,0.0,0.0,0.0,0.0,0.0,0.0,0.0,0.0,0.0,0.0,0.0,0.0,0.0,0.0,0.0,0.0,0.0,0.0,0.0,0.0,0.0,0.0,0.0,0.0,0.0,0.0,-2.5443,-2.6991,0.0,-2.5922,-2.7133,-2.8335,-2.9112,-2.9575,-3.0588,-3.2256,-3.2101,-3.2505,-3.3694,-3.3671,-3.4006,-3.4775,-3.4451,-3.4451,-3.4787,-3.4438,-3.4959,-3.6259,-3.691,-3.7883,-3.9106,-3.9355,-3.9493,-3.9422,-3.8354,-3.7538,-3.6866,-3.6248,-3.5869,-3.5714,-3.5925,-3.6136,-3.6409,-1.1314,-1.1326,0.0,-1.0773,-1.092,-1.1531,-1.2852,-1.3394,-1.431,-1.6119,-1.8089,-1.9607,-2.0334,-2.2164,-2.3362,-2.3421,-2.4188,-2.4331,-2.3499,0.0,-2.2867,-2.2574,-2.1673,-2.1597,-2.2511,-2.2782,-2.3259,-2.3961,-2.3031,-2.2582,-2.2563,-2.1586,-2.1248,-2.1468,-2.1468,-2.1681,-2.192,-2.0275,-1.9572,-1.9459,-1.8154,-1.6974,-1.5902,0.0,0.0,0.0,0.0,0.0,0.0,0.0,0.0,0.0,0.0,0.0,0.0,0.0,0.0,0.0,0.0,0.0,0.0,0.0,0.0,0.0,0.0,0.0,0.0,0.0,0.0,0.0,0.0,0.0,0.0,0.0,0.0,0.0,0.0,0.0,-2.6903,-2.7152,-2.8826,-2.9523,-2.8281,-2.9433,-3.0594,-3.1512,-3.1741,-3.2325,-3.3501,-3.3314,-3.3577,-3.4498,-3.4474,-3.4894,-3.5869,-3.5533,-3.5533,-3.5881,-3.5673,-3.6083,-3.7104,-3.792,-3.8778,-3.9738,-3.9997,-4.0083,-4.0041,-3.9465,-3.8917,-3.8454,-3.7625,-3.7288,-3.7274,-3.7063,-3.6978,-3.707,-1.0693,-1.0693,-1.0693,-1.0705,-1.1038,-1.1808,-1.3282,-1.3795,-1.5113,-1.8155,-1.9194,-2.043,-2.2516,-2.3728,-2.4302,-2.4099,-2.4513,-2.4634,-2.4302,-2.361,-2.3211,-2.3275,-2.2827,-2.2821,-2.34,-2.39,-2.4136,-2.4151,-2.3478,-2.2585,-2.1474,-2.0936,-2.0385,-1.9874,-1.9874,-2.0489,-2.1509,-2.0993,-2.0767,-2.0718,-2.0075,-1.9183,-1.8103,0.0,0.0,0.0,0.0,0.0,0.0,0.0,0.0,0.0,0.0,0.0,0.0,0.0,0.0,0.0,0.0,0.0,0.0,0.0,0.0,0.0,0.0,0.0,0.0,0.0,0.0,0.0,0.0,0.0,0.0,0.0,0.0,0.0,-2.5652,-2.7197,-2.8153,-2.8023,-2.9959,-3.0849,-2.9725,-3.1134,-3.2374,-3.2886,-3.2923,-3.3255,-3.4018,-3.3875,-3.4292,-3.5617,-3.5392,-3.5642,-3.6423,-3.6411,-3.6411,-3.6423,-3.6899,-3.7629,-3.8598,-3.906,-3.9779,-4.0702,-4.0702,-4.0702,-4.0645,-4.0055,-3.9816,-3.969,-3.8426,-3.792,-3.7835,-3.7231,-3.7046,-3.707,-1.0693,-1.0693,-1.0777,-1.1015,-1.1192,-1.1805,-1.3333,-1.4053,-1.5209,-1.7357,-1.9334,-2.0797,-2.1436,-2.2885,-2.3702,-2.3385,-2.3852,-2.4021,-2.3732,0.0,-2.3056,-2.2601,-2.345,-2.3903,-2.3768,-2.4443,-2.4975,-2.5344,-2.4669,-2.3999,-2.3335,-2.2759,-2.218,-2.161,-2.161,-2.1992,-2.2637,-2.2492,-2.2378,-2.212,-2.0923,-1.9901,-1.8972,0.0,0.0,0.0,0.0,0.0,0.0,0.0,0.0,0.0,0.0,0.0,0.0,0.0,0.0,0.0,0.0,0.0,0.0,0.0,0.0,0.0,0.0,0.0,0.0,0.0,0.0,0.0,0.0,0.0,0.0,0.0,-2.4939,-2.6323,-2.7058,-2.8037,-2.9054,-2.9989,-3.1137,-3.1815,-3.1687,-3.2438,-3.3179,-3.3635,-3.3553,-3.3958,-3.5087,-3.4938,-3.5199,-3.617,-3.6093,-3.6333,-3.6976,-3.6591,-3.6603,-3.6976,-3.7506,-3.8059,-3.8611,-3.9503,-4.0192,-4.0702,-4.0702,-4.0702,-4.0688,-4.0519,-4.0449,-4.0322,-3.9086,-3.8313,-3.7878,-3.7709,-3.7568,-3.7457,-1.0693,-1.0693,-1.0801,-1.1132,-1.1508,-1.2192,-1.3441,-1.4467,-1.5743,-1.7529,-1.9431,-2.0886,-2.1574,-2.2819,-2.3545,-2.3422,-2.3717,-2.3697,-2.3122,0.0,-2.3126,-2.3452,0.0,-2.4458,-2.4771,-2.5175,-2.566,-2.6224,-2.5603,-2.5019,-2.4463,-2.3649,-2.3216,-2.308,-2.2547,-2.2881,-2.3868,-2.3593,-2.3326,-2.3023,-2.1975,-2.1024,-2.0177,-1.9124,-1.8882,-1.9101,-1.8679,-1.8713,-1.9024,-1.9591,0.0,0.0,0.0,0.0,0.0,0.0,0.0,0.0,0.0,0.0,0.0,0.0,0.0,0.0,0.0,0.0,0.0,0.0,0.0,0.0,0.0,0.0,0.0,0.0,-2.6963,-2.8306,-2.8776,-2.92,-2.9811,-3.0815,-3.1546,-3.2128,-3.2596,-3.3157,-3.3731,-3.4282,-3.4341,-3.4686,-3.5531,-3.5683,-3.6042,-3.6711,-3.6735,-3.6988,-3.7517,-3.7216,-3.7475,-3.8221,-3.8717,-3.9304,-4.0027,-4.0818,-4.1171,0.0,-4.1081,-4.0926,-4.0702,-4.0702,-4.0702,0.0,0.0,0.0,0.0,0.0,-3.8184,-3.801,-1.0694,-1.0668,-1.0816,-1.1219,-1.1911,-1.2726,-1.3668,-1.4934,-1.6412,-1.817,-1.9372,-2.0681,-2.2241,-2.2948,-2.3394,-2.3591,-2.3713,-2.3459,0.0,0.0,0.0,-2.5024,-2.4656,-2.4943,-2.604,-2.605,-2.6312,-2.6895,-2.651,-2.5937,-2.5187,-2.4252,-2.3998,-2.4352,-2.3141,-2.3559,-2.515,-2.4446,-2.406,-2.3844,-2.3135,-2.2337,-2.1393,-2.0048,-2.0017,-2.0625,-2.012,-2.0175,-2.0499,-2.0641,0.0,0.0,0.0,0.0,0.0,0.0,0.0,0.0,0.0,0.0,0.0,0.0,0.0,0.0,0.0,0.0,0.0,0.0,0.0,0.0,0.0,0.0,0.0,0.0,-2.8871,-3.0277,-3.0577,-3.0454,-3.0467,-3.0925,-3.142,-3.2029,-3.2769,-3.3422,-3.4078,-3.4786,-3.5093,-3.5415,-3.5735,0.0,0.0,0.0,0.0,-3.7714,-3.8185,-3.8291,-3.8844,-3.9802,-4.0314,-4.1055,-4.1944,-4.2439,-4.2331,-4.1727,-4.1727,-4.1376,-4.08,-4.08,-4.0758,-4.0631,-4.0027,-3.9788,-3.9746,-3.9141,-3.8793,-3.8614,-1.0666,-1.0584,-1.088,-1.1708,-1.2148,-1.2885,-1.4289,-1.5189,-1.6352,-1.8155,-1.8936,-1.9827,-2.1155,-2.1424,-2.1731,-2.2293,-2.2481,-2.275,0.0,0.0,0.0,0.0,0.0,-2.6462,-2.6469,-2.7144,-2.7496,-2.7521,-2.7959,-2.7625,-2.6526,-2.6316,-2.6008,-2.5605,-2.4824,-2.5221,-2.6394,-2.545,-2.5301,-2.5598,-2.4329,-2.3006,-2.1716,-2.0739,-2.1003,-2.1834,-2.1499,-2.2047,-2.2942,-2.2948,-2.2818,-2.2659,-2.2678,0.0,0.0,0.0,0.0,0.0,0.0,0.0,0.0,0.0,0.0,0.0,0.0,0.0,0.0,0.0,0.0,0.0,0.0,0.0,0.0,-2.8543,-2.9893,-3.0903,-3.1388,-3.1131,-3.0866,-3.0972,-3.1599,-3.2183,-3.2524,-3.3587,-3.4504,-3.5077,-3.5358,-3.5939,-3.6843,-3.6988,-3.7276,-3.7817,-3.8684,-3.92,-3.9299,-4.016,-4.0667,-4.0919,0.0,0.0,-4.1944,-4.2884,-4.2978,-4.2402,-4.2402,-4.2022,-4.1446,-4.1446,-4.1151,-4.0631,-4.0027,-3.9788,-3.976,-3.9305,-3.9223,-3.9264,-1.1429,-1.1482,-1.1735,-1.2301,-1.286,-1.3529,-1.4417,-1.5461,-1.647,-1.7348,-1.8443,-1.9386,-1.9972,-2.0611,-2.1133,-2.1467,-2.1816,0.0,0.0,0.0,0.0,0.0,0.0,0.0,0.0,0.0,-2.8326,-2.8569,-2.8967,-2.8843,-2.8244,-2.7934,-2.7793,-2.7764,-2.6969,-2.7283,-2.8333,-2.7332,-2.7209,-2.7506,-2.5838,-2.4544,-2.3454,-2.1944,-2.1776,-2.2333,-2.2147,-2.2799,-2.3696,-2.3616,-2.3697,-2.381,-2.381,-2.3273,-2.2535,0.0,0.0,0.0,0.0,0.0,0.0,0.0,0.0,0.0,0.0,0.0,0.0,0.0,0.0,-2.52,-2.6636,0.0,-2.8766,-2.9917,-3.079,-3.136,-3.1492,-3.1318,-3.1234,-3.1506,-3.1972,-3.2488,-3.3043,-3.4018,-3.4795,-3.537,-3.5757,-3.6604,-3.7944,-3.8251,-3.8768,-3.9597,-4.0109,-4.0414,-4.0414,-4.0919,-4.1468,-4.1999,-4.2536,-4.2931,-4.3144,-4.3701,-4.3624,-4.3034,-4.3034,-4.25,-4.1587,-4.1278,-4.0969,-4.0674,-4.0364,-4.0238,-4.0252,-4.0027,-3.9882,-3.976,-1.2378,-1.2637,-1.2807,-1.2871,-1.3502,-1.4113,-1.4456,-1.5566,-1.6394,-1.6509,-1.7778,-1.8699,-1.8764,-1.9798,-2.0642,0.0,0.0,0.0,0.0,0.0,0.0,0.0,0.0,0.0,0.0,0.0,0.0,0.0,0.0,0.0,-2.9763,-2.9298,-2.9327,-2.9749,-2.8733,-2.8933,-2.9916,-2.8792,-2.863,-2.8958,-2.7042,-2.591,-2.5123,-2.312,-2.2415,-2.2489,-2.231,-2.2912,-2.3775,-2.3545,-2.3846,-2.4338,-2.4302,-2.3953,-2.3542,-2.3502,-2.2891,0.0,0.0,0.0,0.0,0.0,0.0,0.0,0.0,0.0,-2.4272,-2.5996,-2.6663,-2.7331,-2.8707,-2.9665,-3.041,-3.0995,-3.1428,-3.1617,-3.1395,-3.135,-3.1496,-3.2122,-3.2357,-3.2783,-3.3541,-3.4365,-3.5196,-3.5912,-3.6545,-3.7575,-3.9158,-3.9664,-4.0313,-4.1169,-4.1419,-4.1518,-4.1518,-4.1716,-4.2257,-4.3095,-4.3095,-4.3553,-4.4411,-4.4411,-4.4144,-4.3652,-4.3427,-4.2739,-4.1741,-4.0997,-4.0702,-4.0702,-4.0702,-4.0702,-4.0702,-4.0702,-4.0562,-4.0276,-1.2983,-1.344,-1.3701,-1.3224,-1.3429,-1.3935,-1.4798,-1.5269,-1.5801,-1.6514,-1.6717,-1.7006,-1.7533,-1.8241,-1.9406,-2.1201,0.0,0.0,0.0,0.0,0.0,0.0,0.0,0.0,0.0,0.0,0.0,0.0,0.0,0.0,0.0,0.0,0.0,-3.0418,-2.9126,-2.908,-2.99,-2.829,-2.8268,-2.9125,-2.7343,-2.6171,-2.5309,-2.3808,-2.295,-2.242,-2.1874,-2.2603,-2.3717,-2.3157,-2.3653,-2.4457,-2.4338,-2.4333,-2.4333,-2.4215,0.0,-2.3197,-2.3327,-2.3651,-2.4014,-2.4152,-2.4905,-2.591,0.0,0.0,-2.6947,-2.8421,-2.8772,-2.9154,-3.0399,-3.0711,-3.1007,-3.1536,-3.1669,-3.1705,-3.1661,-3.1439,-3.1598,-3.234,-3.2474,-3.2736,-3.3302,-3.4442,-3.5775,-3.727,-3.8079,-3.9221,-4.0839,-4.0993,-4.1069,-4.1219,-4.2097,-4.2647,-4.2647,-4.3553,-4.4115,-4.4209,-4.4209,-4.4256,-4.4411,-4.4411,-4.4369,-4.4242,-4.316,-4.2598,-4.2388,-4.1193,-4.0702,-4.0702,-4.0702,-4.0702,-4.0702,-4.0702,-4.0916,-4.1082,-1.3544,-1.3791,-1.3881,-1.3693,-1.3893,-1.4178,-1.4535,-1.4858,-1.5219,-1.5678,-1.6042,-1.6571,-1.7361,-1.8364,-1.9487,-2.071,-2.154,0.0,-2.2621,0.0,0.0,0.0,0.0,0.0,0.0,0.0,0.0,0.0,0.0,0.0,0.0,0.0,0.0,0.0,0.0,0.0,-2.9454,-2.9131,-2.9516,-3.0138,-2.8491,-2.7474,-2.6732,-2.4696,-2.3384,-2.2535,-2.1827,-2.2226,0.0,0.0,-2.3377,-2.4009,-2.4219,-2.3958,-2.3626,-2.3824,-2.3528,0.0,-2.4866,-2.5286,-2.5549,-2.6557,-2.7027,-2.7453,-2.8351,-2.8136,-2.8167,-2.9555,-2.9955,-3.0306,-3.1182,-3.138,-3.1452,0.0,-3.1982,-3.2034,-3.1753,-3.1747,-3.1943,-3.2421,-3.2659,-3.2972,-3.3648,-3.4472,-3.5781,-3.7692,-3.8116,-3.9466,-4.2008,-4.2159,-4.2404,-4.306,-4.3849,-4.4221,-4.4221,-4.4693,-4.4945,-4.4945,-4.4579,-4.4411,-4.4411,-4.4411,-4.4411,-4.4355,-4.3497,-4.2907,-4.2514,-4.1601,-4.1025,-4.0702,-4.0702,-4.0702,-4.0702,-4.0702,-4.083,-4.0916,-1.3838,-1.3911,-1.3891,-1.3931,-1.4108,-1.4268,-1.4332,-1.4541,-1.4819,-1.5195,-1.5656,-1.6354,-1.7391,-1.8413,-1.9394,-2.024,-2.1183,-2.1879,0.0,-2.3995,0.0,0.0,0.0,0.0,0.0,0.0,0.0,0.0,0.0,0.0,0.0,0.0,0.0,0.0,0.0,0.0,0.0,0.0,-2.959,-2.9936,-2.8387,-2.7568,-2.7009,-2.4679,-2.3315,-2.2526,-2.1841,-2.1969,0.0,0.0,-2.2885,-2.3463,-2.3634,-2.3299,-2.2969,-2.3495,-2.3457,-2.3618,-2.5316,-2.6003,-2.6537,-2.7725,-2.8294,-2.8664,-2.8935,-2.8851,-2.9026,-3.0065,-3.0489,-3.0868,-3.1363,-3.1609,-3.1705,-3.1705,-3.213,-3.2298,-3.1789,-3.1938,-3.2134,-3.2139,-3.2793,-3.3427,-3.3965,-3.4883,-3.6368,-3.8694,-3.901,-4.0293,-4.3088,-4.3239,-4.36,-4.4364,-4.5015,-4.5276,-4.5276,-4.5276,-4.5276,-4.5262,-4.4706,-4.4411,-4.4411,-4.4411,-4.4411,-4.4383,-4.3764,-4.3146,-4.2528,-4.1882,-4.125,-4.0702,-4.0702,-4.0702,-4.0702,-4.0702,-4.073,-4.0774,-1.3775,-1.3804,-1.3804,-1.3804,-1.3804,-1.3941,-1.4349,-1.4413,-1.4701,-1.5485,-1.5602,-1.6109,-1.7357,-1.7873,-1.8662,-2.0002,-2.0976,-2.1787,-2.2456,-2.3578,0.0,0.0,0.0,0.0,0.0,0.0,0.0,0.0,0.0,0.0,0.0,0.0,0.0,0.0,0.0,0.0,0.0,0.0,0.0,0.0,0.0,0.0,-2.5191,-2.3276,-2.2491,-2.2347,-2.1793,0.0,0.0,0.0,-2.2079,-2.29,-2.2272,-2.2411,0.0,-2.3615,-2.3845,-2.3893,-2.3974,-2.5105,-2.6308,-2.6353,-2.797,-2.9398,-2.8849,-2.9263,-2.9788,-2.9884,-3.0331,-3.0746,-3.0881,-3.1356,-3.1705,-3.1705,-3.213,-3.2298,-3.1789,-3.1938,-3.19,-3.1389,-3.2904,-3.3961,-3.3986,-3.5839,-3.8156,-4.0835,-4.151,-4.2547,-4.4275,-4.4364,-4.4364,-4.4411,-4.5015,-4.5276,-4.5276,-4.5276,-4.5276,-4.5262,-4.4706,-4.4411,-4.4411,-4.4411,-4.4411,-4.4383,-4.3764,-4.3146,-4.2528,-4.1882,-4.125,-4.0702,-4.0702,-4.0702,-4.0702,-4.0702,-4.0816,-4.0916,-1.3788,-1.4092,-1.4223,-1.3907,-1.4204,-1.4373,-1.4109,-1.4023,-1.4306,-1.5162,-1.6205,0.0,0.0,0.0,0.0,0.0,-2.0307,-2.1032,-2.2426,-2.2693,0.0,0.0,0.0,0.0,0.0,0.0,0.0,0.0,0.0,0.0,0.0,0.0,0.0,0.0,0.0,0.0,0.0,0.0,0.0,0.0,0.0,0.0,-2.6883,-2.3617,-2.2353,-2.217,0.0,0.0,0.0,0.0,-2.1223,-2.1869,-2.1874,0.0,0.0,-2.2595,-2.3096,-2.387,-2.5813,-2.6517,-2.7041,-2.8399,-2.8946,-2.911,-2.9007,-2.9268,-2.9514,-2.9509,-2.9845,-3.0208,-3.0338,-3.0826,-3.1187,-3.1187,-3.2067,-3.2598,-3.2036,-3.2334,-3.2512,-3.2146,-3.3367,0.0,-3.5373,-3.659,0.0,-4.0668,-4.1158,-4.2244,-4.4308,-4.4411,-4.4411,-4.4411,-4.5422,-4.597,-4.597,-4.597,-4.597,-4.5956,-4.4916,-4.4411,-4.4411,-4.4411,-4.4411,-4.4397,-4.42,-4.3526,-4.2556,-4.2345,-4.1643,-4.0702,-4.0702,-4.0702,-4.0702,-4.0702,-4.0816,-4.1015,-1.4019,-1.4367,-1.4498,-1.4196,-1.4463,0.0,0.0,0.0,0.0,0.0,0.0,0.0,0.0,0.0,0.0,0.0,0.0,-2.0272,-2.1565,-2.1706,0.0,0.0,0.0,0.0,0.0,0.0,0.0,0.0,0.0,0.0,0.0,0.0,0.0,0.0,0.0,0.0,0.0,0.0,0.0,0.0,0.0,0.0,-2.5917,-2.3171,-2.2063,0.0,0.0,0.0,0.0,0.0,-2.0376,-2.0941,-2.1139,-2.1518,-2.2014,-2.2427,-2.3324,-2.4667,-2.6984,-2.774,-2.8205,-2.976,-2.9881,-2.9618,-2.9485,-2.9294,-2.9128,-2.8974,-2.9086,-2.9285,-2.9506,-2.9953,-3.0434,-3.0733,-3.1788,-3.2449,-3.2035,-3.2512,-3.2991,-3.3314,-3.4464,-3.5818,-3.7254,-3.8457,0.0,-4.1113,-4.1616,-4.2564,-4.4308,-4.4317,-4.4415,-4.4734,-4.5745,-4.6293,-4.6293,-4.6293,-4.6069,-4.5619,-4.4804,-4.4411,-4.4411,-4.4411,-4.4411,-4.4411,-4.4411,-4.3849,-4.2879,-4.2669,-4.1966,-4.0997,-4.0786,-4.0702,-4.0702,-4.0702,-4.0816,-4.1043,-1.4392,-1.4611,-1.4655,0.0,0.0,0.0,0.0,0.0,0.0,0.0,0.0,0.0,0.0,0.0,0.0,0.0,0.0,0.0,-2.0025,0.0,0.0,0.0,0.0,0.0,0.0,0.0,0.0,0.0,0.0,0.0,0.0,0.0,0.0,0.0,0.0,0.0,0.0,0.0,0.0,0.0,0.0,0.0,-2.2727,-2.2044,0.0,0.0,0.0,0.0,0.0,0.0,0.0,0.0,0.0,-2.1649,-2.323,-2.3178,-2.45,-2.6253,-2.7501,-2.8682,-2.9713,-3.0321,-3.0692,-3.0798,-3.0228,-2.9378,-2.8598,-2.8333,-2.8055,-2.7997,-2.8258,-2.8807,-2.9498,-3.0236,-3.1333,-3.2035,-3.176,-3.2428,-3.3456,0.0,0.0,0.0,0.0,0.0,0.0,-4.221,0.0,-4.3473,-4.4336,-4.4176,-4.4408,-4.5262,-4.5956,-4.6293,-4.6293,-4.6265,-4.5633,-4.4411,-4.4411,-4.4411,-4.4411,-4.4411,-4.4411,-4.4411,-4.4411,-4.4045,-4.3399,-4.2823,-4.2177,-4.1516,-4.0926,-4.0702,-4.0702,-4.0702,-4.0816,-4.1043,0.0,0.0,0.0,0.0,0.0,0.0,0.0,0.0,0.0,0.0,0.0,0.0,0.0,0.0,0.0,0.0,0.0,0.0,-1.9523,0.0,0.0,0.0,0.0,0.0,0.0,0.0,0.0,0.0,0.0,0.0,0.0,0.0,0.0,0.0,0.0,0.0,0.0,0.0,0.0,0.0,0.0,0.0,-2.387,0.0,0.0,0.0,0.0,0.0,0.0,0.0,0.0,0.0,0.0,-2.3267,-2.3927,-2.5282,-2.6254,-2.7265,-2.9199,-3.005,-3.0481,-3.095,-3.0681,-3.0305,-3.0152,-2.9225,-2.8247,-2.7678,-2.7163,-2.659,-2.5884,-2.7201,0.0,-2.8562,-3.0564,0.0,-3.2289,-3.328,0.0,-3.5867,0.0,-3.8696,-4.0001,-4.1805,0.0,0.0,-4.3124,-4.3672,-4.4383,-4.4317,-4.4597,-4.5262,-4.5956,-4.6293,-4.6293,-4.5816,-4.5183,-4.4411,-4.4411,-4.4411,-4.4411,-4.4411,-4.4411,-4.4411,-4.4411,-4.3807,-4.2809,-4.264,-4.1924,-4.0912,-4.0758,-4.0702,-4.0702,-4.0702,-4.0816,-4.1043,0.0,0.0,0.0,0.0,0.0,0.0,0.0,0.0,0.0,0.0,0.0,0.0,0.0,0.0,0.0,0.0,0.0,0.0,0.0,0.0,0.0,0.0,0.0,0.0,0.0,0.0,0.0,0.0,0.0,0.0,0.0,0.0,0.0,0.0,0.0,0.0,0.0,0.0,0.0,0.0,0.0,0.0,0.0,0.0,0.0,0.0,0.0,0.0,0.0,0.0,0.0,-2.2152,-2.3998,-2.4697,-2.5205,-2.677,0.0,-2.8726,-2.9961,-3.0823,-3.1365,-3.111,-3.0853,-3.0471,-2.9504,-2.8375,-2.7213,-2.6043,-2.5394,-2.4776,-2.3929,-2.5546,-2.7077,0.0,0.0,0.0,-3.2089,-3.3854,-3.5679,0.0,-3.8939,0.0,-4.1963,-4.3036,-4.3645,0.0,-4.3659,-4.3859,-4.4209,-4.4223,-4.455,-4.5262,-4.5675,-4.5872,-4.5872,-4.524,-4.4762,-4.4411,-4.4411,-4.4411,-4.4411,-4.4411,-4.4411,-4.4411,0.0,-4.3877,-4.2964,-4.2697,-4.1994,-4.1081,-4.08,-4.0702,-4.0702,-4.0702,-4.0773,-4.093,0.0,0.0,0.0,0.0,0.0,0.0,0.0,0.0,0.0,-1.6715,-1.7525,-1.8127,-1.8192,-1.8623,0.0,0.0,0.0,0.0,0.0,0.0,0.0,0.0,0.0,0.0,0.0,0.0,0.0,0.0,0.0,0.0,0.0,0.0,0.0,0.0,0.0,0.0,0.0,0.0,0.0,0.0,0.0,0.0,0.0,0.0,0.0,0.0,0.0,0.0,0.0,0.0,-2.311,-2.3267,-2.5107,-2.6052,-2.6728,-2.7815,-2.9051,-3.0077,-3.0286,-3.1303,-3.2036,-3.1032,-3.1061,-3.0727,-2.8682,-2.7185,-2.5787,-2.4099,-2.3346,-2.2813,-2.2309,-2.3931,-2.5644,-2.6511,0.0,-3.0754,-3.1629,-3.4257,-3.6738,-3.8617,-4.0582,-4.2446,-4.4214,-4.4411,-4.4411,-4.4364,-4.4176,-4.4035,-4.4035,-4.4035,-4.4456,-4.5262,-4.5276,-4.5276,-4.5276,-4.472,-4.4411,-4.4411,-4.4411,-4.4411,-4.4411,-4.4411,-4.4411,-4.4411,-4.4411,0.0,-4.3329,-4.2809,-4.2149,-4.1446,-4.0898,-4.0702,-4.0702,-4.0702,-4.0702,-4.0787,0.0,0.0,0.0,0.0,0.0,0.0,0.0,-1.7133,-1.7957,-1.8414,-1.8244,-1.827,-1.8715,-1.8845,0.0,0.0,0.0,0.0,0.0,0.0,0.0,0.0,0.0,0.0,0.0,0.0,0.0,0.0,0.0,0.0,0.0,0.0,0.0,0.0,0.0,0.0,0.0,0.0,0.0,0.0,0.0,0.0,0.0,0.0,0.0,0.0,0.0,0.0,0.0,0.0,-2.3268,-2.4527,-2.6505,-2.7324,-2.7739,-2.8704,-2.9298,-2.987,-3.1172,-3.1602,-3.1591,-3.1422,-3.0727,-2.9757,-2.8483,-2.6519,0.0,-2.3316,-2.2139,-2.1202,-2.0842,-2.2541,-2.4442,-2.5689,-2.8019,-3.0259,-3.1819,-3.4547,-3.7092,0.0,-4.116,-4.3081,-4.4303,-4.4411,0.0,0.0,0.0,-4.4317,-4.4317,-4.4317,-4.4645,-4.5262,-4.5276,-4.5276,-4.5276,-4.472,-4.4411,-4.4411,-4.4411,-4.4411,-4.4411,-4.4411,-4.4411,-4.4411,-4.4411,0.0,-4.2739,-4.2626,-4.1896,-4.0856,-4.0744,-4.0702,-4.0702,-4.0702,-4.0702,-4.0787,0.0,0.0,0.0,0.0,0.0,0.0,0.0,-1.7504,-1.8557,-1.938,-1.9192,-1.9081,-1.9342,-1.9643,-1.9836,0.0,0.0,0.0,0.0,0.0,0.0,0.0,0.0,0.0,0.0,0.0,0.0,0.0,0.0,0.0,0.0,0.0,0.0,0.0,0.0,0.0,0.0,0.0,0.0,0.0,0.0,0.0,0.0,0.0,0.0,0.0,0.0,0.0,0.0,0.0,-2.2849,-2.4206,-2.6424,-2.7473,-2.8033,-2.8978,-2.9439,-2.9865,-3.0919,-3.1471,-3.1704,-3.1173,-3.0605,-2.9615,-2.743,0.0,0.0,-2.1713,-2.075,-2.0069,-1.9333,-2.1383,0.0,-2.4372,-2.6617,-2.9239,-3.1909,-3.4765,-3.7343,-3.9501,-4.2059,-4.3851,0.0,-4.4411,-4.4364,-4.4223,0.0,-4.4317,-4.4223,-4.4317,-4.4537,-4.4832,-4.4846,-4.4846,-4.4846,-4.4551,-4.4411,-4.4411,-4.4411,-4.4411,-4.4411,-4.4411,-4.4411,-4.4411,-4.4411,0.0,-4.2584,-4.2584,-4.184,-4.0702,-4.0702,-4.0702,-4.0702,-4.0702,-4.0773,-4.0845,0.0,0.0,0.0,0.0,0.0,0.0,0.0,-1.7744,-1.8811,-1.9898,-1.9897,-1.9799,-1.9848,-2.0363,-2.0699,0.0,0.0,0.0,0.0,0.0,0.0,0.0,0.0,0.0,0.0,0.0,0.0,0.0,0.0,0.0,0.0,0.0,0.0,0.0,0.0,0.0,0.0,0.0,0.0,0.0,0.0,0.0,0.0,0.0,0.0,0.0,0.0,0.0,0.0,0.0,-2.2089,-2.307,-2.5068,-2.6583,-2.7765,-2.8554,-2.9159,-2.9754,-3.0563,-3.1339,-3.1729,-3.0937,-3.0503,-2.9459,-2.6297,-2.436,0.0,-2.0314,-1.9593,-1.9149,-1.8409,-2.0435,-2.2467,0.0,-2.5497,-2.8257,-3.1398,-3.4722,-3.7618,0.0,-4.2538,0.0,-4.4411,-4.4411,0.0,-4.4411,0.0,0.0,-4.4082,-4.427,-4.4411,-4.4411,-4.4411,-4.4411,-4.4411,-4.4411,-4.4411,-4.4411,-4.4411,-4.4411,-4.4411,-4.4411,-4.4411,-4.4411,-4.4411,0.0,0.0,-4.2584,-4.184,-4.0702,-4.0702,-4.0702,-4.0702,-4.0702,-4.0816,-4.093,0.0,0.0,0.0,0.0,0.0,0.0,0.0,-1.8061,-1.8825,-2.0027,-1.9965,-1.9851,-1.9965,-2.0396,-2.0699,0.0,0.0,0.0,0.0,0.0,0.0,0.0,0.0,0.0,0.0,0.0,0.0,0.0,0.0,0.0,0.0,0.0,0.0,0.0,0.0,0.0,0.0,0.0,0.0,0.0,0.0,0.0,0.0,0.0,0.0,0.0,0.0,0.0,0.0,0.0,0.0,-2.1395,-2.1895,-2.4181,-2.6722,-2.7101,0.0,0.0,-3.0884,-3.1402,-3.1386,-3.1103,-3.0171,-2.8614,-2.5889,0.0,-2.1456,-2.0037,-1.8942,-1.8364,-1.8759,-1.9803,-2.1238,-2.3098,0.0,-2.7581,-2.9526,-3.4332,-3.7846,-3.8246,0.0,0.0,-4.4411,-4.4411,0.0,0.0,0.0,0.0,-4.4364,-4.4411,-4.4411,-4.4411,-4.4411,-4.4411,-4.4411,-4.4411,-4.4411,-4.4411,-4.4411,-4.4411,-4.4411,-4.4411,-4.4411,-4.4411,-4.4411,0.0,0.0,-4.2584,-4.184,-4.0702,-4.0702,-4.0702,-4.0702,-4.0702,-4.0816,-4.1043,0.0,0.0,0.0,0.0,0.0,0.0,-1.7064,-1.8007,-1.9091,-2.0504,-2.0485,-2.0359,-2.0435,-2.0524,-2.0612,-2.0687,0.0,0.0,0.0,0.0,0.0,0.0,0.0,0.0,0.0,0.0,0.0,0.0,0.0,0.0,0.0,0.0,0.0,0.0,0.0,0.0,0.0,0.0,0.0,0.0,0.0,0.0,0.0,0.0,0.0,0.0,0.0,0.0,0.0,0.0,0.0,0.0,-2.0268,-2.1596,0.0,0.0,-2.6643,-2.8039,-2.9811,-3.0578,-3.0881,-3.068,-2.9648,-2.8084,-2.5733,-2.3368,-2.1307,-1.9985,-1.8834,-1.826,-1.8804,-1.9808,-2.1129,-2.2718,0.0,0.0,-2.8626,-3.2101,-3.5286,-3.7806,-4.1046,0.0,0.0,0.0,0.0,0.0,0.0,0.0,-4.4411,-4.4411,-4.4411,-4.4411,-4.4411,-4.4411,-4.4411,-4.4411,-4.4411,-4.4411,-4.4411,-4.4411,-4.4411,-4.4411,-4.4411,-4.4411,-4.4411,0.0,0.0,-4.2739,-4.205,-4.1221,-4.0842,-4.0702,-4.0702,-4.0702,-4.0944,-4.1198,0.0,0.0,0.0,0.0,0.0,-1.5376,-1.6489,-1.7603,-1.873,-1.996,-2.0193,-2.0233,-2.0207,-2.0385,-2.0511,-2.0549,-2.0473,0.0,0.0,0.0,0.0,0.0,0.0,0.0,0.0,0.0,0.0,-2.2888,-2.3113,0.0,0.0,0.0,0.0,0.0,0.0,0.0,0.0,0.0,0.0,0.0,0.0,0.0,0.0,0.0,0.0,0.0,0.0,0.0,0.0,0.0,0.0,0.0,0.0,0.0,0.0,0.0,-2.5524,-2.7037,-2.8844,-2.9905,-3.0448,-3.0143,-2.9197,-2.7751,-2.5577,-2.3335,-2.1307,-1.9985,-1.8834,-1.8226,-1.8581,-1.9636,-2.0819,0.0,0.0,-2.5101,-2.8264,-3.1015,-3.3906,0.0,0.0,-4.2157,0.0,-4.4139,0.0,0.0,0.0,0.0,-4.4411,-4.4411,-4.4411,-4.4411,-4.4411,-4.4411,-4.4411,-4.4411,-4.4411,-4.4411,-4.4411,-4.4411,-4.4411,-4.4411,-4.4411,-4.4411,-4.4411,0.0,0.0,-4.2767,-4.2093,-4.1292,-4.087,-4.0702,-4.0702,-4.0773,-4.1043,-4.1324,0.0,0.0,0.0,0.0,0.0,0.0,-1.5814,-1.6694,-1.7494,-1.7957,-1.8716,-1.916,-1.904,-1.9913,-2.0423,-2.0233,-2.0207,0.0,0.0,0.0,0.0,0.0,0.0,0.0,0.0,0.0,-2.1766,-2.2888,-2.3572,-2.3557,-2.2917,0.0,0.0,0.0,0.0,0.0,0.0,0.0,0.0,0.0,0.0,0.0,-1.9914,0.0,0.0,0.0,0.0,0.0,0.0,0.0,0.0,0.0,0.0,-1.8975,-1.9986,0.0,-2.4655,-2.6259,-2.8334,-2.9576,-3.0183,-2.9715,-2.8855,-2.7536,-2.5324,-2.3177,-2.1307,-1.9985,-1.8834,-1.8084,-1.8123,-1.9,-2.0087,-2.1236,-2.3264,0.0,-2.8388,-3.1863,-3.4684,0.0,0.0,-4.0669,-4.2071,0.0,0.0,0.0,0.0,0.0,-4.4411,-4.4411,-4.4411,-4.4411,-4.4411,-4.4411,-4.4411,-4.4411,-4.4411,-4.4411,-4.4411,-4.4411,-4.4411,-4.4411,-4.4411,0.0,0.0,0.0,0.0,-4.2584,-4.184,-4.0702,-4.0702,-4.0702,-4.073,-4.0916,-4.1156,-4.1438,0.0,0.0,0.0,0.0,0.0,0.0,0.0,-1.625,-1.6929,-1.7824,-1.7983,-1.8263,-1.8882,-1.9045,-1.9371,-2.0003,-2.0067,0.0,0.0,0.0,0.0,0.0,0.0,0.0,0.0,0.0,-2.1901,-2.3055,-2.324,-2.3636,-2.4177,-2.3992,-2.3789,0.0,0.0,0.0,0.0,0.0,0.0,0.0,0.0,-2.0321,-1.9291,0.0,0.0,0.0,0.0,0.0,0.0,0.0,0.0,0.0,0.0,0.0,0.0,-2.0465,-2.2614,-2.4648,-2.5293,-2.6357,-2.6944,-2.5792,-2.524,-2.4571,-2.2921,-2.1748,-2.067,-1.9414,-1.8581,-1.8215,-1.8598,-1.9291,-2.0546,-2.2692,-2.4006,0.0,0.0,0.0,0.0,-3.5865,-3.9567,-4.2406,0.0,0.0,0.0,0.0,0.0,0.0,-4.4411,-4.4411,-4.4411,-4.4411,-4.4411,-4.4411,-4.4411,-4.4411,-4.4411,-4.4411,-4.4411,-4.4411,-4.4397,-4.3975,-4.3778,0.0,0.0,0.0,0.0,-4.2107,-4.1685,-4.1278,-4.0856,-4.0702,-4.073,-4.093,-4.1184,-4.1396,0.0,0.0,0.0,0.0,0.0,0.0,0.0,-1.5389,-1.614,-1.6527,-1.7087,-1.7642,-1.8068,-1.8325,-1.8795,-1.9548,-1.9813,0.0,0.0,0.0,0.0,0.0,0.0,0.0,0.0,-2.1091,-2.1924,-2.3097,-2.3571,-2.4142,-2.4824,-2.4689,-2.4341,-2.3876,-2.3447,0.0,0.0,0.0,0.0,0.0,-2.0919,-2.0144,-1.8987,0.0,0.0,0.0,0.0,0.0,0.0,0.0,0.0,0.0,0.0,0.0,0.0,0.0,-2.0857,-2.252,-2.3084,-2.4119,-2.4715,-2.3738,-2.3328,-2.2894,-2.1768,-2.0938,-2.0122,-1.9126,-1.8467,-1.826,-1.8804,-1.9622,-2.0902,-2.2939,-2.4143,-2.5898,0.0,0.0,0.0,-3.567,0.0,0.0,0.0,0.0,0.0,0.0,0.0,0.0,-4.4411,-4.4411,-4.4411,-4.4411,-4.4411,-4.4411,-4.4411,-4.4411,-4.4411,-4.4411,-4.4411,-4.4284,-4.4059,-4.3666,-4.3371,0.0,0.0,0.0,0.0,-4.1783,-4.1474,-4.1221,-4.0856,-4.0702,-4.0744,-4.1029,-4.1255,-4.1438,0.0,0.0,0.0,0.0,0.0,0.0,0.0,-1.4243,-1.5139,-1.4457,-1.6043,-1.7134,-1.679,-1.7747,-1.8573,-1.897,0.0,0.0,0.0,0.0,0.0,0.0,0.0,0.0,-2.0535,-2.0944,-2.1792,-2.3105,-2.4324,-2.4969,-2.5096,-2.5643,-2.5197,-2.4022,-2.3934,0.0,0.0,0.0,0.0,0.0,-2.0746,-2.0042,0.0,0.0,0.0,0.0,0.0,0.0,0.0,0.0,0.0,0.0,0.0,0.0,0.0,0.0,0.0,0.0,0.0,-2.2622,-2.3266,-2.3018,-2.2598,-2.2074,-2.1412,-2.0512,0.0,-1.8971,-1.8444,-1.8283,-1.8925,-2.0006,-2.1217,-2.2505,-2.4054,-2.6126,0.0,-3.0568,0.0,0.0,-3.9851,0.0,0.0,0.0,0.0,0.0,0.0,0.0,-4.4355,-4.4355,-4.4326,-4.4284,-4.4284,-4.4326,-4.4411,-4.4411,-4.4411,-4.4411,-4.4369,-4.4045,-4.3497,-4.3399,-4.3048,0.0,0.0,0.0,0.0,-4.1559,-4.1221,-4.0702,-4.0702,-4.0702,-4.073,-4.1227,-4.1396,-4.1438,0.0,0.0,0.0,0.0,0.0,0.0,0.0,0.0,0.0,0.0,-1.4926,-1.5835,-1.6374,-1.7219,-1.8081,0.0,0.0,0.0,0.0,0.0,0.0,0.0,0.0,0.0,-1.9978,-2.0472,-2.1562,-2.3254,-2.4418,-2.5681,-2.7028,-2.6707,-2.6137,-2.5299,-2.4231,-2.3342,0.0,0.0,0.0,0.0,-2.0346,-1.9721,0.0,0.0,0.0,0.0,-1.8583,-1.8545,0.0,0.0,0.0,0.0,0.0,0.0,0.0,0.0,-1.8419,-1.8631,-1.9157,0.0,-2.0551,-1.9564,-1.9547,-1.9616,0.0,-1.9022,-1.8976,-1.8398,-1.8203,-1.8557,-1.9999,-2.0515,-2.1812,-2.5134,-2.6343,-2.7963,-3.1085,0.0,0.0,-3.9329,-4.143,0.0,0.0,0.0,0.0,0.0,0.0,-4.4214,-4.3736,-4.3708,-4.3497,-4.3034,-4.3006,-4.3469,-4.4397,-4.4411,-4.4411,-4.4397,-4.3933,-4.3638,-4.3469,-4.25,-4.198,0.0,0.0,0.0,-4.0912,-4.0912,-4.0828,-4.0702,-4.0702,-4.0702,-4.073,-4.1015,-4.1241,-4.1438,0.0,0.0,0.0,0.0,0.0,0.0,0.0,0.0,0.0,0.0,0.0,-1.5051,-1.5684,-1.6574,0.0,0.0,0.0,0.0,0.0,0.0,0.0,0.0,0.0,-1.9773,-1.9708,-2.0232,-2.1223,-2.2658,-2.3525,-2.4868,-2.6647,-2.6307,-2.5826,-2.5139,-2.3808,-2.2799,0.0,0.0,0.0,-2.0334,-2.0295,0.0,0.0,0.0,0.0,0.0,-1.8545,-1.8545,0.0,-1.822,-1.8313,-1.853,0.0,0.0,0.0,0.0,-1.8084,-1.8111,-1.822,-1.9234,-2.0134,-1.9541,-1.9564,-1.9645,-1.9368,-1.8907,-1.8472,-1.8289,0.0,-1.9015,-2.0509,-2.1699,-2.3307,-2.5911,-2.7468,0.0,0.0,0.0,-3.8415,-3.9324,-4.1592,0.0,0.0,0.0,0.0,0.0,0.0,-4.3722,-4.3104,-4.3076,-4.2921,-4.2584,-4.2584,-4.2893,-4.3568,-4.3568,-4.3568,-4.3568,-4.3231,-4.2921,-4.2612,-4.1924,-4.146,0.0,0.0,0.0,-4.0702,-4.0702,-4.0702,-4.0702,-4.0702,-4.0702,-4.073,-4.093,-4.11,-4.1241,0.0,0.0,0.0,0.0,0.0,0.0,0.0,0.0,0.0,0.0,0.0,0.0,0.0,0.0,0.0,0.0,0.0,0.0,0.0,0.0,0.0,0.0,0.0,-1.9745,-1.9702,-2.0156,-2.0901,-2.2003,-2.2668,-2.3905,-2.5702,-2.5674,-2.5227,-2.4401,-2.3155,-2.2198,0.0,0.0,-2.1318,-1.9862,-2.0398,0.0,0.0,0.0,0.0,0.0,0.0,0.0,0.0,-1.822,-1.841,-1.8691,-1.8247,0.0,0.0,0.0,0.0,0.0,-1.8361,-1.9732,-2.103,-2.0704,-2.075,-2.0822,-2.074,0.0,0.0,0.0,0.0,0.0,-2.1165,-2.3163,0.0,0.0,0.0,0.0,-3.3421,-3.6292,-3.8021,-3.7797,0.0,0.0,0.0,0.0,0.0,0.0,0.0,-4.294,-4.2458,-4.243,-4.2388,-4.2289,-4.2289,-4.2289,-4.2289,-4.2486,-4.2584,-4.2584,-4.2486,-4.2149,-4.1615,-4.1516,-4.1193,-4.0702,0.0,0.0,-4.0702,-4.0702,-4.0702,-4.0702,-4.0702,-4.0702,-4.073,-4.0887,-4.0958,-4.1043,0.0,0.0,0.0,0.0,0.0,0.0,0.0,0.0,0.0,0.0,0.0,0.0,0.0,0.0,0.0,0.0,0.0,0.0,0.0,0.0,0.0,0.0,-1.963,-1.9828,-2.0261,-2.0244,-2.0989,-2.2565,-2.3668,-2.5177,-2.7019,-2.6901,-2.5953,-2.4291,-2.3058,-2.2106,-2.145,-2.1589,-2.0913,-1.9836,-2.0445,0.0,0.0,0.0,0.0,0.0,0.0,0.0,0.0,-1.822,-1.8356,-1.856,-1.822,0.0,0.0,0.0,0.0,0.0,-1.9551,-2.1376,-2.2342,-1.9966,-2.0469,-2.1428,-2.0951,0.0,0.0,0.0,0.0,0.0,0.0,-2.4442,-2.5829,0.0,0.0,-3.1857,0.0,0.0,-3.687,0.0,0.0,0.0,0.0,0.0,0.0,0.0,0.0,-4.1562,-4.1753,-4.1755,-4.1516,-4.0997,-4.0983,-4.0983,-4.0983,-4.205,-4.2584,-4.257,-4.2022,-4.1713,-4.1587,-4.1081,-4.0786,-4.0702,0.0,-4.0702,-4.0702,-4.0702,-4.0702,-4.0702,-4.0702,-4.0702,-4.0702,-4.073,-4.0845,-4.1001,0.0,0.0,0.0,0.0,0.0,0.0,0.0,0.0,0.0,0.0,0.0,0.0,0.0,0.0,0.0,0.0,0.0,0.0,0.0,0.0,0.0,-2.0012,-1.9621,-1.9625,-2.0165,-2.0419,-2.1145,-2.2439,-2.3276,-2.4312,-2.5445,-2.4818,-2.4395,-2.4126,-2.2274,-2.1432,-2.1398,-2.1432,-2.082,-1.9851,0.0,0.0,0.0,0.0,0.0,0.0,0.0,0.0,0.0,0.0,-1.8356,-1.8625,-1.822,0.0,0.0,0.0,0.0,0.0,-1.9032,-2.0793,-2.2138,-2.0966,-2.234,-2.389,-2.3653,-2.2698,0.0,0.0,0.0,0.0,0.0,0.0,-2.7843,-3.0591,0.0,-3.3207,-3.4348,-3.5739,0.0,0.0,0.0,0.0,0.0,0.0,0.0,0.0,0.0,0.0,-4.1108,-4.1109,-4.0997,-4.0702,-4.0702,-4.0702,-4.0702,-4.1278,-4.1559,-4.1559,-4.1264,-4.1109,-4.1109,-4.0828,-4.0702,-4.0702,0.0,-4.0702,-4.0702,-4.0702,-4.0702,-4.0702,-4.0702,-4.0702,-4.0702,-4.0702,-4.0773,-4.0859,0.0,0.0,0.0,0.0,0.0,0.0,0.0,0.0,0.0,0.0,0.0,0.0,0.0,0.0,0.0,0.0,0.0,0.0,0.0,0.0,-1.9614,-2.0091,-1.9548,-1.9573,-2.0362,-2.0613,-2.1293,-2.2378,-2.2787,-2.3245,-2.3697,-2.3041,-2.3004,-2.3407,-2.1599,-2.0953,-2.1211,-2.1366,-2.0794,-1.9863,0.0,0.0,0.0,0.0,0.0,0.0,0.0,0.0,0.0,0.0,0.0,0.0,0.0,0.0,0.0,-1.8247,-1.8193,-1.8278,-1.874,-2.0235,-2.1816,-2.2285,-2.3927,-2.5553,-2.6006,-2.4814,0.0,0.0,0.0,0.0,0.0,-2.7981,0.0,-3.213,-3.3163,-3.404,-3.4997,0.0,0.0,0.0,0.0,0.0,0.0,0.0,0.0,0.0,0.0,0.0,-4.03,-4.0559,-4.0702,-4.0702,-4.0702,-4.0702,-4.0702,-4.0459,-4.0459,-4.0702,-4.0702,-4.0702,-4.0702,-4.0702,-4.0702,-4.0702,-4.0702,-4.0702,-4.0702,-4.0702,-4.0702,-4.0702,-4.0702,-4.0702,-4.0674,-4.0533,-4.0491,-4.0491,0.0,0.0,0.0,0.0,0.0,0.0,0.0,0.0,0.0,0.0,0.0,0.0,0.0,0.0,0.0,0.0,0.0,0.0,0.0,0.0,-1.898,-1.9259,-1.922,-1.9925,-2.1442,-2.0919,-2.1373,-2.2919,-2.2999,-2.3049,-2.3168,-2.3777,-2.3206,-2.1668,-2.1511,-2.1148,-2.0679,-2.1249,-2.0844,-1.9851,-2.0466,0.0,0.0,0.0,0.0,0.0,0.0,0.0,0.0,0.0,0.0,0.0,0.0,0.0,-1.8422,-1.8533,-1.8464,-1.8659,-1.9918,-2.0967,-2.2013,-2.3334,-2.3797,-2.4458,-2.6393,-2.5589,0.0,-2.6994,0.0,0.0,0.0,-2.9629,-3.1096,-3.231,0.0,0.0,0.0,0.0,0.0,0.0,0.0,0.0,0.0,0.0,0.0,0.0,0.0,0.0,-3.9254,-4.0185,-4.0702,-4.0702,-4.0702,-4.0702,-4.0702,-3.9766,-3.9766,-4.0702,-4.0702,-4.0702,-4.0702,-4.0702,-4.0702,-4.0702,-4.0702,-4.0702,-4.0702,-4.0702,-4.0702,-4.0702,-4.0702,-4.0702,-4.0631,-4.0055,-3.9845,-3.9845,0.0,0.0,0.0,0.0,0.0,0.0,0.0,0.0,0.0,0.0,0.0,0.0,0.0,0.0,0.0,0.0,0.0,0.0,0.0,0.0,-1.8692,-1.917,-1.9117,-1.9682,-2.0933,-2.106,-2.1704,-2.3011,-2.2686,-2.2537,-2.259,-2.1825,-2.1477,-2.1472,-2.0759,-2.0686,-2.1099,-2.1001,-2.0694,-2.0302,-2.0177,-1.9672,0.0,0.0,0.0,0.0,0.0,0.0,0.0,0.0,-1.8142,-1.8587,-1.8449,-1.8464,-1.8545,-1.8587,-1.856,-1.8654,-1.9246,-2.0629,-2.2123,-2.3067,-2.4013,0.0,0.0,-2.7162,-2.7416,-2.8895,-2.9196,0.0,0.0,0.0,-3.1657,0.0,0.0,0.0,0.0,0.0,0.0,0.0,0.0,0.0,0.0,0.0,0.0,0.0,0.0,0.0,-3.8283,-3.8702,-3.8895,-3.8895,-3.8895,-3.8895,-3.8895,-3.8522,-3.8522,-3.8895,-3.9502,-4.0085,-4.0702,-4.0702,-4.0491,-4.0126,-4.0126,-3.9915,-3.9605,-3.9605,-3.9494,-3.9313,-3.9215,-3.9144,-3.9145,-3.902,-3.8977,-3.9019,0.0,0.0,0.0,0.0,0.0,0.0,0.0,0.0,0.0,0.0,0.0,0.0,0.0,0.0,0.0,0.0,0.0,0.0,-1.7068,-1.7579,-1.8082,-1.8609,-1.8714,-1.9194,-2.0149,-2.068,-2.1446,-2.2486,-2.2125,-2.18,-2.1476,-2.0329,-2.0222,-2.0934,-2.0153,-2.0292,-2.1119,-2.0588,-2.0346,-2.0298,-1.9744,-1.9338,0.0,0.0,0.0,0.0,0.0,0.0,0.0,0.0,-1.799,-1.8413,-1.8498,-1.8545,-1.8614,-1.8694,-1.8915,-1.9136,-1.9313,-2.0759,-2.2424,-2.3259,0.0,0.0,-2.7813,-2.8366,-2.8907,-3.0302,-3.0633,-3.0742,-3.1103,0.0,0.0,0.0,0.0,0.0,0.0,0.0,0.0,0.0,0.0,0.0,0.0,0.0,0.0,0.0,0.0,0.0,0.0,-3.7625,-3.7808,-3.7808,-3.7808,-3.7808,-3.7808,-3.7487,-3.7487,-3.7808,-3.8134,-3.8823,-3.9793,-3.9905,-3.9757,-3.9311,-3.9173,-3.8978,-3.8765,-3.8861,-3.8724,-3.849,-3.8339,-3.8311,-3.8283,-3.824,-3.8239,-3.832,0.0,0.0,0.0,0.0,0.0,0.0,0.0,0.0,0.0,0.0,0.0,0.0,0.0,0.0,0.0,0.0,0.0,0.0,-1.6858,-1.6849,-1.6964,-1.7363,-1.7917,-1.8509,-1.9184,-1.9718,-2.0463,-2.1392,-2.1392,-2.0839,-1.9808,-1.9796,-1.9796,-1.9808,-1.9808,-2.0093,-2.0574,-2.0021,-1.9808,-1.976,-1.923,-1.8987,-1.8987,0.0,0.0,0.0,0.0,0.0,0.0,0.0,-1.7899,-1.8094,-1.8631,-1.8706,-1.8652,-1.8907,-1.9563,-2.0251,-2.0505,-2.1619,-2.2992,0.0,0.0,0.0,-2.8811,-2.8895,-2.9124,-3.1271,-3.1705,-3.1705,-3.1705,-3.1705,0.0,-3.2406,0.0,0.0,0.0,0.0,0.0,0.0,0.0,0.0,0.0,0.0,0.0,0.0,0.0,0.0,0.0,-3.723,-3.775,-3.775,-3.775,-3.775,-3.775,-3.6777,-3.6777,-3.775,-3.6777,-3.6837,-3.7795,-3.8205,-3.8358,-3.8231,-3.772,-3.7853,-3.8463,-3.8751,-3.871,-3.8463,-3.8463,-3.8463,-3.8393,-3.7794,-3.7732,-3.7892,0.0,0.0,0.0,0.0,0.0,0.0,0.0,0.0,0.0,0.0,0.0,0.0,0.0,0.0,0.0,0.0,0.0,0.0,-1.5715,-1.5993,-1.6328,-1.6823,-1.7724,-1.8354,-1.8627,-1.916,-1.9752,-2.0427,-2.0427,-2.0245,-1.9922,-1.945,-1.9501,-1.9934,-1.9836,-1.9904,-2.0021,-1.988,-1.9808,-1.976,-1.923,-1.8987,-1.8987,0.0,0.0,0.0,0.0,0.0,0.0,0.0,0.0,0.0,-1.875,-1.909,-1.9386,-1.9107,-1.9383,-1.982,-1.9993,-2.144,0.0,-2.422,0.0,0.0,0.0,-2.9849,0.0,0.0,-3.1705,-3.1705,-3.1705,0.0,0.0,-3.1934,0.0,0.0,0.0,0.0,0.0,0.0,0.0,0.0,0.0,0.0,0.0,0.0,0.0,0.0,0.0,-3.4465,-3.465,-3.465,-3.465,-3.465,-3.465,-3.4646,-3.4817,-3.5147,-3.5896,-3.6837,-3.7795,-3.754,-3.7171,-3.6703,-3.6178,-3.5801,-3.5581,-3.5993,-3.6102,-3.6089,-3.6389,-3.666,-3.6821,-3.6763,-3.6893,-3.7091,0.0,0.0,0.0,0.0,0.0,0.0,0.0,0.0,0.0,0.0,0.0,-1.2988,0.0,0.0,0.0,0.0,0.0,0.0,0.0,-1.5612,-1.6029,-1.6584,-1.7484,-1.8224,-1.8789,-1.9118,-1.9407,-1.9682,-1.9628,-1.9603,-1.9606,-1.925,-1.9531,-2.0292,-1.984,-1.9873,-2.0237,-1.9703,-1.9549,-1.9606,-1.9172,-1.9066,-1.9121,0.0,0.0,0.0,0.0,0.0,0.0,0.0,0.0,0.0,-1.8503,-1.8875,-1.9272,-1.9015,-1.9634,-2.0593,-2.1319,-2.3066,0.0,-2.636,-2.8137,-2.9862,-3.0936,0.0,0.0,0.0,0.0,-3.1805,-3.1705,-3.1705,0.0,0.0,0.0,0.0,0.0,0.0,0.0,0.0,0.0,0.0,0.0,0.0,0.0,0.0,0.0,0.0,0.0,-3.3284,-3.3284,-3.3284,-3.3284,-3.3284,-3.3284,-3.3585,-3.3741,-3.3741,-3.4656,-3.5413,-3.6037,-3.6263,-3.6187,-3.5794,-3.5301,-3.4783,-3.4306,-3.4524,-3.4744,-3.5032,-3.5332,-3.5683,-3.6126,-3.6325,-3.6524,-3.6707,0.0,0.0,-1.3049,-1.3514,0.0,0.0,0.0,0.0,0.0,0.0,-1.2978,-1.2905,0.0,0.0,0.0,-1.3661,0.0,0.0,0.0,0.0,-1.599,-1.6513,-1.7267,-1.8215,-1.9344,-1.9345,-1.9267,-1.9208,-1.9078,-1.9037,-1.9086,-1.9168,-1.9743,-2.0706,-1.9807,-1.991,-2.0664,-1.9458,-1.9049,-1.9169,-1.8986,-1.9012,-1.9134,-1.8556,0.0,0.0,0.0,0.0,0.0,0.0,0.0,0.0,-1.8126,-1.8391,-1.8726,-1.875,-2.0079,-2.1922,-2.3442,-2.5469,0.0,-2.9462,-3.0438,0.0,-3.221,-3.2444,-3.2388,-3.2081,0.0,-3.1937,-3.1761,0.0,0.0,0.0,0.0,0.0,0.0,0.0,0.0,0.0,0.0,0.0,0.0,0.0,0.0,0.0,0.0,0.0,0.0,-3.314,-3.314,-3.314,-3.314,-3.314,-3.314,-3.3188,-3.3224,-3.3224,-3.3272,-3.3284,-3.3343,-3.466,-3.5169,-3.5119,-3.4825,-3.4474,-3.4212,-3.4095,-3.4363,-3.4865,-3.4989,-3.5426,-3.6032,-3.6312,-3.6524,-3.6707,0.0,0.0,-1.2945,-1.3362,0.0,0.0,0.0,0.0,-1.3061,-1.2954,-1.2929,-1.2905,-1.2905,-1.2905,0.0,-1.3079,-1.3152,0.0,0.0,0.0,-1.5491,-1.602,-1.7459,-1.8555,-1.9237,-1.8836,-1.8811,-1.9208,-1.917,-1.9364,-1.9779,-1.939,-1.9602,-2.0297,-1.9689,-1.9179,-1.8803,-1.8727,-1.8272,-1.7635,-1.7933,-1.7897,-1.7675,-1.7763,-1.7787,0.0,0.0,0.0,0.0,0.0,0.0,0.0,-1.8792,-1.9126,-1.9389,-1.8562,-1.9451,-2.089,-2.1928,-2.3806,0.0,0.0,-3.0832,-3.2339,-3.2575,-3.281,-3.2822,-3.2388,-3.2169,-3.1994,0.0,0.0,0.0,0.0,0.0,0.0,0.0,0.0,0.0,0.0,0.0,0.0,0.0,0.0,0.0,0.0,0.0,0.0,-3.2054,-3.2054,-3.2054,-3.2054,-3.2054,-3.2054,-3.2054,-3.2454,-3.2671,0.0,-3.3092,-3.3284,-3.3284,-3.3189,-3.3147,-3.3147,-3.3479,-3.357,-3.3539,-3.4023,-3.4085,-3.3946,-3.4966,-3.5321,-3.5332,-3.6098,-3.6524,-3.6707,0.0,0.0,0.0,0.0,0.0,0.0,0.0,0.0,-1.3214,-1.2935,-1.2905,-1.2803,-1.2588,-1.2568,0.0,0.0,-1.3007,-1.3499,0.0,0.0,0.0,-1.6788,-1.7835,-1.8593,-1.9001,-1.8236,-1.8281,-1.9208,-1.8825,-1.9117,-2.0098,-1.9802,-2.0107,-2.0828,-2.0116,-1.9495,-1.8915,-1.8447,-1.7855,-1.7302,-1.7436,-1.7412,-1.7315,-1.7207,-1.7267,-1.7388,-1.7195,0.0,0.0,0.0,0.0,0.0,0.0,0.0,-1.8869,-1.8582,-1.9224,-2.0435,-2.2317,0.0,0.0,-2.9826,0.0,-3.2896,-3.2896,-3.2995,-3.3038,-3.2779,-3.2506,0.0,0.0,0.0,0.0,0.0,0.0,0.0,0.0,0.0,0.0,0.0,0.0,0.0,0.0,0.0,0.0,0.0,0.0,-3.1705,-3.1705,-3.1705,-3.1705,-3.1705,-3.1705,-3.1705,-3.1705,-3.1994,-3.2094,-3.2106,-3.2382,-3.2503,-3.2527,-3.2767,-3.2743,-3.2515,-3.2791,-3.2755,-3.256,-3.2897,-3.3084,-3.3221,-3.4234,-3.473,-3.5005,-3.6018,-3.6484,-3.6589,0.0,0.0,0.0,0.0,0.0,0.0,0.0,0.0,0.0,-1.2954,-1.2905,-1.2715,-1.2252,-1.2203,-1.2197,0.0,0.0,0.0,-1.4325,0.0,0.0,0.0,-1.835,-1.8645,-1.8759,-1.7763,-1.7806,-1.8998,-1.8127,-1.8724,-2.0637,-2.0272,-2.0515,-2.1214,-2.0458,-1.9815,-1.9258,-1.8175,-1.7477,-1.7075,-1.6919,-1.6979,-1.7111,-1.6701,-1.6786,-1.7075,-1.675,-1.6883,-1.7315,-1.8014,0.0,0.0,0.0,0.0,-1.8112,-1.8348,-1.892,-2.0057,-2.2584,0.0,-2.7792,-3.1204,-3.2579,0.0,-3.3124,-3.3124,-3.3124,-3.3124,0.0,0.0,0.0,0.0,0.0,0.0,0.0,0.0,0.0,0.0,0.0,0.0,0.0,0.0,0.0,0.0,0.0,0.0,0.0,-3.1705,-3.1705,-3.1705,-3.1705,-3.1705,-3.1705,-3.1705,-3.1705,-3.1705,-3.1705,-3.1705,-3.1705,-3.1705,-3.1741,-3.2599,-3.2815,-3.2515,-3.2599,-3.2382,-3.1994,-3.1994,-3.2244,-3.2729,-3.3397,-3.4014,-3.4675,-3.5817,-3.6312,-3.647,0.0,0.0,0.0,0.0,0.0,0.0,0.0,0.0,0.0,0.0,-1.2905,-1.2715,-1.2252,-1.2203,-1.2207,-1.2195,-1.2327,-1.2796,0.0,0.0,0.0,0.0,-1.904,-1.9037,-1.8558,-1.7762,-1.7626,-1.8161,-1.706,-1.854,-2.2344,-2.0653,-1.9821,-1.9777,-1.9761,-1.8905,-1.7449,-1.7469,-1.6657,-1.5441,-1.5816,-1.5884,-1.5781,-1.5812,-1.5903,-1.6066,-1.652,-1.6608,-1.6717,-1.7944,-1.8295,0.0,0.0,0.0,-1.815,-1.7195,-1.794,-1.9206,0.0,0.0,-2.835,0.0,-3.229,-3.3124,0.0,0.0,-3.3124,0.0,0.0,0.0,0.0,0.0,0.0,0.0,0.0,0.0,0.0,0.0,0.0,0.0,0.0,0.0,0.0,0.0,0.0,0.0,-3.1705,-3.1705,-3.1705,-3.1705,-3.1705,-3.1705,-3.1705,-3.1705,-3.1705,-3.1705,-3.1705,-3.1705,-3.1705,-3.1705,-3.1717,-3.1862,-3.2106,-3.2527,-3.2984,-3.314,-3.308,-3.308,-3.2849,-3.2608,-3.3242,-3.3631,-3.3966,-3.51,-3.5898,-3.647,0.0,0.0,0.0,0.0,0.0,0.0,0.0,0.0,0.0,0.0,0.0,-1.2835,-1.2348,-1.2308,-1.2275,-1.2212,-1.2432,0.0,0.0,0.0,0.0,0.0,-1.8314,-1.845,-1.813,-1.7315,-1.7159,-1.7674,-1.6668,-1.805,-2.1601,-2.0683,-2.1133,-2.2683,-2.1408,-2.0117,-1.8862,-1.7515,-1.6417,-1.5545,-1.545,-1.587,-1.6474,-1.5752,-1.6033,-1.6751,-1.623,-1.6015,-1.6134,-1.6991,-1.7496,-1.776,-1.776,0.0,0.0,0.0,-1.7327,0.0,-2.0606,-2.3998,-2.7481,0.0,-3.1549,-3.2303,-3.293,0.0,0.0,0.0,0.0,0.0,0.0,0.0,0.0,0.0,0.0,0.0,0.0,0.0,0.0,0.0,0.0,0.0,0.0,0.0,0.0,0.0,-3.1705,-3.1705,-3.1705,-3.1705,-3.1705,-3.1705,-3.1705,-3.1705,-3.1705,-3.1705,-3.1705,-3.1705,-3.1705,-3.1705,-3.1705,-3.1705,-3.1849,-3.2046,-3.2274,-3.2415,-3.2415,-3.2415,-3.2238,-3.2123,-3.2764,-3.3096,-3.3343,-3.4853,-3.5602,-3.5938,0.0,0.0,0.0,0.0,0.0,0.0,0.0,0.0,0.0,0.0,0.0,-1.2968,-1.265,0.0,0.0,0.0,-1.2583,0.0,0.0,0.0,0.0,0.0,0.0,-1.7613,-1.753,-1.6679,-1.6503,-1.7014,-1.6232,-1.7559,-2.0857,-2.0633,-2.2339,-2.5445,-2.3034,-2.1307,-2.009,-1.8058,-1.6979,-1.6614,-1.6084,-1.6579,-1.7537,-1.685,-1.7273,-1.8072,-1.6901,-1.6445,-1.6456,-1.6753,-1.7087,-1.7387,-1.7387,-1.7315,0.0,0.0,0.0,0.0,0.0,0.0,-2.5701,-2.875,-3.0242,-3.1273,0.0,0.0,0.0,0.0,0.0,0.0,0.0,0.0,0.0,0.0,0.0,0.0,0.0,0.0,0.0,0.0,0.0,0.0,0.0,0.0,0.0,0.0,-3.1705,-3.1705,-3.1705,-3.1705,-3.1705,-3.1705,-3.1705,-3.1705,-3.1705,-3.1705,-3.1705,-3.1705,-3.1705,-3.1705,-3.1705,-3.1705,-3.1705,-3.1705,-3.1705,-3.1705,-3.1705,-3.1705,-3.1705,-3.1749,-3.2232,-3.2537,-3.2884,-3.4496,-3.518,-3.5423,0.0,0.0,0.0,0.0,0.0,0.0,0.0,0.0,0.0,0.0,0.0,-1.3135,-1.3228,-1.2742,-1.2538,-1.2931,-1.2454,0.0,0.0,0.0,0.0,0.0,0.0,0.0,-1.6747,-1.5956,-1.5694,-1.5972,-1.5418,-1.7148,-2.0996,-2.0584,-2.2505,-2.613,-2.3711,-2.1558,-1.9688,-1.9046,-1.8759,-1.869,-1.8157,-1.8078,-1.8394,-1.9638,-2.0033,-1.9819,-1.9291,-1.8776,-1.8337,-1.815,-1.7784,-1.7387,-1.7387,-1.7134,-1.6707,0.0,0.0,0.0,0.0,-2.1203,0.0,-2.5726,0.0,0.0,0.0,0.0,0.0,0.0,0.0,0.0,0.0,0.0,0.0,0.0,0.0,0.0,0.0,0.0,0.0,0.0,0.0,0.0,0.0,0.0,0.0,0.0,-3.1705,-3.1705,-3.1705,-3.1705,-3.1705,-3.1705,-3.1705,-3.1705,-3.1705,-3.1705,-3.1705,-3.1705,-3.1705,-3.1705,-3.1705,-3.1705,-3.1705,-3.1705,-3.1705,-3.1705,-3.1705,-3.1705,-3.1705,-3.1705,-3.1749,-3.2145,-3.2828,-3.3956,-3.4546,-3.5061,0.0,0.0,0.0,0.0,0.0,0.0,0.0,0.0,0.0,0.0,0.0,0.0,0.0,-1.326,-1.301,-1.3417,-1.2773,0.0,0.0,0.0,0.0,0.0,0.0,0.0,0.0,-1.6149,-1.5846,-1.5499,-1.5245,-1.6725,-1.9784,-1.9523,-2.0531,-2.2483,-2.198,-2.1847,-2.1883,-1.9103,-1.8116,-1.8364,-1.8192,-1.8724,-1.9678,-1.9861,-2.0692,-2.1574,-2.0426,-1.9593,-1.8955,-1.8519,-1.8182,-1.7724,-1.6703,-1.6762,-1.7002,-1.6066,-1.6363,0.0,0.0,0.0,0.0,-2.4121,-2.608,0.0,0.0,0.0,0.0,0.0,0.0,0.0,0.0,0.0,0.0,0.0,0.0,0.0,0.0,0.0,0.0,0.0,0.0,0.0,0.0,0.0,0.0,0.0,0.0,-3.1705,-3.1705,-3.1705,-3.1705,-3.1705,-3.1705,-3.1705,-3.1705,-3.1705,-3.1705,-3.1705,-3.1705,-3.1705,-3.1705,-3.1705,-3.1705,-3.1705,-3.1705,-3.1705,-3.1705,-3.1705,-3.1705,-3.1705,-3.1705,-3.1837,-3.2176,-3.3122,-3.3534,-3.3866,0.0,0.0,0.0,-1.3051,0.0,-1.3002,-1.2905,-1.2929,-1.3017,-1.317,0.0,0.0,0.0,0.0,-1.3504,-1.3868,-1.3156,-1.2816,-1.3087,-1.3538,0.0,0.0,0.0,0.0,0.0,-1.5798,-1.552,-1.5233,-1.5131,-1.6165,-1.8259,-1.8338,-1.9103,-2.04,-2.0074,-2.0836,-2.2227,-1.9723,-1.885,-1.9143,-1.9315,-2.0081,-2.1163,-2.1578,-2.2485,-2.3455,-2.2404,-2.1539,-2.0835,-2.0082,-1.9344,-1.8575,-1.7194,-1.6812,-1.6715,-1.6018,-1.6518,-1.7399,-1.7776,0.0,0.0,0.0,0.0,0.0,0.0,0.0,0.0,0.0,0.0,0.0,0.0,0.0,0.0,0.0,0.0,0.0,0.0,0.0,0.0,0.0,0.0,0.0,0.0,0.0,0.0,0.0,0.0,0.0,-3.1705,-3.1705,-3.1705,-3.1705,-3.1705,-3.1705,-3.1705,-3.1705,-3.1705,-3.1705,-3.1705,-3.1705,-3.1705,-3.1705,-3.1705,-3.1705,-3.1705,-3.1705,-3.1705,-3.1705,-3.1705,-3.1705,-3.1705,-3.1705,-3.1793,-3.2661,-3.2946,-3.3015,-1.3085,-1.2988,-1.2905,-1.2905,-1.2905,-1.2905,-1.2905,-1.3002,-1.3113,-1.3194,0.0,0.0,0.0,0.0,0.0,-1.4289,-1.3611,-1.347,-1.4233,-1.3633,0.0,0.0,0.0,0.0,0.0,-1.478,-1.4637,-1.5108,-1.5108,-1.5601,-1.6587,-1.7105,-1.8391,-2.0217,-1.8253,-1.8472,-2.0331,-2.0845,-2.1109,-2.1236,-2.1652,-2.2122,-2.2768,-2.4853,-2.5499,-2.5349,-2.5265,-2.4786,-2.4057,-2.285,-2.137,-1.9895,-1.8998,-1.7384,-1.5862,-1.5862,-1.6325,-1.6816,0.0,0.0,0.0,0.0,0.0,0.0,0.0,0.0,0.0,0.0,0.0,0.0,0.0,0.0,0.0,0.0,0.0,0.0,0.0,0.0,0.0,0.0,0.0,0.0,0.0,0.0,0.0,0.0,-3.1849,-3.1705,-3.1705,-3.1705,-3.1717,-3.1705,-3.1705,-3.1705,-3.1705,-3.1705,-3.1705,-3.1705,-3.1705,-3.1705,-3.1705,-3.1705,-3.1705,-3.1705,-3.1705,-3.1705,-3.1705,-3.1705,-3.1705,-3.1705,-3.1705,-3.1705,-3.1793,-3.2661,-3.2758,-3.2665,-1.2978,-1.2929,-1.2905,-1.2905,-1.2905,-1.2905,-1.2905,-1.3002,-1.3109,0.0,0.0,0.0,-1.4696,-1.516,-1.5272,-1.4904,-1.4405,-1.4114,-1.4149,-1.4137,-1.4334,-1.4754,-1.497,-1.5127,-1.5221,-1.5004,-1.497,-1.5108,-1.5108,-1.5452,-1.6107,-1.6257,-1.6798,-1.7641,-1.7488,-1.7484,-1.7653,-1.7817,0.0,-2.1109,-2.0125,-2.1337,0.0,-2.3972,-2.4909,-2.6163,-2.6158,-2.5634,-2.4807,-2.4083,-2.2651,-2.0892,-1.94,-1.8086,-1.7108,-1.7108,-1.7508,-1.7861,-1.7424,0.0,0.0,0.0,0.0,0.0,0.0,0.0,0.0,0.0,0.0,0.0,0.0,0.0,0.0,0.0,0.0,0.0,0.0,0.0,0.0,0.0,0.0,0.0,0.0,0.0,0.0,0.0,-3.2257,-3.2213,-3.2213,-3.2038,-3.1849,-3.1705,-3.1705,-3.1705,-3.1705,-3.1705,-3.1705,-3.1705,-3.1705,-3.1705,-3.1705,-3.1705,-3.1705,-3.1705,-3.1705,-3.1705,-3.1705,-3.1705,-3.1705,-3.1705,-3.1705,-3.1705,-3.1749,-3.1957,-3.201,-3.2014,-1.2929,-1.2905,-1.2964,-1.3189,-1.3194,-1.3243,-1.3555,-1.3462,-1.3462,0.0,0.0,0.0,-1.4914,-1.5763,-1.6029,-1.5318,-1.4941,-1.4753,-1.4776,-1.4613,-1.4625,-1.4935,-1.5172,-1.5233,-1.5108,-1.5108,-1.5108,-1.5108,-1.5108,-1.5269,-1.5579,-1.5579,-1.5831,-1.63,-1.6394,-1.6508,-1.6575,-1.614,-1.7507,0.0,-2.032,0.0,0.0,-2.4443,-2.5492,0.0,0.0,0.0,-2.596,-2.5879,-2.4261,-2.1975,-2.0318,-1.931,-1.8595,-1.7897,-1.8449,-1.9113,-1.8277,-1.8718,-1.9443,-1.9592,0.0,0.0,0.0,-2.277,0.0,0.0,0.0,0.0,0.0,0.0,0.0,0.0,0.0,0.0,0.0,0.0,0.0,0.0,0.0,0.0,0.0,-3.2519,-3.24,-3.24,-3.24,-3.24,-3.24,-3.2257,-3.2081,-3.1849,-3.1849,-3.1793,-3.1705,-3.1793,-3.1793,-3.1705,-3.1805,-3.1761,-3.1705,-3.1705,-3.1705,-3.1705,-3.1705,-3.1705,-3.1705,-3.1705,-3.1705,-3.1705,-3.1705,-3.1705,-3.1705,-3.1705,-3.1705,-3.1753,0.0,-1.2905,-1.3057,-1.359,-1.3582,-1.3755,-1.4469,-1.4156,-1.4046,0.0,-1.4471,-1.4537,-1.5306,-1.6195,-1.6461,-1.5765,-1.5428,-1.5371,-1.5638,-1.499,-1.4812,-1.5311,-1.5312,-1.5233,-1.5108,-1.5108,-1.5108,-1.5108,-1.5108,-1.5108,-1.5108,-1.5108,-1.536,-1.5797,-1.5315,-1.559,-1.638,-1.559,-1.6358,-1.8324,-2.1146,-2.2726,0.0,0.0,-2.6535,-2.6916,-2.7649,-2.7516,-2.7104,-2.7547,-2.5886,-2.3315,-2.1694,-2.099,-2.0464,-1.8782,-1.9514,-2.0598,-1.9464,-1.9603,-2.0213,-2.0934,-2.0096,0.0,-2.1805,-2.1991,-2.2322,0.0,0.0,0.0,0.0,0.0,0.0,0.0,0.0,0.0,0.0,0.0,0.0,0.0,0.0,0.0,-3.2711,-3.2562,-3.2419,-3.2314,-3.224,-3.2216,-3.2172,-3.2221,-3.2171,-3.1896,-3.1896,-3.1833,-3.1705,-3.1772,-3.1748,-3.1621,-3.1809,-3.1765,-3.1621,-3.1681,-3.1705,-3.1705,-3.1705,-3.1705,-3.1705,-3.1705,-3.1705,-3.1705,-3.1705,-3.1705,-3.1705,-3.1705,-3.1705,-3.1705,-1.2905,-1.2905,-1.3042,-1.3453,-1.3618,-1.3842,-1.4357,-1.4522,-1.4596,-1.4625,-1.4997,-1.5719,-1.6955,-1.7055,-1.6988,-1.6963,-1.6469,-1.5932,-1.5415,-1.523,-1.5241,-1.5446,-1.5345,-1.5233,-1.5108,-1.5108,-1.5108,-1.5108,-1.5108,-1.5108,-1.5108,-1.5108,-1.5165,-1.5257,-1.5154,-1.5223,-1.5418,-1.6048,-1.6999,-1.8203,-1.9229,-2.1615,-2.4607,-2.5064,-2.6011,-2.7129,-2.7306,-2.7283,-2.7088,-2.6742,-2.6294,-2.5585,-2.3629,-2.3356,-2.3437,-2.1749,-2.2092,-2.2867,-2.2258,-2.2088,-2.1972,-2.1402,-2.1939,0.0,-2.0303,-2.0824,-2.1724,0.0,0.0,0.0,0.0,0.0,0.0,0.0,0.0,0.0,0.0,0.0,0.0,0.0,0.0,0.0,-3.2673,-3.268,-3.242,-3.1816,-3.1361,-3.1018,-3.0796,-3.1211,-3.1326,-3.1122,-3.1122,-3.1284,-3.1705,-3.0862,-3.0657,-3.1067,-3.1122,-3.1079,-3.1091,-3.1512,-3.1705,-3.1705,-3.1705,-3.1705,-3.1705,-3.1705,-3.1705,-3.1705,-3.1705,-3.1705,-3.1705,-3.1705,-3.1705,-3.1705,-1.2905,-1.2905,-1.3111,-1.3824,-1.3906,-1.4202,-1.5102,-1.5039,-1.5059,-1.5501,-1.6064,-1.6582,-1.6918,-1.7138,-1.706,-1.6646,-1.6537,-1.6163,-1.5359,-1.5498,-1.5522,-1.53,-1.5255,-1.5165,-1.5108,-1.5108,-1.5108,-1.5108,-1.5108,-1.5131,-1.521,-1.5131,-1.5406,-1.5937,-1.5636,-1.5785,-1.6256,-1.6484,-1.7045,-1.7932,-1.9964,0.0,-2.4659,-2.5681,-2.6514,-2.7224,-2.7518,-2.7835,-2.8074,-2.7203,-2.6919,0.0,-2.5046,-2.5008,-2.5231,0.0,-2.3773,-2.4414,-2.3667,-2.3411,-2.3213,-2.2695,0.0,0.0,0.0,-2.097,-2.1538,-2.2196,0.0,0.0,0.0,0.0,0.0,0.0,0.0,0.0,0.0,0.0,0.0,0.0,0.0,0.0,-3.1527,-3.154,-3.1441,-3.1225,-3.0942,-3.0728,-3.0604,-3.0861,-3.0882,-3.064,-3.064,-3.0731,-3.0922,-3.0465,-3.0332,-3.0482,-3.0598,-3.0598,-3.0494,-3.1079,-3.1308,-3.1332,-3.1585,-3.1705,-3.1705,-3.1705,-3.1705,-3.1705,-3.1705,-3.1705,-3.1705,-3.1705,-3.1705,-3.1705,-1.2905,-1.2905,-1.3175,-1.4064,-1.4198,-1.4567,-1.5746,-1.5532,-1.5538,-1.6387,-1.6998,-1.7153,-1.6726,-1.7121,-1.7224,-1.6768,-1.6703,-1.6441,-1.581,-1.5879,-1.5729,-1.5269,-1.5188,-1.5177,-1.5303,-1.5188,-1.5131,-1.5131,-1.5131,-1.521,-1.5345,-1.521,-1.5626,-1.6495,-1.619,-1.651,-1.7298,0.0,0.0,-1.8573,0.0,-2.3087,-2.3856,-2.6083,-2.6903,-2.6972,-2.7621,-2.8439,-2.9028,-2.7919,-2.7569,-2.7381,-2.6151,-2.6336,0.0,0.0,-2.5146,-2.585,-2.477,-2.4556,-2.4519,-2.3954,0.0,-2.3412,0.0,0.0,0.0,-2.3045,0.0,0.0,0.0,0.0,0.0,0.0,0.0,0.0,0.0,0.0,0.0,0.0,0.0,0.0,0.0,-2.9869,-2.9951,-3.0474,-3.0147,-3.0008,-3.0327,-3.0449,-3.0416,-3.0209,-3.0209,-3.0174,-3.0086,-3.0077,-2.9987,-2.9941,-3.0126,-3.0084,-2.9953,-3.0482,-3.0783,-3.0946,-3.1368,-3.1609,-3.1705,-3.1705,-3.1705,-3.1705,-3.1705,-3.1705,-3.1705,-3.1705,-3.1705,-3.1705,-1.2905,-1.2905,-1.3052,-1.3522,-1.4037,-1.4586,-1.5285,-1.5733,-1.6129,-1.6537,-1.692,-1.7335,-1.7934,-1.7679,-1.8089,-1.9592,-1.8072,-1.7181,-1.751,-1.6614,-1.5985,-1.5833,-1.5476,-1.5498,-1.5974,-1.5521,-1.5289,-1.5289,-1.5289,-1.5345,-1.5468,-1.5345,-1.5347,-1.5498,-1.6224,0.0,0.0,0.0,-1.9541,0.0,-2.2553,-2.2359,0.0,-2.4774,-2.5888,-2.6014,-2.6926,-2.8073,-2.8961,0.0,-2.8158,-2.8461,0.0,-2.7406,-2.8186,-2.605,0.0,0.0,0.0,0.0,0.0,0.0,-2.541,0.0,0.0,0.0,-2.3083,-2.1683,0.0,0.0,0.0,0.0,0.0,0.0,0.0,0.0,0.0,0.0,0.0,0.0,0.0,0.0,0.0,-2.7992,-2.7912,-2.9362,-2.7698,-2.7251,-2.8686,-2.9205,-2.947,-2.9429,-2.9429,-2.9658,-3.0086,-2.92,-2.8919,-2.9388,-2.9429,-2.9429,-2.9412,-2.9941,-3.0434,-3.0922,-3.0983,-3.1271,-3.1705,-3.1705,-3.1705,-3.1705,-3.1705,-3.1705,-3.1705,-3.1705,-3.1705,-3.1705,-1.2905,-1.2905,-1.3042,-1.3437,-1.3714,-1.4189,-1.5147,-1.6537,-1.7438,-1.7267,-1.7861,-1.8475,-1.8916,-1.8539,-1.8546,-1.9201,-1.8723,-1.8115,0.0,-1.7245,-1.6975,-1.6604,-1.6312,-1.6196,-1.6209,-1.5916,-1.5648,-1.5413,-1.5413,-1.548,0.0,0.0,-1.5939,-1.6892,-1.738,0.0,-1.9064,0.0,-2.0037,0.0,0.0,0.0,0.0,-2.5338,-2.6827,-2.7044,-2.7716,-2.8379,-2.88,0.0,-2.8052,0.0,0.0,0.0,0.0,-2.7231,0.0,0.0,0.0,0.0,0.0,0.0,0.0,0.0,-2.2947,0.0,-2.291,0.0,0.0,0.0,0.0,0.0,0.0,0.0,0.0,0.0,0.0,0.0,0.0,0.0,0.0,0.0,0.0,0.0,0.0,0.0,-2.6791,-2.6671,-2.7981,-2.8558,-2.8847,-2.8847,-2.8847,-2.8943,-2.9172,-2.8727,-2.8619,-2.8847,-2.8847,-2.8847,-2.8859,-2.9388,-2.9749,-2.9977,-3.029,-3.0766,-3.1247,-3.1247,-3.1428,-3.1705,-3.1705,-3.1705,-3.1705,-3.1705,-3.1705,-3.1705,-1.3047,-1.2983,-1.3003,-1.3281,-1.3437,-1.3942,-1.525,-1.6951,-1.81,-1.807,-1.862,-1.9244,-1.99,-1.9361,-1.9191,-1.9808,-1.9858,-1.9321,0.0,-1.8364,-1.8194,-1.7507,-1.7113,-1.6829,-1.6666,-1.6337,-1.5974,-1.5491,-1.5536,-1.5663,0.0,0.0,-1.6255,-1.752,-1.8154,-1.9252,-2.0657,0.0,-2.1292,-2.1838,-2.2509,-2.2925,-2.3421,-2.6147,-2.7571,-2.8203,-2.8391,-2.8697,-2.8854,-2.8174,-2.8126,0.0,-2.816,0.0,-2.7783,0.0,0.0,0.0,-2.6914,0.0,0.0,0.0,0.0,0.0,0.0,0.0,0.0,0.0,0.0,0.0,0.0,0.0,0.0,0.0,0.0,0.0,0.0,0.0,0.0,0.0,0.0,0.0,0.0,0.0,0.0,0.0,0.0,-2.5841,-2.7621,-2.8089,-2.8366,-2.851,-2.851,-2.851,-2.851,-2.851,-2.851,-2.851,-2.851,-2.851,-2.8522,-2.8907,-2.916,-2.9316,-2.9701,-3.017,-3.0675,-3.0862,-3.1151,-3.15,-3.1657,-3.1705,-3.1705,-3.1705,-3.1705,-3.1705,-1.3486,-1.3164,-1.2905,-1.2925,-1.3242,-1.4041,-1.5652,-1.6562,-1.7533,-1.8891,-1.8754,0.0,0.0,0.0,0.0,-2.2843,0.0,-2.0969,-2.0608,-2.0242,-1.9556,-1.8498,-1.7645,-1.7306,-1.7543,-1.6786,-1.6089,-1.5491,-1.5637,-1.5943,0.0,0.0,0.0,0.0,-1.8031,-1.949,-2.0769,-2.2004,-2.4248,-2.6844,-2.5599,-2.6265,-2.7842,0.0,-2.7353,-2.8764,-2.8578,0.0,0.0,-2.8517,-2.8561,0.0,0.0,0.0,0.0,0.0,0.0,0.0,0.0,0.0,0.0,-2.4707,0.0,0.0,0.0,0.0,-2.3791,0.0,0.0,0.0,0.0,0.0,-2.3565,-2.2443,-2.2268,0.0,0.0,0.0,0.0,0.0,0.0,0.0,0.0,0.0,0.0,0.0,0.0,0.0,-2.7524,-2.7702,-2.7942,-2.8498,-2.851,-2.851,-2.851,-2.851,-2.851,-2.851,-2.851,-2.851,-2.851,-2.8522,-2.8823,-2.9304,-2.9316,-2.9629,-3.0158,-3.0706,-3.0922,-3.0995,-3.1512,-3.1705,-3.1705,-3.1705,-3.1705,-3.1705,-1.3506,-1.3174,-1.3057,-1.3588,-1.3369,-1.3742,-1.5671,-1.7616,-1.9334,0.0,-2.1046,0.0,0.0,-2.277,-2.2737,0.0,0.0,-2.2225,-2.1477,-2.1203,-2.1072,-2.1083,-2.0582,-2.0109,-1.9749,-1.837,-1.7262,-1.6491,-1.5878,-1.5652,0.0,0.0,0.0,0.0,0.0,-2.0224,0.0,0.0,0.0,0.0,0.0,-2.6942,-2.8557,0.0,0.0,-2.9013,-2.8934,-2.9118,0.0,-2.9091,-2.8947,-2.8925,-2.9164,-2.8837,-2.8411,-2.8562,-2.8524,0.0,0.0,0.0,-2.8035,-2.5661,0.0,0.0,0.0,0.0,0.0,0.0,0.0,0.0,0.0,-2.4004,-2.3627,-2.2498,-2.1694,-2.0918,0.0,0.0,0.0,0.0,0.0,0.0,0.0,0.0,0.0,0.0,-2.3344,0.0,0.0,-2.737,-2.7762,-2.7942,-2.833,-2.851,-2.851,-2.851,-2.851,-2.851,-2.851,-2.851,-2.851,-2.851,-2.8607,-2.8775,-2.8775,-2.9076,-2.9605,-3.0134,-3.0555,-3.0927,-3.15,-3.1705,-3.1705,-3.1705,-3.1705,-3.1705,-1.3535,-1.3291,-1.3232,-1.3623,0.0,-1.4563,-1.6204,-1.8644,0.0,0.0,-2.2465,0.0,-2.4112,0.0,-2.4045,0.0,-2.3857,-2.354,-2.2138,-2.2419,0.0,-2.2607,-2.2258,-2.1881,-2.1463,-2.0088,-1.8689,-1.7315,-1.6646,-1.6157,-1.583,0.0,0.0,0.0,0.0,-2.0775,-2.2104,-2.3831,-2.5167,0.0,0.0,-2.8058,0.0,0.0,-2.9131,-2.9131,0.0,-2.9365,-2.9419,-2.9509,-2.94,-2.9302,-2.9679,-2.9302,-2.8775,-2.9139,-2.8988,-2.8662,-2.8448,-2.8624,0.0,-2.6414,-2.59,0.0,-2.3785,0.0,0.0,0.0,0.0,0.0,0.0,0.0,-2.369,-2.2749,-2.1681,-2.0717,0.0,-1.9648,0.0,0.0,0.0,0.0,0.0,0.0,-2.0881,-2.3071,0.0,0.0,0.0,0.0,-2.7716,-2.7898,-2.834,-2.8618,-2.8618,-2.855,-2.851,-2.851,-2.851,-2.851,-2.851,-2.851,-2.851,-2.851,-2.851,-2.8703,-2.9063,-2.9593,-3.0122,-3.0694,-3.1223,-3.1536,-3.1705,-3.1705,-3.1705,-3.1705,-1.3613,-1.3574,0.0,0.0,-1.471,0.0,0.0,0.0,-2.1445,0.0,-2.3023,-2.3793,-2.5135,-2.455,-2.4386,-2.5184,-2.5659,-2.4961,-2.2817,-2.3841,0.0,0.0,-2.2822,-2.2695,-2.2826,-2.1863,-2.0251,-1.8092,-1.7848,-1.7301,-1.6408,0.0,0.0,0.0,-1.9187,0.0,-2.2255,-2.4665,-2.6926,-2.8938,-2.9566,-2.9534,-2.917,-2.9624,-2.9495,-2.917,-2.9636,-2.965,-2.947,-2.9702,-2.9792,-2.9792,-2.9792,-2.9792,-2.9792,-2.9792,-2.9792,-2.9666,-2.9076,-2.8938,-2.8586,-2.7014,0.0,0.0,0.0,0.0,-2.5536,0.0,0.0,0.0,0.0,0.0,0.0,-2.3208,-2.2209,-2.1104,0.0,0.0,0.0,0.0,0.0,0.0,0.0,-1.8857,-1.9571,-2.2598,-2.1836,0.0,0.0,0.0,-2.7631,-2.8232,-2.8604,-2.8779,-2.8791,-2.8618,-2.851,-2.851,-2.851,-2.851,-2.851,-2.851,-2.851,-2.851,-2.851,-2.851,-2.8546,-2.9076,-2.9593,-3.011,-3.0694,-3.1235,-3.1705,-3.1705,-3.1705,-3.1749,-1.4004,-1.4592,-1.5216,0.0,-1.589,-1.6848,0.0,0.0,0.0,0.0,-2.438,-2.5081,-2.604,-2.6313,-2.6221,-2.5671,-2.5798,0.0,0.0,0.0,0.0,-2.611,-2.5862,-2.5775,-2.5889,-2.3304,-2.153,-2.0574,-1.815,-1.6867,-1.6629,0.0,0.0,0.0,0.0,0.0,-2.2046,-2.3376,-2.5691,-2.8521,-2.945,-2.9611,0.0,0.0,-2.9611,-2.9353,-2.9702,-2.9753,-2.9702,-2.9792,-2.9792,-2.9792,-2.9792,-2.9792,-2.9792,-2.9792,-2.9792,-2.9767,-2.9616,-2.9566,-2.9365,-2.8511,-2.767,-2.6989,0.0,0.0,0.0,0.0,0.0,0.0,0.0,0.0,0.0,-2.3396,-2.2209,-2.1242,0.0,0.0,0.0,-2.0126,0.0,0.0,0.0,-1.9258,-2.0564,-2.1763,-2.1733,0.0,0.0,0.0,0.0,-2.7643,-2.8169,-2.8609,-2.9,-2.8973,-2.8855,-2.8724,-2.8724,-2.8657,-2.851,-2.851,-2.851,-2.851,-2.851,-2.851,-2.8546,-2.9076,-2.9376,-2.9593,-3.0707,-3.1582,-3.2213,-3.1994,-3.1937,-3.195,-1.4769,0.0,0.0,-1.7708,0.0,0.0,-1.9925,-2.0946,0.0,-2.398,-2.4995,0.0,-2.6196,-2.6872,-2.7063,-2.6523,-2.6491,0.0,-2.5951,0.0,0.0,-2.7121,-2.706,-2.7228,-2.7575,-2.5314,0.0,-2.197,-1.9834,0.0,-1.6826,0.0,0.0,0.0,0.0,-1.9656,-2.1865,-2.4112,-2.6429,-2.8635,-2.9489,0.0,0.0,-2.974,-2.9702,-2.9599,-2.9753,-2.9792,-2.9792,-2.9792,-2.9792,-2.9792,-2.9792,-2.9792,-2.9792,-2.9792,-2.9792,-2.9792,-2.9792,-2.9792,-2.9716,-2.939,-2.8837,-2.8247,-2.7758,-2.7645,-2.7557,0.0,0.0,0.0,0.0,0.0,0.0,-2.2736,-2.1694,-2.1131,0.0,0.0,0.0,0.0,-2.0541,0.0,0.0,-1.8894,-2.005,-2.1081,-2.125,0.0,0.0,0.0,0.0,-2.7035,-2.794,-2.8582,-2.8878,-2.9008,-2.9052,-2.8922,-2.8922,-2.8843,-2.8618,-2.8697,-2.8669,-2.851,-2.8578,-2.8578,-2.8534,-2.8903,-2.9238,-2.9552,-3.0827,-3.1608,-3.2013,-3.2246,-3.2245,-3.2213,-1.6035,0.0,0.0,0.0,0.0,0.0,0.0,-2.2352,0.0,-2.4064,0.0,-2.6061,-2.6061,-2.6822,-2.7309,-2.7309,0.0,-2.6967,-2.6159,-2.648,-2.6864,-2.728,-2.7332,-2.7759,-2.8569,-2.7286,-2.5354,-2.2782,-2.1777,-1.9833,-1.7057,0.0,0.0,0.0,0.0,0.0,0.0,-2.5636,-2.7871,-2.8838,-2.9528,-2.9792,-2.9792,-2.9792,-2.9792,-2.9792,-2.9792,-2.9792,-2.9792,-2.9792,-2.9792,-2.9792,-2.9792,-2.9792,-2.9792,-2.9792,-2.9792,-2.9792,-2.9792,-2.9792,-2.9792,-2.9792,-2.9792,-2.9528,-2.8549,-2.8323,-2.8323,-2.8323,-2.757,-2.7304,0.0,0.0,0.0,0.0,0.0,0.0,0.0,0.0,0.0,0.0,0.0,0.0,0.0,0.0,-1.9058,-2.0377,-2.0451,0.0,0.0,0.0,0.0,-2.6474,-2.7701,0.0,-2.8636,0.0,-2.9108,-2.9131,-2.9131,-2.904,-2.8843,-2.9,-2.8895,-2.859,-2.8764,-2.8724,-2.859,-2.8776,-2.9199,-2.9825,-3.1006,-3.1491,-3.1699,-3.2469,-3.2636,-3.2519,-1.8526,0.0,0.0,0.0,0.0,-2.2986,-2.2829,-2.3217,-2.403,-2.5368,-2.6449,-2.7061,-2.7061,-2.7216,-2.7309,-2.7309,-2.7309,0.0,0.0,0.0,0.0,-2.8211,-2.8288,-2.8674,-2.955,-2.7573,-2.5632,-2.3748,-2.1302,-1.9133,-1.733,0.0,0.0,0.0,0.0,0.0,-2.1744,-2.5636,0.0,-2.8335,-2.9377,-2.9792,-2.9792,-2.9792,-2.9792,-2.9792,-2.9792,-2.9792,-2.9792,-2.9792,-2.9792,-2.9792,-2.9792,-2.9792,-2.9792,-2.9792,-2.9792,-2.9792,-2.9792,-2.9792,-2.9792,-2.9792,-2.9792,-2.9741,-2.9541,-2.9503,-2.9503,-2.9503,-2.934,-2.8875,-2.777,0.0,0.0,0.0,0.0,0.0,0.0,0.0,0.0,0.0,0.0,-2.1556,0.0,0.0,-1.9974,-1.9334,0.0,0.0,0.0,0.0,0.0,0.0,-2.6741,0.0,0.0,0.0,-2.906,-2.9341,-2.9341,-2.9236,-2.9052,-2.9091,-2.9052,-2.9013,-2.9013,-2.9013,-2.9013,-2.9013,-2.949,-3.0245,-3.0889,-3.1535,-3.2151,-3.2769,-3.3025,-3.2995,-2.1778,0.0,0.0,0.0,0.0,0.0,0.0,-2.4537,-2.4959,-2.5492,-2.6123,-2.6594,-2.6594,-2.7019,-2.7309,-2.7309,-2.7309,-2.7309,-2.7309,-2.7494,-2.7672,-2.781,-2.8476,-2.8916,-2.9143,-2.7964,-2.6502,-2.4833,-2.2322,-2.0112,-1.8229,-1.7652,-1.726,-1.7036,0.0,-2.0564,0.0,0.0,0.0,-2.821,-2.934,-2.9792,-2.9792,-2.9792,-2.9792,-2.9792,-2.9792,-2.9792,-2.9792,-2.9792,-2.9792,-2.9792,-2.9792,-2.9792,-2.9792,-2.9792,-2.9792,-2.9792,-2.9792,-2.9792,-2.9792,-2.9792,-2.9792,-2.9792,-2.9792,-2.9566,-2.934,-2.934,-2.9114,-2.8499,-2.7153,-2.5737,0.0,0.0,0.0,0.0,0.0,0.0,-2.3678,0.0,0.0,0.0,0.0,0.0,0.0,0.0,0.0,0.0,0.0,0.0,0.0,0.0,0.0,0.0,0.0,0.0,0.0,-2.9611,-2.9611,-2.9482,-2.9275,-2.9417,-2.9339,-2.9091,-2.9197,-2.9197,-2.9091,-2.9197,-2.9566,-3.0074,-3.0623,-3.1242,-3.1851,-3.2416,-3.2817,-3.3124,0.0,-2.479,0.0,0.0,-2.4502,0.0,-2.5062,-2.5701,-2.5962,-2.5544,-2.5896,-2.6221,-2.6221,-2.6864,-2.7309,-2.7309,-2.7216,-2.7164,-2.7164,-2.7356,-2.7408,-2.7316,-2.8283,-2.8829,-2.8764,-2.8437,-2.7394,0.0,-2.364,-2.1418,0.0,-1.838,-1.8165,-1.8378,0.0,0.0,0.0,0.0,-2.767,-2.8373,-2.939,-2.9792,-2.9792,-2.9792,-2.9792,-2.9792,-2.9792,-2.9792,-2.9792,-2.9792,-2.9792,-2.9792,-2.9792,-2.9792,-2.9792,-2.9792,-2.9792,-2.9792,-2.9792,-2.9792,-2.9792,-2.9792,-2.9792,-2.9767,-2.9641,-2.9252,-2.8863,-2.8737,-2.831,-2.7632,-2.6675,-2.5749,0.0,0.0,0.0,0.0,0.0,0.0,0.0,0.0,0.0,0.0,-1.912,0.0,0.0,0.0,0.0,0.0,0.0,0.0,0.0,0.0,0.0,-2.6612,-2.7921,0.0,-2.9101,0.0,-2.9792,-2.9702,-2.9509,-2.9702,-2.9585,-2.9248,-2.9404,-2.9404,-2.9248,-2.9431,-2.9611,-2.9842,-3.0407,-3.0871,-3.1286,-3.1838,-3.2328,-3.2759,0.0,0.0,0.0,0.0,0.0,0.0,-2.5115,-2.602,-2.6655,-2.6484,-2.6895,-2.7175,-2.7175,-2.7258,-2.7309,-2.7309,-2.6926,-2.6677,-2.6677,-2.6287,-2.6567,-2.7716,-2.7859,-2.8462,-2.9636,-2.9139,-2.7783,0.0,0.0,-2.2184,0.0,-1.9936,-2.0654,-2.1142,0.0,0.0,0.0,-2.654,-2.7896,-2.8863,-2.9541,-2.9792,-2.9792,-2.9792,-2.9792,-2.9792,-2.9792,-2.9792,-2.9792,-2.9792,-2.9792,-2.9792,-2.9792,-2.9792,-2.9792,-2.9792,-2.9792,-2.9792,-2.9792,-2.9792,-2.9792,-2.9792,-2.9792,-2.9654,-2.9126,-2.8938,-2.875,-2.8285,-2.7745,-2.7216,-2.6612,-2.6411,-2.6009,0.0,0.0,0.0,0.0,0.0,-2.4519,-2.3916,0.0,0.0,0.0,0.0,0.0,0.0,0.0,0.0,0.0,0.0,0.0,-2.3979,0.0,-2.5234,-2.7344,-2.7908,-2.8725,-2.9792,-2.9792,-2.9792,-2.9753,-2.9792,-2.9792,-2.9753,-2.9753,-2.9753,-2.9753,-2.9753,-2.9792,-2.9842,-3.0407,-3.0645,-3.0758,-3.1273,-3.1499,-3.1549,0.0,0.0,0.0,0.0,0.0,0.0,0.0,-2.7349,-2.8088,-2.7074,-2.7852,-2.8649,-2.9004,-2.9037,-2.8806,-2.8175,-2.769,-2.7422,-2.7377,-2.715,-2.7275,-2.7794,-2.8578,-2.9022,-2.9,-2.8935,-2.8298,0.0,0.0,0.0,0.0,-2.143,-2.182,0.0,0.0,-2.5034,-2.6389,-2.7708,-2.8524,-2.8938,-2.9566,-2.9792,-2.9792,-2.9792,-2.9792,-2.9792,-2.9792,-2.9792,-2.9792,-2.9792,-2.9792,-2.9792,-2.9792,-2.9792,-2.9792,-2.9792,-2.9792,-2.9792,-2.9792,-2.9792,-2.9792,-2.9792,-2.9792,-2.9729,-2.9503,-2.8925,-2.8373,-2.8147,-2.7406,-2.6751,-2.6537,-2.621,-2.5946,0.0,0.0,0.0,0.0,0.0,0.0,-2.4067,0.0,-2.197,0.0,0.0,0.0,0.0,0.0,-1.8243,-1.8819,0.0,0.0,-2.2924,0.0,-2.5234,-2.6801,-2.7657,-2.8499,-2.9277,-2.9628,-2.9792,-2.9792,-2.9792,-2.9792,-2.9792,-2.9792,-2.9792,-2.9792,-2.9792,-2.9792,-2.9817,-3.0043,-3.0331,-3.0645,-3.0846,-3.1122,-3.1386,-2.8064,0.0,-2.7743,0.0,-2.7128,-2.7195,-2.7402,-2.8775,-2.9407,-2.8391,-2.9347,-3.0056,-2.9861,-3.0078,-2.9897,-2.9222,-2.8721,-2.8443,-2.8353,-2.8042,-2.8019,-2.8463,-2.9088,0.0,-2.9102,-2.9145,-2.8875,-2.8348,-2.6593,0.0,0.0,-2.31,-2.3364,0.0,-2.5749,-2.6716,-2.7821,-2.8562,-2.8988,-2.9176,-2.9628,-2.9792,-2.9792,-2.9792,-2.9792,-2.9792,-2.9792,-2.9792,-2.9792,-2.9792,-2.9892,-3.0005,-2.9842,-2.9792,-2.9792,-2.9792,-2.9792,-2.9792,-2.9792,-2.9792,-2.9792,-2.9792,-2.9792,-2.9704,-2.9377,-2.8674,-2.8009,-2.7682,-2.704,-2.6499,-2.6499,-2.616,-2.5959,-2.6197,0.0,0.0,0.0,-2.541,0.0,-2.4293,-2.31,-2.2071,-2.1443,0.0,0.0,0.0,0.0,-1.9409,-1.9183,0.0,0.0,0.0,0.0,0.0,0.0,-2.7557,-2.8386,-2.89,-2.9515,-2.9792,-2.9792,-2.9792,-2.9792,-2.9792,-2.9792,-2.9792,-2.9792,-2.9792,-2.9792,-2.9792,-2.9792,-3.003,-3.0369,-3.0369,-3.0608,-3.0922,-2.8533,-2.8991,-2.9149,-2.7474,-2.8193,-2.9125,-2.9579,-3.0079,-3.0486,-3.0707,-3.1572,-3.1375,-2.9247,-2.9737,-3.0215,-3.017,-2.9744,-2.9489,-2.9489,-2.8568,-2.8612,0.0,0.0,-2.9166,-3.0555,-3.0068,-2.9503,-2.8888,0.0,0.0,-2.5561,-2.5034,-2.5661,-2.7278,-2.7256,-2.7871,-2.8875,-2.8888,-2.9252,-2.9779,-2.9792,-2.9792,-2.9792,-2.9792,-2.9792,-2.9792,-2.9792,-2.9792,-2.9792,-2.9792,-3.0156,-3.0507,-2.9967,-2.9792,-2.9792,-2.9792,-2.9792,-2.9792,-2.9792,-2.9792,-2.9792,-2.9792,-2.9792,-2.9503,-2.8386,-2.8109,-2.7795,-2.6738,-2.6499,-2.6499,-2.6499,-2.6487,-2.6298,-2.5699,0.0,0.0,0.0,0.0,0.0,-2.4775,-2.3339,-2.2493,-2.302,0.0,0.0,0.0,0.0,-2.0905,-2.1418,0.0,0.0,-2.3866,-2.4004,0.0,-2.6474,-2.7557,-2.8386,-2.89,-2.9515,-2.9792,-2.9792,-2.9792,-2.9792,-2.9792,-2.9792,-2.9792,-2.9792,-2.9792,-2.9792,-2.9792,-2.9792,-2.9792,-2.9804,-2.9804,-2.9804,-2.9817,-2.8967,-2.9557,-2.984,-2.8462,-2.9372,-3.0006,-2.9109,-3.026,-3.0882,-2.99,-3.107,-3.1679,-3.0855,-3.1629,-3.1889,0.0,-3.0727,-3.043,0.0,-2.9789,-2.9911,-3.0964,-3.0682,-3.0543,-3.058,-3.0444,-3.008,-2.9515,0.0,0.0,0.0,-2.7483,-2.786,-2.8423,-2.8812,-2.9189,-2.9515,-2.9515,-2.9616,-2.9792,-2.9792,-2.9792,-2.9829,-3.0218,-3.0357,-3.0407,-3.0758,-3.0884,-3.0884,-3.0884,-3.0997,-3.1122,-3.0934,-3.0633,-3.0281,-2.9905,-2.9792,-2.9792,-2.9792,-2.9792,-2.9792,-2.9792,-2.9792,-2.9691,-2.934,-2.8662,-2.7795,-2.6725,-2.6499,-2.6499,-2.6499,-2.6499,-2.6436,-2.6248,-2.6373,0.0,0.0,0.0,-2.465,-2.4305,-2.3791,-2.3376,0.0,-2.2782,0.0,0.0,0.0,0.0,0.0,0.0,0.0,0.0,-2.4305,0.0,-2.5862,-2.7356,-2.8197,-2.8386,-2.934,-2.9792,-2.9792,-2.9792,-2.9792,-2.9792,-2.9792,-2.9792,-2.9792,-2.9792,-2.9792,-2.9792,-2.9792,-2.9792,-2.9792,-2.9792,-2.9792,-2.9792,-2.9601,-3.026,-3.0633,-2.9567,-3.0531,-3.1085,-2.9914,-3.1034,-3.1448,-2.9932,-3.1111,-3.1926,-3.1504,-3.2271,0.0,-3.222,-3.1902,-3.1706,-3.1675,-3.1204,-3.1235,-3.2014,-3.1612,-3.1336,-3.1223,-3.1009,0.0,-3.0394,-2.9842,-2.9239,-2.875,-2.9089,-2.9252,-2.9264,-2.9628,-2.9792,-2.9792,-2.9792,-2.9792,-2.9792,-2.9792,-2.9917,-3.0143,-3.0482,-3.0733,-3.0947,-3.1273,-3.1386,-3.1386,-3.1386,-3.1524,-3.1662,-3.1449,-3.1311,-3.1072,-3.0319,-3.0105,-3.0055,-2.9842,-2.9792,-2.9792,-2.9792,-2.9792,-2.9729,-2.9515,-2.8762,-2.7846,-2.6989,-2.6801,-2.6738,-2.6537,-2.6499,-2.6499,-2.6499,-2.6499,-2.6298,-2.5674,0.0,-2.4695,0.0,0.0,0.0,0.0,-2.3735,-2.3534,0.0,0.0,0.0,0.0,0.0,0.0,-2.3238,-2.477,0.0,-2.6226,-2.7482,-2.821,-2.8423,-2.9352,-2.9792,-2.9792,-2.9792,-2.9792,-2.9792,-2.9792,-2.9792,-2.9792,-2.9792,-2.9792,-2.9792,-2.9792,-2.9792,-2.9792,-2.9792,-2.9792,-2.9792,-3.0543,-3.1092,-3.1472,0.0,-3.156,0.0,-3.1663,-3.2167,-3.2074,-3.0662,-3.1559,-3.2055,-3.1339,-3.1938,-3.2562,-3.3025,0.0,0.0,0.0,-3.2566,-3.2516,-3.3099,-3.2064,-3.1725,-3.2202,-3.1712,-3.1436,-3.1386,-3.0909,-3.0382,-2.9854,-2.9854,-2.9829,-2.9792,-2.9792,-2.9792,-2.9792,-2.9792,-2.9817,-2.9854,-2.9854,-3.0181,-3.067,-3.0708,-3.1022,-3.1449,-3.1486,-3.1512,-3.1512,-3.1512,-3.1851,-3.219,-3.1675,-3.1863,-3.2051,-3.0947,-3.062,-3.0495,-2.9942,-2.9792,-2.9792,-2.9792,-2.9792,-2.9641,-2.9026,-2.8499,-2.8009,-2.7457,-2.7341,-2.7165,-2.665,-2.6524,-2.6499,-2.6499,-2.6461,-2.6235,-2.5624,0.0,0.0,0.0,0.0,0.0,0.0,-2.4863,-2.5071,0.0,0.0,0.0,0.0,0.0,-2.3221,-2.482,-2.5423,-2.6226,-2.7268,-2.7871,-2.8448,-2.8963,-2.9528,-2.9792,-2.9792,-2.9792,-2.9792,-2.9792,-2.9792,-2.9792,-2.9792,-2.9792,-2.9792,-2.9792,-2.9792,-2.9792,-2.9792,-2.9792,-2.9792,-2.9792,0.0,0.0,-3.1849,-3.1661,-3.1893,-3.1887,-3.1369,-3.1437,-3.1412,-3.1071,-3.1473,-3.1798,-3.1807,-3.2183,-3.2431,-3.2574,-3.2723,-3.2896,-3.3081,-3.2955,-3.293,-3.3111,-3.2817,-3.2528,-3.2227,-3.2089,-3.1813,-3.1386,-3.1273,-3.0934,-3.0419,-3.0419,-3.0193,-2.9792,-2.9792,-2.9792,-2.9792,-2.9792,-3.0043,-3.0419,-3.0419,-3.0733,-3.1248,-3.1675,-3.1913,-3.2077,-3.2516,-3.2679,-3.2679,-3.2679,-3.2767,-3.2855,-3.2717,-3.2767,-3.2579,-3.106,-3.062,-3.0495,-2.9942,-2.9792,-2.9792,-2.9792,-2.9792,-2.9641,-2.9026,-2.8787,-2.8574,-2.8021,-2.757,-2.7278,-2.714,-2.6788,-2.6499,-2.6499,-2.6122,-2.5611,-2.5084,-2.4863,0.0,0.0,-2.4795,-2.5109,-2.4813,-2.5586,-2.5423,0.0,0.0,0.0,0.0,-2.4418,-2.4996,-2.5398,-2.6377,-2.7017,-2.7281,-2.8247,-2.9026,-2.9591,-2.9729,-2.9792,-2.9792,-2.9792,-2.9792,-2.9792,-2.9792,-2.9792,-2.9792,-2.9792,-2.9792,-2.9792,-2.9792,-2.9792,-2.9792,-2.9792,-2.9792,-2.9792,-3.2069,-3.1937,-3.1937,-3.2169,-3.2081,-3.1843,-3.1424,-3.1504,-3.1478,-3.1223,-3.1473,-3.1753,-3.1957,-3.2038,-3.2125,-3.2213,-3.2431,-3.2636,-3.2779,-3.2865,-3.2896,-3.2896,-3.3025,-3.293,-3.2616,-3.2604,-3.2328,-3.1763,-3.1763,-3.1373,-3.062,-3.0859,-3.0683,-3.0181,-3.0419,-3.052,-3.052,-3.052,-3.0696,-3.0972,-3.0972,-3.1286,-3.18,-3.2102,-3.2378,-3.2641,-3.2968,-3.3124,-3.3124,-3.3124,-3.3124,-3.3124,-3.3124,-3.3124,-3.2855,-3.1687,-3.1173,-3.0846,-3.0319,-2.998,-2.9792,-2.9792,-2.9792,-2.9704,-2.9402,-2.9327,-2.9164,-2.8562,-2.8247,-2.7883,-2.7369,-2.7065,-2.6788,-2.6537,-2.6235,-2.5799,-2.5259,-2.5172,0.0,-2.477,-2.5247,-2.5586,-2.5573,-2.6147,-2.5996,-2.4745,-2.5485,0.0,-2.4707,-2.5498,-2.6021,-2.6021,-2.6864,-2.7519,-2.8034,-2.8888,-2.9478,-2.9792,-2.9792,-2.9792,-2.9792,-2.9792,-2.9792,-2.9792,-2.9792,-2.9792,-2.9792,-2.9792,-2.9792,-2.9792,-2.9792,-2.9792,-2.9792,-2.9792,-2.9792,-2.9792,-3.2013,-3.1925,-3.2013,-3.2475,-3.23,-3.201,-3.1859,-3.192,-3.1855,-3.1424,-3.1591,-3.1805,-3.1937,-3.1805,-3.1749,-3.1937,-3.2169,-3.2344,-3.2431,-3.2593,-3.2723,-3.2766,-3.2982,-3.3124,-3.3124,-3.3081,-3.2787,-3.2256,-3.2256,-3.1797,-3.0871,-3.1311,-3.1235,-3.0758,-3.1198,-3.1386,-3.1386,-3.1386,-3.1436,-3.1512,-3.1512,-3.1851,-3.234,-3.234,-3.2641,-3.3124,-3.3124,-3.3124,-3.3124,-3.3124,-3.3124,-3.3124,-3.3124,-3.3124,-3.298,-3.2491,-3.1888,-3.1273,-3.0758,-3.0218,-2.9792,-2.9792,-2.9792,-2.9792,-2.9792,-2.9792,-2.9654,-2.9126,-2.895,-2.8599,-2.7708,-2.7394,-2.7165,-2.6688,-2.6474,-2.6197,-2.5661,0.0,-2.5598,-2.5598,-2.5674,-2.5946,-2.6449,-2.6499,-2.6499,-2.6499,-2.6499,-2.6499,-2.6499,-2.6499,-2.6562,-2.6738,-2.719,-2.7934,-2.9013,-2.9553,-2.9792,-2.9792,-2.9792,-2.9792,-2.9792,-2.9792,-2.9792,-2.9792,-2.9792,-2.9792,-2.9792,-2.9792,-2.9792,-2.9792,-2.9792,-2.9792,-2.9792,-2.9792,-2.9792,-2.9792,-3.3099,-3.2957,-3.2914,-3.3185,-3.2723,-3.245,-3.2796,-3.237,-3.2045,-3.2178,-3.2064,-3.1893,-3.1761,-3.1705,-3.1705,-3.1749,-3.1793,-3.2069,-3.2636,-3.268,-3.2797,-3.3025,-3.3081,-3.3124,-3.3124,-3.2896,-3.2717,-3.263,-3.263,-3.2379,-3.1964,-3.2051,-3.1788,-3.1273,-3.1348,-3.1386,-3.1386,-3.1386,-3.1662,-3.2089,-3.2089,-3.2428,-3.2943,-3.2943,-3.3006,-3.3124,-3.3124,-3.3124,-3.3124,-3.3124,-3.3124,-3.3124,-3.3124,-3.3124,-3.3056,-3.2968,-3.2202,-3.1273,-3.0758,-3.0218,-2.9792,-2.9792,-2.9792,-2.9792,-2.9792,-2.9792,-2.9767,-2.9679,-2.9264,-2.8838,-2.8662,-2.7908,-2.7256,-2.7203,-2.6386,-2.5699,-2.5598,0.0,-2.5598,-2.5598,-2.6059,-2.6399,-2.6487,-2.6499,-2.6499,-2.6499,-2.6499,-2.6499,-2.6499,-2.6499,-2.6927,-2.7821,-2.7934,-2.8524,-2.9641,-2.9741,-2.9792,-2.9792,-2.9792,-2.9792,-2.9792,-2.9792,-2.9792,-2.9792,-2.9792,-2.9792,-2.9792,-2.9792,-2.9792,-2.9792,-2.9792,-2.9792,-2.9792,-2.9792,-2.9792,-2.9792,-3.3215,-3.2957,-3.2927,-3.3313,-3.3185,-3.2955,-3.2824,-3.2438,-3.219,-3.2099,-3.193,-3.1849,-3.1849,-3.1761,-3.1705,-3.1705,-3.1705,-3.1881,-3.2288,-3.2463,-3.2605,-3.2736,-3.2952,-3.3124,-3.3124,-3.2853,-3.2711,-3.2711,-3.2593,-3.2308,-3.1849,-3.2274,-3.2167,-3.1697,-3.2123,-3.2303,-3.2303,-3.2303,-3.2453,-3.2679,-3.2679,-3.283,-3.3124,-3.3124,-3.3124,-3.3124,-3.3124,-3.3124,-3.3124,-3.3124,-3.3124,-3.3124,-3.3124,-3.3124,-3.3124,-3.3124,-3.2277,-3.121,-3.0394,-2.9993,-2.9792,-2.9792,-2.9792,-2.9792,-2.9792,-2.9792,-2.9792,-2.9792,-2.9578,-2.9302,-2.895,-2.8273,-2.772,-2.772,-2.6791,0.0,0.0,-2.6285,-2.6097,-2.6097,-2.6336,-2.6499,-2.6499,-2.6499,-2.6499,-2.6499,-2.6499,-2.6499,-2.6499,-2.6499,-2.6864,-2.7632,-2.8536,-2.9264,-2.9779,-2.9792,-2.9792,-2.9792,-2.9792,-2.9792,-2.9792,-2.9792,-2.9792,-2.9792,-2.9792,-2.9792,-2.9792,-2.9792,-2.9792,-2.9792,-2.9792,-2.9792,-2.9792,-2.9792,-2.9792,-2.9792,-3.3416,-3.3172,-3.3142,-3.3556,-3.3556,-3.3403,-3.2957,-3.2694,-3.2432,-3.2199,-3.2093,-3.2057,-3.2245,-3.2101,-3.2001,-3.2001,-3.1925,-3.1937,-3.2081,-3.2213,-3.2344,-3.24,-3.2736,-3.2909,-3.2865,-3.2636,-3.255,-3.255,-3.2388,-3.208,-3.1706,-3.2352,-3.2413,-3.2029,-3.2666,-3.2952,-3.2952,-3.2952,-3.2952,-3.2952,-3.2952,-3.2952,-3.2952,-3.2952,-3.2952,-3.2952,-3.2995,-3.3025,-3.3025,-3.3081,-3.3124,-3.3124,-3.3124,-3.3124,-3.3124,-3.3124,-3.2277,-3.1185,-3.0244,-2.9892,-2.9792,-2.9792,-2.9792,-2.9792,-2.9792,-2.9792,-2.9792,-2.9792,-2.9792,-2.9654,-2.9176,-2.8674,-2.826,-2.8134,0.0,0.0,0.0,-2.6763,-2.6499,-2.6499,-2.6499,-2.6499,-2.6499,-2.6499,-2.6499,-2.6499,-2.6499,-2.6499,-2.6499,-2.6499,-2.6751,-2.7268,-2.8787,-2.9654,-2.9792,-2.9792,-2.9792,-2.9792,-2.9792,-2.9792,-2.9792,-2.9792,-2.9792,-2.9792,-2.9792,-2.9792,-2.9792,-2.9792,-2.9792,-2.9792,-2.9792,-2.9792,-2.9792,-2.9792,-2.9792,-2.9792,-3.4314,-3.4272,-3.4272,-3.4314,-3.3979,-3.3755,-3.394,-3.3403,-3.3018,-3.325,-3.3061,-3.2914,-3.2914,-3.2914,-3.2902,-3.2902,-3.255,-3.2344,-3.2344,-3.2169,-3.2125,-3.24,-3.2431,-3.2344,-3.2081,-3.2081,-3.2038,-3.2038,-3.2038,-3.2145,-3.2339,-3.2376,-3.2419,-3.2382,-3.2419,-3.2444,-3.2444,-3.2444,-3.2444,-3.2444,-3.2444,-3.2444,-3.2444,-3.2444,-3.2444,-3.2475,-3.268,-3.2723,-3.2766,-3.3025,-3.3124,-3.3124,-3.3124,-3.3124,-3.3124,-3.3124,-3.2277,-3.1273,-3.0708,-3.0181,-2.9792,-2.9792,-2.9792,-2.9792,-2.9792,-2.9792,-2.9792,-2.9792,-2.9792,-2.9779,-2.9741,-2.9252,-2.8662,-2.8185,0.0,0.0,-2.6612,-2.6512,-2.6499,-2.6499,-2.6499,-2.6499,-2.6499,-2.6499,-2.6499,-2.6499,-2.6499,-2.6499,-2.6499,-2.6499,-2.6751,-2.7268,-2.8398,-2.9252,-2.9779,-2.9792,-2.9792,-2.9792,-2.9792,-2.9792,-2.9792,-2.9792,-2.9792,-2.9792,-2.9792,-2.9792,-2.9792,-2.9792,-2.9792,-2.9792,-2.9792,-2.9792,-2.9792,-2.9792,-2.9792,-2.9792,-3.4397,-3.4397,-3.4397,-3.4397,-3.3853,-3.3511,-3.3764,-3.3309,-3.2975,-3.3071,-3.3055,-3.2988,-3.2988,-3.2988,-3.2988,-3.2988,-3.2871,-3.2754,-3.2754,-3.2667,-3.2537,-3.2388,-3.24,-3.2356,-3.2257,-3.2081,-3.1994,-3.1994,-3.1893,-3.1893,-3.1981,-3.2069,-3.2169,-3.2169,-3.2313,-3.24,-3.24,-3.24,-3.24,-3.24,-3.24,-3.24,-3.24,-3.24,-3.24,-3.2431,-3.2636,-3.2711,-3.2766,-3.3025,-3.3124,-3.3124,-3.3124,-3.3124,-3.3124,-3.3124,-3.2277,-3.1348,-3.1148,-3.0457,-2.9792,-2.9792,-2.9792,-2.9792,-2.9792,-2.9792,-2.9792,-2.9792,-2.9792,-2.9792,-2.9792,-2.9315,-2.8825,-2.8612,0.0,-2.7241,-2.704,-2.6713,-2.6499,-2.6499,-2.6499,-2.6499,-2.6499,-2.6499,-2.6499,-2.6499,-2.6499,-2.6499,-2.6499,-2.6499,-2.6901,-2.777,-2.8197,-2.8687,-2.9252,-2.9616,-2.9792,-2.9792,-2.9792,-2.9792,-2.9792,-2.9792,-2.9792,-2.9792,-2.9792,-2.9792,-2.9792,-2.9792,-2.9792,-2.9792,-2.9792,-2.9792,-2.9792,-2.9792,-2.9792,-2.9792,-3.3901,-3.4018,-3.4149,-3.4149,-3.3875,-3.3692,-3.3822,-3.3602,-3.3382,-3.3382,-3.3398,-3.3458,-3.3458,-3.3458,-3.3458,-3.3458,-3.3288,-3.3202,-3.3202,-3.3074,-3.284,-3.2431,-3.24,-3.2344,-3.2157,-3.1981,-3.1893,-3.1893,-3.1749,-3.1705,-3.1705,-3.1849,-3.1893,-3.1893,-3.2081,-3.2169,-3.2169,-3.2169,-3.2213,-3.2257,-3.2257,-3.23,-3.24,-3.24,-3.24,-3.2431,-3.2636,-3.2711,-3.2766,-3.3025,-3.3124,-3.3124,-3.3124,-3.3124,-3.3124,-3.3124,-3.2277,-3.1386,-3.1386,-3.0608,-2.9792,-2.9792,-2.9792,-2.9792,-2.9792,-2.9792,-2.9792,-2.9792,-2.9792,-2.9792,-2.9792,-2.9465,-2.9101,-2.8913,-2.8147,-2.7482,-2.7306,-2.6839,-2.6499,-2.6499,-2.6499,-2.6499,-2.6499,-2.6499,-2.6499,-2.6499,-2.6499,-2.6499,-2.6499,-2.6499,-2.6914,-2.7821,-2.8009,-2.8373,-2.8888,-2.9503,-2.9792,-2.9792,-2.9792,-2.9792,-2.9792,-2.9792,-2.9792,-2.9792,-2.9792,-2.9792,-2.9792,-2.9792,-2.9792,-2.9792,-2.9792,-2.9792,-2.9792,-2.9792,-2.9792,-2.9792,-3.2816,-3.3169,-3.3587,-3.3587,-3.4018,-3.4384,-3.4384,-3.4384,-3.4384,-3.4384,-3.4397,-3.4397,-3.4397,-3.4397,-3.4397,-3.4397,-3.3966,-3.3725,-3.3725,-3.3245,-3.2828,-3.2431,-3.24,-3.2169,-3.1705,-3.1705,-3.1705,-3.1705,-3.1705,-3.1705,-3.1705,-3.1705,-3.1705,-3.1705,-3.1705,-3.1705,-3.1705,-3.1705,-3.1805,-3.1994,-3.1994,-3.2169,-3.24,-3.24,-3.24,-3.2431,-3.2636,-3.2711,-3.2766,-3.3025,-3.3124,-3.3124,-3.3124,-3.3124,-3.3124,-3.3124,-3.2319,-3.1399,-3.1386,-3.0608,-2.9804,-2.9792,-2.9792,-2.9792,-2.9792,-2.9792,-2.9792,-2.9792,-2.9792,-2.9792,-2.9792,-2.9792,-2.9591,-2.8988,-2.8461,-2.7908,-2.7392,-2.6851,-2.6499,-2.6499,-2.6499,-2.6499,-2.6499,-2.6499,-2.6499,-2.6499,-2.6499,-2.6499,-2.6499,-2.6499,-2.6751,-2.7268,-2.7821,-2.8373,-2.8888,-2.9503,-2.9792,-2.9792,-2.9792,-2.9779,-2.9779,-2.9779,-2.9779,-2.9779,-2.9792,-2.9792,-2.9792,-2.9792,-2.9792,-2.9792,-2.9792,-2.9792,-2.9792,-2.9792,-2.9792,-2.9792,-3.2725,-3.2829,-3.296,-3.296,-3.2764,-3.2698,-3.3143,-3.3208,-3.3352,-3.3783,-3.4162,-3.4397,-3.4397,-3.4397,-3.4397,-3.4397,-3.4272,-3.4189,-3.4189,-3.405,-3.3768,-3.3343,-3.2723,-3.2344,-3.2213,-3.1893,-3.1705,-3.1705,-3.1705,-3.1705,-3.1705,-3.1705,-3.1705,-3.1717,-3.1849,-3.1893,-3.1937,-3.2125,-3.2213,-3.2257,-3.2257,-3.2344,-3.24,-3.24,-3.24,-3.2431,-3.2636,-3.2711,-3.2766,-3.3025,-3.3124,-3.3124,-3.3124,-3.3124,-3.3124,-3.3124,-3.2554,-3.1888,-3.1499,-3.0884,-3.0281,-2.9892,-2.9792,-2.9792,-2.9792,-2.9792,-2.9792,-2.9792,-2.9792,-2.9792,-2.9792,-2.9465,-2.9126,-2.8913,-2.8461,-2.7908,-2.7392,-2.7178,-2.6927,-2.6537,-2.6499,-2.6499,-2.6499,-2.6499,-2.6499,-2.6499,-2.6499,-2.6499,-2.6499,-2.6499,-2.6751,-2.7268,-2.7821,-2.8373,-2.8888,-2.9503,-2.9792,-2.9779,-2.9377,-2.9189,-2.9189,-2.9189,-2.9189,-2.9202,-2.9616,-2.9792,-2.9792,-2.9792,-2.9792,-2.9792,-2.9792,-2.9792,-2.9792,-2.9792,-2.9792,-2.9792,-3.2058,-3.2202,-3.2346,-3.2346,-3.2254,-3.2293,-3.2633,-3.2685,-3.2829,-3.3195,-3.3731,-3.4071,-3.4071,-3.4267,-3.4397,-3.4397,-3.4397,-3.4397,-3.4397,-3.4397,-3.4272,-3.3966,-3.33,-3.2766,-3.2388,-3.1937,-3.1705,-3.1705,-3.1705,-3.1705,-3.1705,-3.1705,-3.1705,-3.1705,-3.1893,-3.1994,-3.2038,-3.2313,-3.2431,-3.2519,-3.2519,-3.2605,-3.2692,-3.2692,-3.2692,-3.2692,-3.281,-3.2853,-3.2896,-3.3038,-3.3124,-3.3124,-3.3124,-3.3124,-3.3124,-3.3124,-3.2667,-3.2139,-3.18,-3.1173,-3.0532,-3.0206,-2.9955,-2.9792,-2.9792,-2.9792,-2.9792,-2.9792,-2.9792,-2.9792,-2.9792,-2.9503,-2.9277,-2.9277,-2.8612,-2.8059,-2.7946,-2.7369,-2.6952,-2.6839,-2.6625,-2.6499,-2.6499,-2.6499,-2.6499,-2.6499,-2.6499,-2.6499,-2.6499,-2.6499,-2.6851,-2.7582,-2.7934,-2.8373,-2.8888,-2.9277,-2.9453,-2.9453,-2.8875,-2.8675,-2.8888,-2.8662,-2.8687,-2.8913,-2.9302,-2.9453,-2.9465,-2.9691,-2.9792,-2.9792,-2.9792,-2.9792,-2.9792,-2.9792,-2.9792,-2.9792,-3.1091,-3.1405,-3.1732,-3.1732,-3.2189,-3.2542,-3.2542,-3.2581,-3.262,-3.262,-3.3143,-3.3535,-3.3587,-3.4031,-3.4345,-3.4397,-3.4397,-3.4397,-3.4397,-3.4397,-3.4397,-3.4397,-3.3937,-3.3343,-3.2519,-3.2025,-3.1749,-3.1705,-3.1705,-3.1705,-3.1705,-3.1749,-3.1749,-3.1761,-3.1937,-3.2081,-3.2069,-3.2344,-3.2562,-3.2766,-3.2766,-3.2896,-3.3124,-3.3124,-3.3124,-3.3124,-3.3124,-3.3124,-3.3124,-3.3124,-3.3124,-3.3124,-3.3124,-3.3124,-3.3124,-3.3124,-3.2704,-3.2277,-3.2227,-3.1461,-3.067,-3.062,-3.0206,-2.9792,-2.9792,-2.9792,-2.9792,-2.9792,-2.9792,-2.9792,-2.9792,-2.9754,-2.9729,-2.9779,-2.8888,-2.8348,-2.8813,-2.7632,-2.6889,-2.7341,-2.6901,-2.6562,-2.6562,-2.6524,-2.6499,-2.6499,-2.6499,-2.6499,-2.6499,-2.6549,-2.7027,-2.7996,-2.8134,-2.8398,-2.8813,-2.8813,-2.8813,-2.8813,-2.8298,-2.8298,-2.8725,-2.831,-2.8348,-2.875,-2.885,-2.8863,-2.8863,-2.9428,-2.9679,-2.9716,-2.9716,-2.9741,-2.9792,-2.9792,-2.9792,-2.9792,-3.1013,-3.1091,-3.1169,-3.1169,-3.1274,-3.1352,-3.1352,-3.1744,-3.1993,-3.1993,-3.2529,-3.3064,-3.3535,-3.3692,-3.394,-3.4358,-3.4397,-3.4397,-3.4397,-3.4397,-3.4397,-3.4397,-3.3937,-3.3586,-3.3428,-3.2636,-3.2081,-3.1705,-3.1849,-3.1849,-3.1705,-3.2069,-3.2125,-3.1937,-3.2363,-3.255,-3.255,-3.281,-3.2982,-3.3025,-3.3025,-3.3038,-3.3124,-3.3124,-3.3124,-3.3124,-3.3124,-3.3124,-3.3124,-3.3124,-3.3124,-3.3124,-3.3124,-3.3124,-3.3124,-3.3124,-3.2993,-3.2792,-3.234,-3.1725,-3.1122,-3.0721,-3.0206,-2.9792,-2.9792,-2.9792,-2.9792,-2.9792,-2.9792,-2.9792,-2.9792,-2.9415,-2.9264,-2.9716,-2.9214,-2.875,-2.8875,-2.8612,-2.8285,-2.7959,-2.7444,-2.714,-2.714,-2.6751,-2.6499,-2.6499,-2.6499,-2.6499,-2.6499,-2.6901,-2.7218,-2.7457,-2.8298,-2.8562,-2.8285,-2.8285,-2.8285,-2.8285,-2.772,-2.7519,-2.7657,-2.7959,-2.7934,-2.7682,-2.8549,-2.865,-2.8298,-2.8411,-2.8725,-2.9076,-2.9076,-2.939,-2.9792,-2.9792,-2.9792,-2.9792,-3.0986,-3.0986,-3.0986,-3.0986,-3.0986,-3.0986,-3.0986,-3.1248,-3.1431,-3.1431,-3.194,-3.2398,-3.2725,-3.326,-3.3809,-3.4345,-3.4397,-3.4397,-3.4397,-3.4535,-3.4577,-3.4577,-3.4452,-3.4272,-3.4063,-3.3611,-3.297,-3.2189,-3.2201,-3.2125,-3.2025,-3.2169,-3.2213,-3.2213,-3.255,-3.2711,-3.2723,-3.2995,-3.3124,-3.3124,-3.3124,-3.3124,-3.3124,-3.3124,-3.3124,-3.3124,-3.3124,-3.3124,-3.3124,-3.3124,-3.3124,-3.3124,-3.3124,-3.3124,-3.3124,-3.3124,-3.3124,-3.3048,-3.2704,-3.2014,-3.1323,-3.1047,-3.0382,-2.9792,-2.9792,-2.9792,-2.9792,-2.9792,-2.9792,-2.9792,-2.9792,-2.9541,-2.944,-2.9741,-2.9302,-2.8988,-2.9302,-2.8875,-2.8524,-2.8461,-2.8009,-2.757,-2.7306,-2.6813,-2.6499,-2.6499,-2.6499,-2.6499,-2.6499,-2.7014,-2.7281,-2.7281,-2.8097,-2.8273,-2.772,-2.7708,-2.7582,-2.7318,-2.7065,-2.7065,-2.7281,-2.7341,-2.7306,-2.7318,-2.7896,-2.7984,-2.7733,-2.7996,-2.8285,-2.8536,-2.8536,-2.8888,-2.9377,-2.9377,-2.9553,-2.9754,-3.0986,-3.0986,-3.0986,-3.0986,-3.0986,-3.0986,-3.0986,-3.0986,-3.0986,-3.0986,-3.1405,-3.1693,-3.1797,-3.2894,-3.3809,-3.4345,-3.4319,-3.4254,-3.4254,-3.4382,-3.4505,-3.457,-3.4775,-3.4761,-3.4481,-3.4481,-3.3979,-3.2884,-3.2766,-3.2692,-3.2605,-3.2376,-3.2376,-3.2562,-3.2723,-3.2766,-3.2766,-3.3025,-3.3124,-3.3124,-3.3124,-3.3124,-3.3124,-3.3124,-3.3124,-3.3124,-3.3124,-3.3124,-3.3124,-3.3124,-3.3124,-3.3124,-3.3124,-3.3124,-3.3124,-3.3124,-3.3124,-3.3124,-3.3124,-3.2315,-3.1499,-3.1411,-3.0658,-2.9905,-2.9817,-2.9792,-2.9792,-2.9792,-2.9792,-2.9792,-2.9792,-2.9792,-2.9792,-2.9792,-2.939,-2.9252,-2.9729,-2.8988,-2.8561,-2.8976,-2.8499,-2.7896,-2.7344,-2.6813,-2.6499,-2.6499,-2.6499,-2.6499,-2.6499,-2.7014,-2.7281,-2.7281,-2.7821,-2.7846,-2.7329,-2.7281,-2.704,-2.6499,-2.6499,-2.6738,-2.7165,-2.6801,-2.6839,-2.719,-2.7278,-2.7266,-2.7216,-2.7632,-2.7883,-2.7959,-2.7959,-2.8298,-2.875,-2.875,-2.9089,-2.944,-3.0986,-3.0986,-3.0986,-3.0986,-3.0986,-3.0986,-3.0986,-3.0986,-3.0986,-3.0986,-3.1052,-3.1287,-3.1745,-3.2894,-3.3809,-3.4345,-3.3966,-3.3705,-3.3705,-3.3248,-3.3209,-3.3719,-3.3936,-3.4295,-3.4743,-3.4921,-3.4522,-3.3543,-3.3768,-3.3738,-3.3501,-3.3513,-3.3386,-3.327,-3.3111,-3.3038,-3.3038,-3.3068,-3.3124,-3.3124,-3.3124,-3.3124,-3.3124,-3.3124,-3.3124,-3.3124,-3.3124,-3.3124,-3.3124,-3.3124,-3.3124,-3.3124,-3.3124,-3.3124,-3.3124,-3.3124,-3.3124,-3.3124,-3.3124,-3.2604,-3.1989,-3.1512,-3.0947,-3.0382,-2.9905,-2.9792,-2.9792,-2.9792,-2.9792,-2.9792,-2.9792,-2.9792,-2.9792,-2.9792,-2.9729,-2.9704,-2.9779,-2.9666,-2.9591,-2.9666,-2.875,-2.7896,-2.7344,-2.6813,-2.6499,-2.6499,-2.6499,-2.6499,-2.6499,-2.7014,-2.7281,-2.7281,-2.7821,-2.7846,-2.7329,-2.7281,-2.704,-2.6499,-2.6499,-2.6537,-2.6612,-2.7014,-2.6989,-2.6637,-2.7115,-2.7052,-2.6612,-2.6688,-2.7002,-2.7394,-2.7394,-2.7733,-2.8222,-2.8222,-2.826,-2.8323,-3.0986,-3.0986,-3.0986,-3.0986,-3.0986,-3.0986,-3.0986,-3.0986,-3.0986,-3.0986,-3.0986,-3.1078,-3.1339,-3.2398,-3.3326,-3.3901,-3.4005,-3.3914,-3.3613,-3.3883,-3.3964,-3.379,-3.4486,-3.4982,-3.5113,-3.5318,-3.5223,-3.484,-3.4439,-3.4189,-3.4105,-3.3979,-3.381,-3.3556,-3.3471,-3.3313,-3.3124,-3.3124,-3.3124,-3.3124,-3.3124,-3.3124,-3.3124,-3.3124,-3.3124,-3.3124,-3.3124,-3.3124,-3.3124,-3.3124,-3.3124,-3.3124,-3.3124,-3.3124,-3.3124,-3.3124,-3.3124,-3.3048,-3.2679,-3.2403,-3.2014,-3.1173,-3.0783,-3.047,-2.9917,-2.9792,-2.9792,-2.9792,-2.9792,-2.9792,-2.9792,-2.9792,-2.9792,-2.9792,-2.9792,-2.9792,-2.9792,-2.9792,-2.9792,-2.9792,-2.88,-2.8009,-2.777,-2.7002,-2.6499,-2.6499,-2.6499,-2.6499,-2.6499,-2.7014,-2.7178,-2.6864,-2.7356,-2.7381,-2.6864,-2.6851,-2.6738,-2.6499,-2.6499,-2.6499,-2.6499,-2.6751,-2.6725,-2.6512,-2.6751,-2.6713,-2.6499,-2.6499,-2.6637,-2.6851,-2.6851,-2.719,-2.7682,-2.7996,-2.8109,-2.8059]},{"header":{"parameterUnit":"m.s-1","parameterCategory":1,"la1":30.6,"la2":28.766,"lo1":-90.7593,"lo2":-88.6598,"dy":0.0162,"dx":0.0183,"nx":116,"ny":114,"refTime":"2024-06-22T18:00:00:Z","depth":0,"parameterNumber":3,"parameterNumberName":"V-component_of_WINDS"},"data":[0.0,0.0,0.0,0.0,0.0,0.0,0.0,0.0,0.0,0.0,0.0,0.0,0.0,0.0,0.0,0.0,0.0,0.0,0.0,0.0,0.0,0.0,0.0,0.0,0.0,0.0,0.0,0.0,0.0,0.0,0.0,0.0,0.0,0.0,0.0,0.0,0.0,0.0,0.0,0.0,0.0,0.0,0.0,0.0,0.0,0.0,0.0,0.0,0.0,0.0,0.0,0.0,0.0,0.0,0.0,0.0,0.0,0.0,0.0,0.0,0.0,0.0,0.0,0.0,0.0,0.0,0.0,0.0,0.0,0.0,0.0,0.0,0.0,0.0,0.0,0.0,0.0,0.0,0.0,0.0,0.0,0.0,0.0,0.0,0.0,0.0,0.0,0.0,0.0,0.0,0.0,0.0,0.0,0.0,0.0,0.0,0.0,0.0,0.0,0.0,0.0,0.0,0.0,0.0,0.0,0.0,0.0,0.0,0.0,0.0,0.0,0.0,0.0,0.0,0.0,0.0,0.0,0.0,0.0,0.0,0.0,0.0,0.0,0.0,0.0,0.0,0.0,0.0,0.0,0.0,0.0,0.0,0.0,0.0,0.0,0.0,0.0,0.0,0.0,0.0,0.0,0.0,0.0,0.0,0.0,0.0,0.0,0.0,0.0,0.0,0.0,0.0,0.0,0.0,0.0,0.0,0.0,0.0,0.0,0.0,0.0,0.0,0.0,0.0,0.0,0.0,0.0,0.0,0.0,0.0,0.0,0.0,0.0,0.0,0.0,0.0,0.0,0.0,0.0,0.0,0.0,0.0,0.0,0.0,0.0,0.0,0.0,0.0,0.0,0.0,0.0,0.0,0.0,0.0,0.0,0.0,0.0,0.0,0.0,0.0,0.0,0.0,0.0,0.0,0.0,0.0,0.0,0.0,0.0,0.0,0.0,0.0,0.0,0.0,0.0,0.0,0.0,0.0,0.0,0.0,0.0,0.0,0.0,0.0,0.0,0.0,0.0,0.0,0.0,0.0,0.0,0.0,0.0,0.0,0.0,0.0,0.0,0.0,0.0,0.0,0.0,0.0,0.0,0.0,0.0,0.0,0.0,0.0,0.0,0.0,0.0,0.0,0.0,0.0,0.0,0.0,0.0,0.0,0.0,0.0,0.0,0.0,0.0,0.0,0.0,0.0,0.0,0.0,0.0,0.0,0.0,0.0,0.0,0.0,0.0,0.0,0.0,0.0,0.0,0.0,0.0,0.0,0.0,0.0,0.0,0.0,0.0,0.0,0.0,0.0,0.0,0.0,0.0,0.0,0.0,0.0,0.0,0.0,0.0,0.0,0.0,0.0,0.0,0.0,0.0,0.0,0.0,0.0,0.0,0.0,0.0,0.0,0.0,0.0,0.0,0.0,0.0,0.0,0.0,0.0,0.0,0.0,0.0,0.0,0.0,0.0,0.0,0.0,0.0,0.0,0.0,0.0,0.0,0.0,0.0,0.0,0.0,0.0,0.0,0.0,0.0,0.0,0.0,0.0,0.0,0.0,0.0,0.0,0.0,0.0,0.0,0.0,0.0,0.0,0.0,0.0,0.0,0.0,0.0,0.0,0.0,0.0,0.0,0.0,0.0,0.0,0.0,0.0,0.0,0.0,0.0,0.0,0.0,0.0,0.0,0.0,0.0,0.0,0.0,0.0,0.0,0.0,0.0,0.0,0.0,0.0,0.0,0.0,0.0,0.0,0.0,0.0,0.0,0.0,0.0,0.0,0.0,0.0,0.0,0.0,0.0,0.0,0.0,0.0,0.0,0.0,0.0,0.0,0.0,0.0,0.0,0.0,0.0,0.0,0.0,0.0,0.0,0.0,0.0,0.0,0.0,0.0,0.0,0.0,0.0,0.0,0.0,0.0,0.0,0.0,0.0,0.0,0.0,0.0,0.0,0.0,0.0,0.0,0.0,0.0,0.0,0.0,0.0,0.0,0.0,0.0,0.0,0.0,0.0,0.0,0.0,0.0,0.0,0.0,0.0,0.0,0.0,0.0,0.0,0.0,0.0,0.0,0.0,0.0,0.0,0.0,0.0,0.0,0.0,0.0,0.0,0.0,0.0,0.0,0.0,0.0,0.0,0.0,0.0,0.0,0.0,0.0,0.0,0.0,0.0,0.0,0.0,0.0,0.0,0.0,0.0,0.0,0.0,0.0,0.0,0.0,0.0,0.0,0.0,0.0,0.0,0.0,0.0,0.0,0.0,0.0,0.0,0.0,0.0,0.0,0.0,0.0,0.0,0.0,0.0,0.0,0.0,0.0,0.0,0.0,0.0,0.0,0.0,0.0,0.0,0.0,0.0,0.0,0.0,0.0,0.0,0.0,0.0,0.0,0.0,0.0,0.0,0.0,0.0,0.0,0.0,0.0,0.0,0.0,0.0,0.0,0.0,0.0,0.0,0.0,0.0,0.0,0.0,0.0,0.0,0.0,0.0,0.0,0.0,0.0,0.0,0.0,0.0,0.0,0.0,0.0,0.0,0.0,0.0,0.0,0.0,0.0,0.0,0.0,0.0,0.0,0.0,0.0,0.0,0.0,0.0,0.0,0.0,0.0,0.0,0.0,0.0,0.0,0.0,0.0,0.0,0.0,0.0,0.0,0.0,0.0,0.0,0.0,0.0,0.0,0.0,0.0,0.0,0.0,0.0,0.0,0.0,0.0,0.0,0.0,0.0,0.0,0.0,0.0,0.0,0.0,0.0,0.0,0.0,0.0,0.0,0.0,0.0,0.0,0.0,0.0,0.0,0.0,0.0,0.0,0.0,0.0,0.0,0.0,0.0,0.0,0.0,0.0,0.0,0.0,0.0,0.0,0.0,0.0,0.0,0.0,0.0,0.0,0.0,0.0,0.0,0.0,0.0,0.0,0.0,0.0,0.0,0.0,0.0,0.0,0.0,0.0,0.0,0.0,0.0,0.0,0.0,0.0,0.0,0.0,0.0,0.0,0.0,0.0,0.0,0.0,0.0,0.0,0.0,0.0,0.0,0.0,0.0,0.0,0.0,0.0,0.0,0.0,0.0,0.0,0.0,0.0,0.0,0.0,0.0,0.0,0.0,0.0,0.0,0.0,0.0,0.0,0.0,0.0,0.0,0.0,0.0,0.0,0.0,0.0,0.0,0.0,0.0,0.0,0.0,0.0,0.0,0.0,0.0,0.0,0.0,0.0,0.0,0.0,0.0,0.0,0.0,0.0,0.0,0.0,0.0,0.0,0.0,0.0,0.0,0.0,0.0,0.0,0.0,0.0,0.0,0.0,0.0,0.0,0.0,0.0,0.0,0.0,0.0,0.0,0.0,0.0,0.0,0.0,0.0,0.0,0.0,0.0,0.0,0.0,0.0,0.0,0.0,0.0,0.0,0.0,0.0,0.0,0.0,0.0,0.0,0.0,0.0,0.0,0.0,0.0,0.0,0.0,0.0,0.0,0.0,0.0,0.0,0.0,0.0,0.0,0.0,0.0,0.0,0.0,0.0,0.0,0.0,0.0,0.0,0.0,0.0,0.0,0.0,0.0,0.0,0.0,0.0,0.0,0.0,0.0,0.0,0.0,0.0,0.0,0.0,0.0,0.0,0.0,0.0,0.0,0.0,0.0,0.0,0.0,0.0,0.0,0.0,0.0,0.0,0.0,0.0,0.0,0.0,0.0,0.0,0.0,0.0,0.0,0.0,0.0,0.0,0.0,0.0,0.0,0.0,0.0,0.0,0.0,0.0,0.0,0.0,0.0,0.0,0.0,0.0,0.0,0.0,0.0,0.0,0.0,0.0,0.0,0.0,0.0,0.0,0.0,0.0,0.0,0.0,0.0,0.0,0.0,0.0,0.0,0.0,0.0,0.0,0.0,0.0,0.0,0.0,0.0,0.0,0.0,0.0,0.0,0.0,0.0,0.0,0.0,0.0,0.0,0.0,0.0,0.0,0.0,0.0,0.0,0.0,0.0,0.0,0.0,0.0,0.0,0.0,0.0,0.0,0.0,0.0,0.0,0.0,0.0,0.0,0.0,0.0,0.0,0.0,0.0,0.0,0.0,0.0,0.0,0.0,0.0,0.0,0.0,0.0,0.0,0.0,0.0,0.0,0.0,0.0,0.0,0.0,0.0,0.0,0.0,0.0,0.0,0.0,0.0,0.0,0.0,0.0,0.0,0.0,0.0,0.0,0.0,0.0,0.0,0.0,0.0,0.0,0.0,0.0,0.0,0.0,0.0,0.0,0.0,0.0,0.0,0.0,0.0,0.0,0.0,0.0,0.0,0.0,0.0,0.0,0.0,0.0,0.0,0.0,0.0,0.0,0.0,0.0,0.0,0.0,0.0,0.0,0.0,0.0,0.0,0.0,0.0,0.0,0.0,0.0,0.0,0.0,0.0,0.0,0.0,0.0,0.0,0.0,0.0,0.0,0.0,0.0,0.0,0.0,0.0,0.0,0.0,0.0,0.0,0.0,0.0,0.0,0.0,0.0,0.0,0.0,0.0,0.0,0.0,0.0,0.0,0.0,0.0,0.0,0.0,0.0,0.0,0.0,0.0,0.0,0.0,0.0,0.0,0.0,0.0,0.0,0.0,0.0,0.0,0.0,0.0,0.0,0.0,0.0,0.0,0.0,0.0,0.0,0.0,0.0,0.0,0.0,0.0,0.0,0.0,0.0,0.0,0.0,0.0,0.0,0.0,0.0,0.0,0.0,0.0,0.0,0.0,0.0,0.0,0.0,0.0,0.0,0.0,0.0,0.0,0.0,0.0,0.0,0.0,0.0,0.0,0.0,0.0,0.0,0.0,0.0,0.0,0.0,0.0,0.0,0.0,0.0,0.0,0.0,0.0,0.0,0.0,0.0,0.0,0.0,0.0,0.0,0.0,0.0,0.0,0.0,0.0,0.0,0.0,0.0,0.0,0.0,0.0,0.0,0.0,0.0,0.0,0.0,0.0,0.0,0.0,0.0,0.0,0.0,0.0,0.0,0.0,0.0,0.0,0.0,0.0,0.0,0.0,0.0,0.0,0.0,0.0,0.0,0.0,0.0,0.0,0.0,0.0,0.0,0.0,0.0,0.0,0.0,0.0,0.0,0.0,0.0,0.0,0.0,0.0,0.0,0.0,0.0,0.0,0.0,0.0,0.0,0.0,0.0,0.0,0.0,0.0,0.0,0.0,0.0,0.0,0.0,0.0,0.0,0.0,0.0,0.0,0.0,0.0,0.0,0.0,0.0,0.0,0.0,0.0,0.0,0.0,0.0,0.0,0.0,0.0,0.0,0.0,0.0,0.0,0.0,0.0,0.0,0.0,0.0,0.0,0.0,0.0,0.0,0.0,0.0,0.0,0.0,0.0,0.0,0.0,0.0,0.0,0.0,0.0,0.0,0.0,0.0,0.0,0.0,0.0,0.0,0.0,0.0,0.0,0.0,0.0,0.0,0.0,0.0,0.0,0.0,0.0,0.0,0.0,0.0,0.0,0.0,0.0,0.0,0.0,0.0,0.0,0.0,0.0,0.0,0.0,0.0,0.0,0.0,0.0,0.0,0.0,0.0,0.0,0.0,0.0,0.0,0.0,0.0,0.0,0.0,0.0,0.0,0.0,0.0,0.0,0.0,0.0,0.0,0.0,0.0,0.0,0.0,0.0,0.0,0.0,0.0,0.0,0.0,0.0,0.0,0.0,0.0,0.0,0.0,0.0,0.0,0.0,0.0,0.0,0.0,0.0,0.0,0.0,0.0,0.0,0.0,0.0,0.0,0.0,0.0,0.0,0.0,0.0,0.0,0.0,0.0,0.0,0.0,0.0,0.0,0.0,0.0,0.0,0.0,0.0,0.0,0.0,0.0,0.0,0.0,0.0,0.0,0.0,0.0,0.0,0.0,0.0,0.0,0.0,0.0,0.0,0.0,0.0,0.0,0.0,0.0,0.0,0.0,0.0,0.0,0.0,0.0,0.0,0.0,0.0,0.0,0.0,0.0,0.0,0.0,0.0,0.0,0.0,0.0,0.0,0.0,0.0,0.0,0.0,0.0,0.0,0.0,0.0,0.0,0.0,0.0,0.0,0.0,0.0,0.0,0.0,0.0,0.0,0.0,0.0,0.0,0.0,0.0,0.0,-2.3125,0.0,0.0,0.0,0.0,0.0,0.0,0.0,0.0,0.0,0.0,0.0,0.0,0.0,0.0,0.0,0.0,0.0,0.0,0.0,0.0,0.0,0.0,0.0,0.0,-1.3476,-1.3566,-1.3569,-1.329,-1.2901,-1.2351,0.0,0.0,0.0,0.0,0.0,-1.147,-1.185,-1.2416,-1.3196,-1.4468,-1.5425,-1.6042,-1.5802,-1.5229,-1.4422,0.0,0.0,0.0,0.0,0.0,0.0,0.0,0.0,0.0,0.0,0.0,0.0,0.0,0.0,0.0,0.0,0.0,0.0,0.0,0.0,0.0,0.0,0.0,0.0,0.0,0.0,0.0,0.0,0.0,0.0,0.0,0.0,0.0,0.0,0.0,0.0,0.0,0.0,0.0,0.0,0.0,0.0,0.0,0.0,0.0,0.0,0.0,0.0,0.0,0.0,0.0,0.0,0.0,0.0,0.0,0.0,0.0,0.0,0.0,0.0,0.0,0.0,0.0,0.0,0.0,0.0,0.0,0.0,0.0,0.0,0.0,-2.4245,0.0,0.0,0.0,0.0,0.0,0.0,0.0,0.0,0.0,0.0,0.0,0.0,0.0,0.0,0.0,0.0,0.0,0.0,0.0,0.0,0.0,-1.3123,-1.3941,-1.4279,-1.4593,-1.498,-1.4429,-1.3868,-1.3423,-1.289,0.0,0.0,0.0,-1.2069,-1.2207,-1.3279,-1.4261,-1.5132,-1.6539,-1.7871,-1.9132,-1.962,-1.8708,-1.6678,-1.6943,0.0,0.0,0.0,0.0,0.0,0.0,0.0,0.0,0.0,0.0,0.0,0.0,0.0,0.0,0.0,0.0,0.0,0.0,0.0,0.0,0.0,0.0,0.0,0.0,0.0,0.0,0.0,0.0,0.0,0.0,0.0,0.0,0.0,0.0,0.0,0.0,0.0,0.0,0.0,0.0,0.0,0.0,0.0,0.0,0.0,0.0,0.0,0.0,0.0,0.0,0.0,0.0,0.0,0.0,0.0,0.0,0.0,0.0,0.0,0.0,0.0,0.0,0.0,-3.4055,-3.3863,-3.314,-3.1845,-3.1446,-3.1674,-2.9764,-2.86,-2.7854,-2.5873,0.0,0.0,0.0,0.0,0.0,0.0,0.0,0.0,0.0,0.0,0.0,0.0,0.0,0.0,0.0,0.0,0.0,0.0,0.0,-1.3758,-1.4039,-1.4431,-1.5087,-1.6182,-1.4819,-1.3988,-1.4128,-1.3178,0.0,0.0,-1.2517,-1.3042,-1.3455,-1.414,-1.4989,-1.6027,-1.7997,-1.9459,-2.0377,-2.0958,-2.1094,-2.0853,-1.97,-1.9099,-1.8835,0.0,0.0,0.0,0.0,0.0,0.0,0.0,0.0,0.0,0.0,0.0,0.0,0.0,0.0,0.0,0.0,0.0,0.0,0.0,0.0,0.0,0.0,0.0,0.0,0.0,0.0,0.0,0.0,0.0,0.0,0.0,0.0,0.0,0.0,0.0,0.0,0.0,0.0,0.0,0.0,0.0,-2.0041,-2.2062,0.0,0.0,0.0,0.0,0.0,0.0,0.0,0.0,0.0,0.0,0.0,0.0,0.0,-3.4309,-3.4374,-3.6832,-3.8009,-3.7899,-3.897,-3.9101,-3.8272,-3.7389,-3.6679,-3.5999,-3.4509,0.0,-2.9257,-2.8931,0.0,0.0,0.0,0.0,0.0,0.0,0.0,0.0,0.0,0.0,0.0,0.0,0.0,0.0,0.0,0.0,0.0,0.0,0.0,0.0,0.0,-1.5662,-1.6338,-1.7578,-1.6585,-1.5726,-1.528,-1.4676,-1.3889,-1.2868,-1.3558,-1.3942,-1.3942,-1.522,-1.6788,-1.8613,-1.9982,-2.1046,-2.1786,-2.2405,-2.2903,-2.3304,-2.27,-2.1585,-2.0143,-1.8924,0.0,0.0,0.0,0.0,0.0,0.0,0.0,0.0,0.0,0.0,0.0,0.0,0.0,0.0,0.0,0.0,0.0,0.0,0.0,0.0,0.0,0.0,0.0,0.0,0.0,0.0,0.0,0.0,0.0,0.0,0.0,0.0,0.0,0.0,0.0,0.0,0.0,0.0,0.0,-1.9928,-2.2746,-2.3285,-2.5497,-2.6688,0.0,0.0,0.0,0.0,0.0,0.0,0.0,0.0,0.0,-3.5498,-3.6847,-3.7901,-3.8609,-4.0118,-4.087,-4.0921,-4.1452,-4.15,-4.111,-3.9776,-3.8972,-3.8553,-3.6629,-3.4936,-3.3349,-3.1716,-3.0147,-2.8777,0.0,0.0,0.0,0.0,-2.86,-2.8947,0.0,0.0,0.0,0.0,0.0,0.0,0.0,0.0,0.0,0.0,0.0,0.0,-1.6484,-1.6799,-1.7453,-1.884,-1.7921,-1.7003,0.0,0.0,-1.5025,-1.3857,-1.4456,-1.4772,-1.4749,-1.659,-1.8399,-2.0154,-2.1155,-2.1927,-2.2512,-2.312,-2.3754,-2.4335,-2.4335,-2.3364,-2.1645,-2.0831,-1.9405,0.0,0.0,0.0,0.0,0.0,0.0,0.0,0.0,0.0,0.0,0.0,0.0,0.0,0.0,0.0,0.0,0.0,0.0,0.0,0.0,0.0,0.0,0.0,0.0,0.0,0.0,0.0,0.0,0.0,0.0,0.0,0.0,0.0,0.0,0.0,0.0,0.0,0.0,-2.2482,-2.5061,-2.4713,-2.7966,-2.9695,0.0,0.0,0.0,0.0,0.0,0.0,-3.5186,-3.582,-3.7002,-3.8888,-3.9972,-4.094,-4.1848,-4.2355,-4.2602,-4.2602,-4.2602,-4.2368,-4.1879,-4.0606,-3.9769,-3.9275,-3.7593,-3.6836,-3.6632,-3.3959,-3.225,-3.126,-3.0635,-3.0059,-2.9631,-3.069,-3.1192,-3.1419,0.0,0.0,0.0,0.0,0.0,0.0,0.0,0.0,0.0,0.0,0.0,-1.6181,-1.7229,0.0,-1.813,-1.9788,-1.7928,-1.69,0.0,0.0,-1.5125,-1.4925,-1.5027,-1.5519,-1.6438,-1.8303,-1.9286,-1.9253,-2.0715,-2.1589,-2.1941,-2.2626,-2.3194,-2.3655,-2.3655,-2.3939,-2.4321,-2.3071,-2.1754,-2.0329,0.0,0.0,0.0,0.0,0.0,0.0,0.0,0.0,0.0,0.0,0.0,0.0,0.0,0.0,0.0,0.0,0.0,0.0,0.0,0.0,0.0,0.0,0.0,0.0,0.0,0.0,0.0,0.0,0.0,0.0,0.0,0.0,0.0,0.0,0.0,0.0,0.0,0.0,0.0,-2.729,-3.1006,0.0,0.0,0.0,0.0,-3.4817,-3.533,-3.6738,-3.9278,-3.9613,-4.0525,-4.2279,-4.2597,-4.2659,-4.2556,-4.2586,-4.2602,-4.2602,-4.2602,-4.1715,-4.0124,-4.0046,-3.9143,-3.7612,-3.7487,-3.7445,-3.7296,-3.5425,-3.4301,-3.3677,-3.3118,-3.2558,-3.211,-3.2735,-3.3295,-3.3668,0.0,0.0,0.0,-1.1174,-1.0956,-1.1249,-1.2375,-1.2225,-1.2457,-1.3838,-1.4808,-1.5857,0.0,-1.7894,-1.8871,-2.0207,-1.8795,-1.7928,-1.8157,0.0,-1.6166,-1.6593,-1.6675,-1.7281,-1.8497,-1.9097,-1.982,-2.0694,-2.1075,-2.1947,-2.3262,-2.3454,-2.4252,-2.5525,-2.5525,-2.5659,-2.5749,-2.3616,-2.2418,-2.1819,-1.9794,-1.8194,0.0,0.0,0.0,0.0,0.0,0.0,0.0,0.0,0.0,0.0,0.0,0.0,0.0,0.0,0.0,0.0,0.0,0.0,0.0,0.0,0.0,0.0,0.0,0.0,0.0,0.0,0.0,0.0,0.0,0.0,0.0,0.0,0.0,0.0,0.0,0.0,0.0,-3.0865,-3.4009,0.0,-3.4244,-3.536,-3.6677,-3.7854,-3.8631,-3.9774,-4.1472,-4.174,-4.2266,-4.3223,-4.3291,-4.3723,-4.451,-4.4095,-4.4095,-4.4526,-4.4079,-4.3267,-4.208,-4.1536,-4.0624,-3.9448,-3.8505,-3.8055,-3.7987,-3.6957,-3.6171,-3.5601,-3.5004,-3.4638,-3.4489,-3.4692,-3.4896,-3.5006,-1.1691,-1.1652,0.0,-1.1155,-1.0873,-1.1087,-1.2249,-1.2007,-1.2385,-1.4292,-1.5178,-1.6163,-1.7482,-1.8311,-1.913,-2.0003,-1.9069,-1.8502,-1.865,0.0,-1.7232,-1.7677,-1.7986,-1.865,-1.9742,-1.9936,-2.0488,-2.1433,-2.1524,-2.2191,-2.3364,-2.3506,-2.4282,-2.5585,-2.5585,-2.5839,-2.6123,-2.4163,-2.3325,-2.3191,-2.1635,-2.0228,-1.8909,0.0,0.0,0.0,0.0,0.0,0.0,0.0,0.0,0.0,0.0,0.0,0.0,0.0,0.0,0.0,0.0,0.0,0.0,0.0,0.0,0.0,0.0,0.0,0.0,0.0,0.0,0.0,0.0,0.0,0.0,0.0,0.0,0.0,0.0,0.0,-3.3001,-3.353,-3.6566,-3.8129,-3.694,-3.8099,-3.9424,-4.0516,-4.1179,-4.1937,-4.2879,-4.3123,-4.3561,-4.4255,-4.4324,-4.4863,-4.5911,-4.548,-4.548,-4.5926,-4.4947,-4.4065,-4.3156,-4.2022,-4.1043,-4.0087,-3.9134,-3.8708,-3.8667,-3.8027,-3.7582,-3.7134,-3.6334,-3.6008,-3.5995,-3.5791,-3.571,-3.5642,-1.1097,-1.1097,-1.1097,-1.1085,-1.0753,-1.082,-1.1751,-1.1575,-1.2403,-1.5403,-1.6321,-1.7219,-1.8561,-1.8706,-1.8859,-1.9212,-1.8682,-1.8521,-1.8987,-1.8571,-1.8257,-1.8144,-1.8859,-1.9534,-2.0118,-2.0913,-2.1354,-2.1367,-2.199,-2.2243,-2.2189,-2.2698,-2.3194,-2.3633,-2.3684,-2.4418,-2.5576,-2.4963,-2.4694,-2.4582,-2.3924,-2.2862,-2.1575,0.0,0.0,0.0,0.0,0.0,0.0,0.0,0.0,0.0,0.0,0.0,0.0,0.0,0.0,0.0,0.0,0.0,0.0,0.0,0.0,0.0,0.0,0.0,0.0,0.0,0.0,0.0,0.0,0.0,0.0,0.0,0.0,0.0,-3.0436,-3.314,-3.5156,-3.5309,-3.8606,-4.0386,-3.9179,-4.0758,-4.2096,-4.2762,-4.2906,-4.3144,-4.3639,-4.3849,-4.4489,-4.5588,-4.5812,-4.6137,-4.6619,-4.6603,-4.6603,-4.6619,-4.5062,-4.3864,-4.2962,-4.1341,-4.0128,-3.9305,-3.9305,-3.9305,-3.9251,-3.8681,-3.845,-3.8328,-3.7107,-3.6619,-3.6537,-3.5954,-3.5696,-3.5642,-1.1097,-1.1097,-1.1015,-1.0777,-1.0621,-1.0794,-1.1693,-1.2056,-1.3018,-1.5222,-1.6368,-1.7451,-1.8716,-1.9246,-1.9669,-2.0105,-1.9488,-1.9279,-1.9694,0.0,-1.8422,-1.9007,-1.994,-2.0642,-2.1121,-2.1626,-2.2145,-2.267,-2.2457,-2.2974,-2.4112,-2.3826,-2.3995,-2.4587,-2.5414,-2.5806,-2.5869,-2.651,-2.6376,-2.5671,-2.4716,-2.3457,-2.2067,0.0,0.0,0.0,0.0,0.0,0.0,0.0,0.0,0.0,0.0,0.0,0.0,0.0,0.0,0.0,0.0,0.0,0.0,0.0,0.0,0.0,0.0,0.0,0.0,0.0,0.0,0.0,0.0,0.0,0.0,0.0,-3.1073,-3.3167,-3.2824,-3.5248,-3.7355,-3.8212,-4.0214,-4.1368,-4.0924,-4.18,-4.2659,-4.3343,-4.353,-4.4056,-4.501,-4.5225,-4.5665,-4.6296,-4.6405,-4.6713,-4.7327,-4.6834,-4.685,-4.7327,-4.5701,-4.4267,-4.2976,-4.1809,-4.0544,-3.9305,-3.9305,-3.9305,-3.9292,-3.9129,-3.9061,-3.8939,-3.7745,-3.6999,-3.6578,-3.6415,-3.5885,-3.5236,-1.1097,-1.1097,-1.0991,-1.0656,-1.0684,-1.0978,-1.1659,-1.2383,-1.3535,-1.544,-1.6706,-1.7799,-1.8796,-1.9446,-1.9888,-2.0093,-1.9682,-1.9491,-1.9661,0.0,-1.8895,-1.9635,0.0,-2.1402,-2.2109,-2.242,-2.2903,-2.3561,-2.3461,-2.4055,-2.5277,-2.4866,-2.5005,-2.5633,-2.6283,-2.6614,-2.6683,-2.7624,-2.7493,-2.6543,-2.5616,-2.4346,-2.2856,-2.2194,-2.1342,-2.035,-1.9512,-1.8713,-1.7974,-1.7295,0.0,0.0,0.0,0.0,0.0,0.0,0.0,0.0,0.0,0.0,0.0,0.0,0.0,0.0,0.0,0.0,0.0,0.0,0.0,0.0,0.0,0.0,0.0,0.0,-3.428,-3.623,-3.6258,-3.7712,-3.9115,-4.0068,-4.1205,-4.1965,-4.2098,-4.2726,-4.3368,-4.3978,-4.4452,-4.5,-4.558,-4.5982,-4.6445,-4.6988,-4.7019,-4.7342,-4.8019,-4.7635,-4.7431,-4.741,-4.5836,-4.4425,-4.3111,-4.1901,-4.0725,0.0,-3.9671,-3.9522,-3.9305,-3.9305,-3.9305,0.0,0.0,0.0,0.0,0.0,-3.6315,-3.5445,-1.1123,-1.112,-1.1031,-1.0763,-1.0939,-1.1259,-1.1725,-1.2587,-1.3894,-1.5865,-1.7101,-1.8097,-1.8828,-1.9384,-1.9673,-1.962,-1.9504,-1.9381,0.0,0.0,0.0,-1.9995,-2.0873,-2.1826,-2.2887,-2.3199,-2.3639,-2.4217,-2.4667,-2.5212,-2.5799,-2.5668,-2.5905,-2.6402,-2.6621,-2.6983,-2.7446,-2.8308,-2.8047,-2.707,-2.6497,-2.5248,-2.3656,-2.271,-2.1845,-2.108,-2.0564,-1.9398,-1.8096,-1.7904,0.0,0.0,0.0,0.0,0.0,0.0,0.0,0.0,0.0,0.0,0.0,0.0,0.0,0.0,0.0,0.0,0.0,0.0,0.0,0.0,0.0,0.0,0.0,0.0,-3.6953,-3.8928,-3.9758,-4.0049,-4.0431,-4.1039,-4.1791,-4.2408,-4.2802,-4.3557,-4.4211,-4.4725,-4.5426,-4.5843,-4.5842,0.0,0.0,0.0,0.0,-4.784,-4.8438,-4.8355,-4.7861,-4.7016,-4.5566,-4.4316,-4.3339,-4.1887,-4.0879,-4.0296,-4.0296,-3.9956,-3.94,-3.94,-3.9359,-3.9237,-3.8654,-3.8423,-3.8298,-3.7716,-3.6893,-3.6087,-1.1338,-1.1227,-1.1242,-1.1381,-1.1229,-1.1375,-1.2231,-1.283,-1.3905,-1.5852,-1.6827,-1.7735,-1.8799,-1.8996,-1.9268,-1.9723,-1.9628,-1.9646,0.0,0.0,0.0,0.0,0.0,-2.191,-2.2358,-2.37,-2.4541,-2.4835,-2.5341,-2.5648,-2.5728,-2.5692,-2.5503,-2.5217,-2.6737,-2.6928,-2.6279,-2.8203,-2.81,-2.6624,-2.6609,-2.5383,-2.3493,-2.2983,-2.2181,-2.1363,-2.1452,-2.0604,-1.9422,-1.9384,-1.8685,-1.7823,-1.7798,0.0,0.0,0.0,0.0,0.0,0.0,0.0,0.0,0.0,0.0,0.0,0.0,0.0,0.0,0.0,0.0,0.0,0.0,0.0,0.0,-3.6615,-3.8262,-3.9554,-4.0266,-4.0662,-4.0961,-4.1102,-4.2316,-4.3099,-4.3063,-4.407,-4.4967,-4.561,-4.5665,-4.6104,-4.7157,-4.7342,-4.7711,-4.8404,-4.7664,-4.7342,-4.7463,-4.6711,-4.627,-4.6048,0.0,0.0,-4.3339,-4.2326,-4.1503,-4.0947,-4.0947,-4.058,-4.0024,-4.0024,-3.9739,-3.9237,-3.8654,-3.8423,-3.8312,-3.7545,-3.6978,-3.6535,-1.2176,-1.2152,-1.2099,-1.2088,-1.2098,-1.2208,-1.256,-1.3234,-1.4067,-1.5113,-1.6353,-1.7379,-1.7983,-1.8558,-1.9028,-1.9329,-1.8964,0.0,0.0,0.0,0.0,0.0,0.0,0.0,0.0,0.0,-2.4515,-2.489,-2.5797,-2.6546,-2.7097,-2.68,-2.6664,-2.6695,-2.7443,-2.7462,-2.7004,-2.8614,-2.8299,-2.6737,-2.6582,-2.5361,-2.3557,-2.3226,-2.2305,-2.124,-2.1434,-2.0709,-1.9708,-1.9773,-1.9275,-1.8602,-1.8602,-1.8306,-1.7885,0.0,0.0,0.0,0.0,0.0,0.0,0.0,0.0,0.0,0.0,0.0,0.0,0.0,0.0,-3.1189,-3.394,0.0,-3.6985,-3.8292,-3.9321,-4.0139,-4.0581,-4.0814,-4.1075,-4.1432,-4.2525,-4.331,-4.3454,-4.4233,-4.5039,-4.5681,-4.5973,-4.6327,-4.6856,-4.7236,-4.7344,-4.7189,-4.6755,-4.6491,-4.6491,-4.6048,-4.5553,-4.5038,-4.4531,-4.3878,-4.3144,-4.2665,-4.2127,-4.1557,-4.1557,-4.1042,-4.016,-3.9861,-3.9563,-3.9278,-3.8979,-3.8857,-3.8786,-3.8401,-3.793,-3.732,-1.3187,-1.3345,-1.3291,-1.2955,-1.3038,-1.3132,-1.2988,-1.3591,-1.4157,-1.4351,-1.566,-1.6653,-1.6785,-1.7709,-1.8464,0.0,0.0,0.0,0.0,0.0,0.0,0.0,0.0,0.0,0.0,0.0,0.0,0.0,0.0,0.0,-2.8306,-2.7803,-2.783,-2.8293,-2.8052,-2.7818,-2.7715,-2.8604,-2.8074,-2.6593,-2.6401,-2.524,-2.3633,-2.3476,-2.2415,-2.1017,-2.1264,-2.0585,-1.9642,-1.9888,-1.9526,-1.8972,-1.8987,-1.8672,-1.831,-1.8362,-1.8127,0.0,0.0,0.0,0.0,0.0,0.0,0.0,0.0,0.0,-2.8045,-3.2103,-3.3371,-3.4437,-3.666,-3.7969,-3.8923,-3.9582,-4.0136,-4.0558,-4.073,-4.0765,-4.1047,-4.1674,-4.2552,-4.3307,-4.381,-4.4483,-4.5049,-4.5554,-4.615,-4.6401,-4.6154,-4.6647,-4.6579,-4.5824,-4.5598,-4.5508,-4.5508,-4.5326,-4.4823,-4.4045,-4.4045,-4.3648,-4.2887,-4.2887,-4.2629,-4.2154,-4.1937,-4.1272,-4.0309,-3.959,-3.9305,-3.9305,-3.9305,-3.9305,-3.9305,-3.9305,-3.883,-3.8054,-1.3984,-1.4413,-1.4597,-1.4027,-1.3666,-1.3545,-1.38,-1.3749,-1.3796,-1.4167,-1.45,-1.4881,-1.5376,-1.5961,-1.6944,-1.8511,0.0,0.0,0.0,0.0,0.0,0.0,0.0,0.0,0.0,0.0,0.0,0.0,0.0,0.0,0.0,0.0,0.0,-2.763,-2.77,-2.7237,-2.6453,-2.6964,-2.6418,-2.5262,-2.5778,-2.4998,-2.3549,-2.3756,-2.2652,-2.1091,-2.1684,-2.0894,-1.9682,-2.0308,-1.9759,-1.8851,-1.8972,-1.8883,-1.8756,-1.8876,0.0,-1.837,-1.9358,-2.0245,-2.1433,-2.363,-2.4368,-2.5741,0.0,0.0,-3.1412,-3.4863,-3.561,-3.6406,-3.8734,-3.9308,-3.9598,-4.0274,-4.0443,-4.0489,-4.0524,-4.0696,-4.0993,-4.158,-4.2512,-4.3343,-4.3993,-4.5089,-4.5687,-4.5515,-4.5988,-4.6126,-4.5857,-4.5929,-4.5913,-4.5779,-4.4946,-4.4452,-4.4452,-4.3648,-4.3163,-4.3067,-4.3067,-4.3018,-4.2887,-4.2887,-4.2846,-4.2724,-4.1679,-4.1137,-4.0933,-3.978,-3.9305,-3.9305,-3.9305,-3.9305,-3.9305,-3.9305,-3.8997,-3.8394,-1.4556,-1.4887,-1.5016,-1.4684,-1.4387,-1.4271,-1.444,-1.4192,-1.4007,-1.4024,-1.435,-1.4725,-1.5158,-1.5999,-1.694,-1.8003,-1.8356,0.0,-1.9794,0.0,0.0,0.0,0.0,0.0,0.0,0.0,0.0,0.0,0.0,0.0,0.0,0.0,0.0,0.0,0.0,0.0,-2.5717,-2.6229,-2.5884,-2.5065,-2.5597,-2.4683,-2.2983,-2.3232,-2.2288,-2.0968,-2.1732,-2.1323,0.0,0.0,-2.0055,-1.9356,-1.9093,-1.8887,-1.8835,-1.9336,-1.9482,0.0,-2.0957,-2.2176,-2.3462,-2.4874,-2.6501,-2.8552,-3.1556,-3.2295,-3.3272,-3.666,-3.724,-3.776,-3.9733,-4.0074,-4.0166,0.0,-4.0843,-4.1001,-4.0551,-4.1001,-4.1442,-4.1591,-4.237,-4.3164,-4.3753,-4.4622,-4.5185,-4.532,-4.5525,-4.54,-4.4949,-4.4915,-4.4684,-4.4106,-4.4041,-4.4029,-4.4029,-4.3633,-4.3402,-4.3402,-4.305,-4.2887,-4.2887,-4.2887,-4.2887,-4.2833,-4.2005,-4.1435,-4.1055,-4.0173,-3.9617,-3.9305,-3.9305,-3.9305,-3.9305,-3.9305,-3.9172,-3.8827,-1.5003,-1.5148,-1.5193,-1.5103,-1.4965,-1.4839,-1.4777,-1.4572,-1.4373,-1.4263,-1.4599,-1.5052,-1.5625,-1.6327,-1.7046,-1.7711,-1.7932,-1.844,0.0,-1.9868,0.0,0.0,0.0,0.0,0.0,0.0,0.0,0.0,0.0,0.0,0.0,0.0,0.0,0.0,0.0,0.0,0.0,0.0,-2.505,-2.4513,-2.495,-2.4017,-2.2413,-2.2763,-2.2077,-2.1006,-2.1746,-2.1589,0.0,0.0,-2.0292,-1.9863,-1.9353,-1.9207,-1.9359,-2.0067,-2.0707,-2.1406,-2.2349,-2.3776,-2.5293,-2.6425,-2.8605,-3.0874,-3.2633,-3.3484,-3.4668,-3.7377,-3.7989,-3.8461,-3.9963,-4.0366,-4.0489,-4.0489,-4.1124,-4.134,-4.0597,-4.1249,-4.1689,-4.1414,-4.2068,-4.2688,-4.3085,-4.3953,-4.4512,-4.4415,-4.458,-4.4457,-4.3942,-4.3904,-4.36,-4.2935,-4.347,-4.3818,-4.3818,-4.3818,-4.3818,-4.3805,-4.3172,-4.2887,-4.2887,-4.2887,-4.2887,-4.286,-4.2263,-4.1666,-4.1069,-4.0445,-3.9834,-3.9305,-3.9305,-3.9305,-3.9305,-3.9305,-3.9247,-3.9033,-1.5298,-1.5298,-1.5298,-1.5298,-1.5298,-1.5147,-1.4761,-1.4699,-1.4798,-1.5117,-1.5165,-1.5624,-1.6834,-1.6631,-1.684,-1.7891,-1.8234,-1.8608,-1.9179,-2.0361,0.0,0.0,0.0,0.0,0.0,0.0,0.0,0.0,0.0,0.0,0.0,0.0,0.0,0.0,0.0,0.0,0.0,0.0,0.0,0.0,0.0,0.0,-2.1898,-2.2626,-2.2199,-2.1253,-2.1793,0.0,0.0,0.0,-2.0454,-2.0305,-1.9835,-2.009,0.0,-2.1263,-2.2284,-2.3224,-2.3253,-2.4778,-2.6888,-2.9204,-3.0928,-3.2507,-3.423,-3.503,-3.5737,-3.6821,-3.7539,-3.8309,-3.9349,-4.0043,-4.0489,-4.0489,-4.1124,-4.134,-4.0597,-4.1249,-4.1573,-4.0907,-4.1459,-4.1938,-4.1969,-4.338,-4.3796,-4.2564,-4.3079,-4.3296,-4.2943,-4.2935,-4.2935,-4.2887,-4.347,-4.3818,-4.3818,-4.3818,-4.3818,-4.3805,-4.3172,-4.2887,-4.2887,-4.2887,-4.2887,-4.286,-4.2263,-4.1666,-4.1069,-4.0445,-3.9834,-3.9305,-3.9305,-3.9305,-3.9305,-3.9305,-3.9158,-3.8827,-1.5313,-1.5617,-1.5762,-1.531,-1.5569,-1.5651,-1.5097,-1.5071,-1.5208,-1.5496,-1.6029,0.0,0.0,0.0,0.0,0.0,-1.8165,-1.8526,-1.9154,-1.9771,0.0,0.0,0.0,0.0,0.0,0.0,0.0,0.0,0.0,0.0,0.0,0.0,0.0,0.0,0.0,0.0,0.0,0.0,0.0,0.0,0.0,0.0,-2.2259,-2.2807,-2.2255,-2.1269,0.0,0.0,0.0,0.0,-2.014,-2.0393,-1.9956,0.0,0.0,-2.2205,-2.3197,-2.408,-2.5311,-2.6984,-2.8809,-3.0587,-3.2361,-3.4008,-3.5267,-3.5584,-3.5963,-3.7097,-3.7353,-3.7638,-3.8657,-3.9367,-3.9828,-3.9828,-4.1322,-4.2195,-4.1469,-4.2618,-4.3243,-4.2467,-4.2612,0.0,-4.1784,-4.2465,0.0,-4.2669,-4.2713,-4.28,-4.2881,-4.2887,-4.2887,-4.2887,-4.3864,-4.4393,-4.4393,-4.4393,-4.4393,-4.4379,-4.3375,-4.2887,-4.2887,-4.2887,-4.2887,-4.2873,-4.2683,-4.2032,-4.1096,-4.0892,-4.0214,-3.9305,-3.9305,-3.9305,-3.9305,-3.9305,-3.9158,-3.8836,-1.5604,-1.5921,-1.6066,-1.5628,-1.5887,0.0,0.0,0.0,0.0,0.0,0.0,0.0,0.0,0.0,0.0,0.0,0.0,-1.8495,-1.8746,-1.9119,0.0,0.0,0.0,0.0,0.0,0.0,0.0,0.0,0.0,0.0,0.0,0.0,0.0,0.0,0.0,0.0,0.0,0.0,0.0,0.0,0.0,0.0,-2.1892,-2.2425,-2.2159,0.0,0.0,0.0,0.0,0.0,-2.0421,-2.085,-2.0593,-2.11,-2.2014,-2.3224,-2.4258,-2.5432,-2.7043,-2.8601,-3.018,-3.1775,-3.3333,-3.4679,-3.5531,-3.5537,-3.5572,-3.6425,-3.6485,-3.6651,-3.7597,-3.8338,-3.8954,-3.9514,-4.1241,-4.2384,-4.1938,-4.3341,-4.408,-4.3123,-4.3038,-4.2686,-4.1831,-4.1876,0.0,-4.2295,-4.2349,-4.2564,-4.2881,-4.2984,-4.3079,-4.3199,-4.4176,-4.4705,-4.4705,-4.4705,-4.4488,-4.4054,-4.3267,-4.2887,-4.2887,-4.2887,-4.2887,-4.2887,-4.2887,-4.2344,-4.1408,-4.1205,-4.0526,-3.959,-3.9386,-3.9305,-3.9305,-3.9305,-3.9158,-3.8863,-1.6161,-1.6227,-1.624,0.0,0.0,0.0,0.0,0.0,0.0,0.0,0.0,0.0,0.0,0.0,0.0,0.0,0.0,0.0,-1.807,0.0,0.0,0.0,0.0,0.0,0.0,0.0,0.0,0.0,0.0,0.0,0.0,0.0,0.0,0.0,0.0,0.0,0.0,0.0,0.0,0.0,0.0,0.0,-2.0962,-2.1568,0.0,0.0,0.0,0.0,0.0,0.0,0.0,0.0,0.0,-2.2914,-2.4267,-2.4371,-2.5593,-2.7186,-2.8478,-2.9701,-3.1039,-3.2801,-3.3864,-3.4582,-3.5082,-3.4934,-3.4769,-3.491,-3.5034,-3.5355,-3.6168,-3.6954,-3.7926,-3.9404,-4.0926,-4.1938,-4.2147,-4.3525,-4.4096,0.0,0.0,0.0,0.0,0.0,0.0,-4.1479,0.0,-4.2535,-4.2908,-4.3128,-4.345,-4.3805,-4.4379,-4.4705,-4.4705,-4.4678,-4.4067,-4.2887,-4.2887,-4.2887,-4.2887,-4.2887,-4.2887,-4.2887,-4.2887,-4.2534,-4.191,-4.1354,-4.073,-4.0092,-3.9522,-3.9305,-3.9305,-3.9305,-3.9158,-3.8863,0.0,0.0,0.0,0.0,0.0,0.0,0.0,0.0,0.0,0.0,0.0,0.0,0.0,0.0,0.0,0.0,0.0,0.0,-1.8526,0.0,0.0,0.0,0.0,0.0,0.0,0.0,0.0,0.0,0.0,0.0,0.0,0.0,0.0,0.0,0.0,0.0,0.0,0.0,0.0,0.0,0.0,0.0,-2.2114,0.0,0.0,0.0,0.0,0.0,0.0,0.0,0.0,0.0,0.0,-2.5171,-2.6341,-2.6817,-2.7726,-2.892,-3.0369,-3.1528,-3.2544,-3.3628,-3.4451,-3.5016,-3.5148,-3.5061,-3.4804,-3.441,-3.3996,-3.3729,-3.3733,-3.5529,0.0,-3.7561,-4.0651,0.0,-4.2849,-4.4669,0.0,-4.4391,0.0,-4.3738,-4.2896,-4.2356,0.0,0.0,-4.2193,-4.2358,-4.286,-4.2984,-4.3256,-4.3805,-4.4379,-4.4705,-4.4705,-4.4244,-4.3633,-4.2887,-4.2887,-4.2887,-4.2887,-4.2887,-4.2887,-4.2887,-4.2887,-4.2304,-4.134,-4.1177,-4.0485,-3.9509,-3.9359,-3.9305,-3.9305,-3.9305,-3.9158,-3.8863,0.0,0.0,0.0,0.0,0.0,0.0,0.0,0.0,0.0,0.0,0.0,0.0,0.0,0.0,0.0,0.0,0.0,0.0,0.0,0.0,0.0,0.0,0.0,0.0,0.0,0.0,0.0,0.0,0.0,0.0,0.0,0.0,0.0,0.0,0.0,0.0,0.0,0.0,0.0,0.0,0.0,0.0,0.0,0.0,0.0,0.0,0.0,0.0,0.0,0.0,0.0,-2.5204,-2.5905,-2.6775,-2.7687,-2.8582,0.0,-3.0603,-3.1989,-3.3054,-3.3856,-3.4249,-3.4873,-3.5208,-3.4545,-3.4269,-3.3831,-3.2667,-3.2284,-3.1998,-3.154,-3.3671,-3.577,0.0,0.0,0.0,-4.3266,-4.4824,-4.5564,0.0,-4.4304,0.0,-4.3076,-4.2755,-4.261,0.0,-4.2624,-4.2726,-4.3067,-4.308,-4.3304,-4.3805,-4.4108,-4.4298,-4.4298,-4.3687,-4.3226,-4.2887,-4.2887,-4.2887,-4.2887,-4.2887,-4.2887,-4.2887,0.0,-4.2371,-4.1489,-4.1232,-4.0553,-3.9671,-3.94,-3.9305,-3.9305,-3.9305,-3.9203,-3.9011,0.0,0.0,0.0,0.0,0.0,0.0,0.0,0.0,0.0,-1.8564,-1.9464,-2.0132,-2.0204,-2.0683,0.0,0.0,0.0,0.0,0.0,0.0,0.0,0.0,0.0,0.0,0.0,0.0,0.0,0.0,0.0,0.0,0.0,0.0,0.0,0.0,0.0,0.0,0.0,0.0,0.0,0.0,0.0,0.0,0.0,0.0,0.0,0.0,0.0,0.0,0.0,0.0,-2.688,-2.6589,-2.7459,-2.8182,-2.8914,-3.009,-3.1154,-3.2254,-3.3415,-3.4311,-3.4885,-3.4845,-3.5185,-3.5192,-3.3731,-3.3125,-3.2346,-3.0569,-3.0289,-3.0205,-2.9606,-3.1758,-3.4185,-3.5828,0.0,-4.1848,-4.3434,-4.4443,-4.4866,-4.4326,-4.3901,-4.3477,-4.2978,-4.2887,-4.2887,-4.2935,-4.3128,-4.3273,-4.3273,-4.3273,-4.3401,-4.3805,-4.3818,-4.3818,-4.3818,-4.3185,-4.2887,-4.2887,-4.2887,-4.2887,-4.2887,-4.2887,-4.2887,-4.2887,-4.2887,0.0,-4.1842,-4.134,-4.0703,-4.0024,-3.9495,-3.9305,-3.9305,-3.9305,-3.9305,-3.9216,0.0,0.0,0.0,0.0,0.0,0.0,0.0,-1.9029,-1.9943,-2.0451,-2.0262,-2.0291,-2.0785,-2.093,0.0,0.0,0.0,0.0,0.0,0.0,0.0,0.0,0.0,0.0,0.0,0.0,0.0,0.0,0.0,0.0,0.0,0.0,0.0,0.0,0.0,0.0,0.0,0.0,0.0,0.0,0.0,0.0,0.0,0.0,0.0,0.0,0.0,0.0,0.0,0.0,-2.7183,-2.803,-2.9566,-3.0615,-3.1422,-3.1949,-3.2754,-3.3761,-3.4772,-3.5252,-3.5472,-3.5439,-3.5425,-3.5073,-3.3721,-3.2458,0.0,-2.9843,-2.8852,-2.8264,-2.836,-3.0602,-3.3107,-3.5196,-3.8477,-4.1363,-4.3198,-4.4218,-4.4599,0.0,-4.4138,-4.384,-4.297,-4.2887,0.0,0.0,0.0,-4.2984,-4.2984,-4.2984,-4.3207,-4.3805,-4.3818,-4.3818,-4.3818,-4.3185,-4.2887,-4.2887,-4.2887,-4.2887,-4.2887,-4.2887,-4.2887,-4.2887,-4.2887,0.0,-4.1272,-4.1164,-4.0458,-3.9454,-3.9346,-3.9305,-3.9305,-3.9305,-3.9305,-3.9216,0.0,0.0,0.0,0.0,0.0,0.0,0.0,-1.9483,-2.0295,-2.1289,-2.1222,-2.1191,-2.1481,-2.1815,-2.1982,0.0,0.0,0.0,0.0,0.0,0.0,0.0,0.0,0.0,0.0,0.0,0.0,0.0,0.0,0.0,0.0,0.0,0.0,0.0,0.0,0.0,0.0,0.0,0.0,0.0,0.0,0.0,0.0,0.0,0.0,0.0,0.0,0.0,0.0,0.0,-2.723,-2.8154,-3.0263,-3.1396,-3.2177,-3.3115,-3.3568,-3.413,-3.5569,-3.6124,-3.6231,-3.6098,-3.5993,-3.5372,-3.3201,0.0,0.0,-2.8489,-2.7724,-2.7183,-2.6609,-2.9296,0.0,-3.3546,-3.6719,-3.9786,-4.2058,-4.2645,-4.3053,-4.3488,-4.3554,-4.3375,0.0,-4.2887,-4.2935,-4.308,0.0,-4.2984,-4.308,-4.2984,-4.3009,-4.3294,-4.3308,-4.3308,-4.3308,-4.3023,-4.2887,-4.2887,-4.2887,-4.2887,-4.2887,-4.2887,-4.2887,-4.2887,-4.2887,0.0,-4.1123,-4.1123,-4.0404,-3.9305,-3.9305,-3.9305,-3.9305,-3.9305,-3.9203,-3.9015,0.0,0.0,0.0,0.0,0.0,0.0,0.0,-1.9793,-2.0619,-2.1954,-2.2243,-2.233,-2.2287,-2.2665,-2.2888,0.0,0.0,0.0,0.0,0.0,0.0,0.0,0.0,0.0,0.0,0.0,0.0,0.0,0.0,0.0,0.0,0.0,0.0,0.0,0.0,0.0,0.0,0.0,0.0,0.0,0.0,0.0,0.0,0.0,0.0,0.0,0.0,0.0,0.0,0.0,-2.6796,-2.7555,-2.9677,-3.1056,-3.2151,-3.3507,-3.3915,-3.4304,-3.6182,-3.6856,-3.6986,-3.6787,-3.6514,-3.5578,-3.2839,-3.1109,0.0,-2.7391,-2.6782,-2.6356,-2.5397,-2.8126,-3.0923,0.0,-3.4853,-3.784,-4.0826,-4.1106,-4.1505,0.0,-4.3004,0.0,-4.2887,-4.2887,0.0,-4.2887,0.0,0.0,-4.3225,-4.3032,-4.2887,-4.2887,-4.2887,-4.2887,-4.2887,-4.2887,-4.2887,-4.2887,-4.2887,-4.2887,-4.2887,-4.2887,-4.2887,-4.2887,-4.2887,0.0,0.0,-4.1123,-4.0404,-3.9305,-3.9305,-3.9305,-3.9305,-3.9305,-3.9158,-3.8841,0.0,0.0,0.0,0.0,0.0,0.0,0.0,-2.0191,-2.1704,-2.2988,-2.3325,-2.3397,-2.3274,-2.3054,-2.2888,0.0,0.0,0.0,0.0,0.0,0.0,0.0,0.0,0.0,0.0,0.0,0.0,0.0,0.0,0.0,0.0,0.0,0.0,0.0,0.0,0.0,0.0,0.0,0.0,0.0,0.0,0.0,0.0,0.0,0.0,0.0,0.0,0.0,0.0,0.0,0.0,-2.6303,-2.7281,-2.9399,-3.1706,-3.2586,0.0,0.0,-3.6806,-3.734,-3.7404,-3.7564,-3.6763,-3.5336,-3.3062,0.0,-2.8537,-2.7328,-2.6072,-2.5333,-2.5819,-2.7257,-2.9232,-3.1864,0.0,-3.6025,-4.0085,-4.0464,-4.1031,-4.304,0.0,0.0,-4.2887,-4.2887,0.0,0.0,0.0,0.0,-4.2935,-4.2887,-4.2887,-4.2887,-4.2887,-4.2887,-4.2887,-4.2887,-4.2887,-4.2887,-4.2887,-4.2887,-4.2887,-4.2887,-4.2887,-4.2887,-4.2887,0.0,0.0,-4.1123,-4.0404,-3.9305,-3.9305,-3.9305,-3.9305,-3.9305,-3.9158,-3.8863,0.0,0.0,0.0,0.0,0.0,0.0,-1.8828,-2.0264,-2.1626,-2.2722,-2.3053,-2.3164,-2.3098,-2.3045,-2.2992,-2.2925,0.0,0.0,0.0,0.0,0.0,0.0,0.0,0.0,0.0,0.0,0.0,0.0,0.0,0.0,0.0,0.0,0.0,0.0,0.0,0.0,0.0,0.0,0.0,0.0,0.0,0.0,0.0,0.0,0.0,0.0,0.0,0.0,0.0,0.0,0.0,0.0,-2.6176,-2.7642,0.0,0.0,-3.2609,-3.3939,-3.5844,-3.6603,-3.6885,-3.7052,-3.6207,-3.4836,-3.3011,-3.0592,-2.8404,-2.7318,-2.5982,-2.5191,-2.5882,-2.6526,-2.7976,-3.1126,0.0,0.0,-3.739,-3.8003,-3.8847,-4.0988,-4.1678,0.0,0.0,0.0,0.0,0.0,0.0,0.0,-4.2887,-4.2887,-4.2887,-4.2887,-4.2887,-4.2887,-4.2887,-4.2887,-4.2887,-4.2887,-4.2887,-4.2887,-4.2887,-4.2887,-4.2887,-4.2887,-4.2887,0.0,0.0,-4.1272,-4.0608,-3.9807,-3.9441,-3.9305,-3.9305,-3.9305,-3.9024,-3.8671,0.0,0.0,0.0,0.0,0.0,-1.7844,-1.8843,-2.0385,-2.1786,-2.271,-2.3076,-2.3275,-2.3297,-2.3194,-2.3082,-2.3023,-2.309,0.0,0.0,0.0,0.0,0.0,0.0,0.0,0.0,0.0,0.0,-2.0699,-2.0857,0.0,0.0,0.0,0.0,0.0,0.0,0.0,0.0,0.0,0.0,0.0,0.0,0.0,0.0,0.0,0.0,0.0,0.0,0.0,0.0,0.0,0.0,0.0,0.0,0.0,0.0,0.0,-3.1731,-3.3018,-3.5225,-3.6198,-3.661,-3.6811,-3.5894,-3.4577,-3.3033,-3.0617,-2.8404,-2.7318,-2.5982,-2.5144,-2.5634,-2.6117,-2.7255,0.0,0.0,-3.1769,-3.5217,-3.6234,-3.7409,0.0,0.0,-4.1338,0.0,-4.2718,0.0,0.0,0.0,0.0,-4.2887,-4.2887,-4.2887,-4.2887,-4.2887,-4.2887,-4.2887,-4.2887,-4.2887,-4.2887,-4.2887,-4.2887,-4.2887,-4.2887,-4.2887,-4.2887,-4.2887,0.0,0.0,-4.13,-4.0648,-3.9875,-3.9468,-3.9305,-3.9305,-3.9203,-3.8948,-3.8535,0.0,0.0,0.0,0.0,0.0,0.0,-1.8394,-2.0661,-2.2543,-2.3297,-2.3795,-2.4141,-2.4261,-2.3575,-2.3135,-2.3275,-2.3297,0.0,0.0,0.0,0.0,0.0,0.0,0.0,0.0,0.0,-2.1766,-2.0699,-2.1224,-2.1211,-2.0725,0.0,0.0,0.0,0.0,0.0,0.0,0.0,0.0,0.0,0.0,0.0,-2.3471,0.0,0.0,0.0,0.0,0.0,0.0,0.0,0.0,0.0,0.0,-2.5124,-2.6343,0.0,-3.1275,-3.2719,-3.5461,-3.6442,-3.6778,-3.7107,-3.6195,-3.4773,-3.3153,-3.0688,-2.8404,-2.7318,-2.5982,-2.5005,-2.5001,-2.6151,-2.7146,-2.7304,-2.9511,0.0,-3.4208,-3.57,-3.7358,0.0,0.0,-4.0316,-4.1343,0.0,0.0,0.0,0.0,0.0,-4.2887,-4.2887,-4.2887,-4.2887,-4.2887,-4.2887,-4.2887,-4.2887,-4.2887,-4.2887,-4.2887,-4.2887,-4.2887,-4.2887,-4.2887,0.0,0.0,0.0,0.0,-4.1123,-4.0404,-3.9305,-3.9305,-3.9305,-3.9247,-3.8997,-3.88,-3.8557,0.0,0.0,0.0,0.0,0.0,0.0,0.0,-1.9713,-2.0999,-2.2158,-2.2557,-2.2858,-2.3162,-2.3103,-2.3137,-2.3421,-2.3444,0.0,0.0,0.0,0.0,0.0,0.0,0.0,0.0,0.0,-2.2045,-2.1783,-2.1958,-2.1993,-2.1865,-2.1603,-2.142,0.0,0.0,0.0,0.0,0.0,0.0,0.0,0.0,-2.312,-2.4036,0.0,0.0,0.0,0.0,0.0,0.0,0.0,0.0,0.0,0.0,0.0,0.0,-2.7595,-2.9472,-3.1056,-3.194,-3.284,-3.3421,-3.2791,-3.2305,-3.1662,-3.0417,-2.9124,-2.7807,-2.6598,-2.5634,-2.5128,-2.5598,-2.5717,-2.6776,-2.9977,-3.0865,0.0,0.0,0.0,0.0,-3.9745,-4.1695,-4.2777,0.0,0.0,0.0,0.0,0.0,0.0,-4.2887,-4.2887,-4.2887,-4.2887,-4.2887,-4.2887,-4.2887,-4.2887,-4.2887,-4.2887,-4.2887,-4.2887,-4.2873,-4.2466,-4.2276,0.0,0.0,0.0,0.0,-4.0662,-4.0255,-3.9861,-3.9454,-3.9305,-3.9247,-3.9011,-3.8742,-3.8602,0.0,0.0,0.0,0.0,0.0,0.0,0.0,-1.9304,-2.0428,-2.1489,-2.192,-2.2279,-2.2664,-2.2883,-2.3056,-2.3193,-2.3404,0.0,0.0,0.0,0.0,0.0,0.0,0.0,0.0,-2.242,-2.2213,-2.2305,-2.2319,-2.2366,-2.2401,-2.223,-2.1917,-2.1498,-2.1158,0.0,0.0,0.0,0.0,0.0,-2.2581,-2.3275,-2.4302,0.0,0.0,0.0,0.0,0.0,0.0,0.0,0.0,0.0,0.0,0.0,0.0,0.0,-2.7741,-2.915,-2.9948,-3.0801,-3.1351,-3.0727,-3.0401,-2.9971,-2.9084,-2.8168,-2.7193,-2.6204,-2.5476,-2.5191,-2.5882,-2.5687,-2.6573,-2.9962,-3.0832,-3.1981,0.0,0.0,0.0,-4.0495,0.0,0.0,0.0,0.0,0.0,0.0,0.0,0.0,-4.2887,-4.2887,-4.2887,-4.2887,-4.2887,-4.2887,-4.2887,-4.2887,-4.2887,-4.2887,-4.2887,-4.2765,-4.2548,-4.2168,-4.1883,0.0,0.0,0.0,0.0,-4.035,-4.0051,-3.9807,-3.9454,-3.9305,-3.9261,-3.8935,-3.8724,-3.8557,0.0,0.0,0.0,0.0,0.0,0.0,0.0,-1.9249,-2.0553,-2.1134,-2.1731,-2.2229,-2.2588,-2.2817,-2.2884,-2.2709,0.0,0.0,0.0,0.0,0.0,0.0,0.0,0.0,-2.2957,-2.2558,-2.237,-2.241,-2.2485,-2.2532,-2.2596,-2.3039,-2.2688,-2.1629,-2.1551,0.0,0.0,0.0,0.0,0.0,-2.274,-2.3363,0.0,0.0,0.0,0.0,0.0,0.0,0.0,0.0,0.0,0.0,0.0,0.0,0.0,0.0,0.0,0.0,0.0,-2.9884,-3.0252,-3.027,-2.9853,-2.9294,-2.874,-2.7657,0.0,-2.6051,-2.5444,-2.5223,-2.5988,-2.6131,-2.6673,-2.8293,-3.0105,-3.2048,0.0,-3.651,0.0,0.0,-4.172,0.0,0.0,0.0,0.0,0.0,0.0,0.0,-4.2833,-4.2833,-4.2806,-4.2765,-4.2765,-4.2806,-4.2887,-4.2887,-4.2887,-4.2887,-4.2846,-4.2534,-4.2005,-4.191,-4.1571,0.0,0.0,0.0,0.0,-4.0133,-3.9807,-3.9305,-3.9305,-3.9305,-3.9247,-3.8782,-3.8602,-3.8557,0.0,0.0,0.0,0.0,0.0,0.0,0.0,0.0,0.0,0.0,-2.0829,-2.1302,-2.1728,-2.2139,-2.2478,0.0,0.0,0.0,0.0,0.0,0.0,0.0,0.0,0.0,-2.3443,-2.2987,-2.3022,-2.3509,-2.358,-2.3895,-2.439,-2.4047,-2.3483,-2.2779,-2.2009,-2.1389,0.0,0.0,0.0,0.0,-2.3098,-2.3659,0.0,0.0,0.0,0.0,-2.4661,-2.4666,0.0,0.0,0.0,0.0,0.0,0.0,0.0,0.0,-2.5293,-2.5526,-2.589,0.0,-2.7458,-2.6561,-2.6598,-2.6692,0.0,-2.6062,-2.5999,-2.5381,-2.5112,-2.5483,-2.7089,-2.7411,-2.8684,-3.2461,-3.3946,-3.5233,-3.7045,0.0,0.0,-4.2453,-4.3184,0.0,0.0,0.0,0.0,0.0,0.0,-4.2697,-4.2236,-4.2209,-4.2005,-4.1557,-4.153,-4.1978,-4.2873,-4.2887,-4.2887,-4.2873,-4.2426,-4.2141,-4.1978,-4.1042,-4.054,0.0,0.0,0.0,-3.9509,-3.9509,-3.9427,-3.9305,-3.9305,-3.9305,-3.9247,-3.8922,-3.8711,-3.8557,0.0,0.0,0.0,0.0,0.0,0.0,0.0,0.0,0.0,0.0,0.0,-2.1004,-2.1147,-2.1944,0.0,0.0,0.0,0.0,0.0,0.0,0.0,0.0,0.0,-2.3616,-2.3696,-2.3224,-2.3467,-2.4457,-2.4254,-2.4545,-2.5177,-2.4855,-2.4083,-2.2985,-2.1864,-2.14,0.0,0.0,0.0,-2.3135,-2.3143,0.0,0.0,0.0,0.0,0.0,-2.4666,-2.4666,0.0,-2.4906,-2.4862,-2.4701,0.0,0.0,0.0,0.0,-2.5005,-2.4985,-2.4906,-2.6052,-2.7086,-2.6408,-2.6561,-2.6792,-2.6414,-2.5904,-2.5424,-2.5001,0.0,-2.5874,-2.7465,-2.8279,-2.9899,-3.354,-3.5,0.0,0.0,0.0,-4.1649,-4.3674,-4.3542,0.0,0.0,0.0,0.0,0.0,0.0,-4.2222,-4.1625,-4.1598,-4.1449,-4.1123,-4.1123,-4.1422,-4.2073,-4.2073,-4.2073,-4.2073,-4.1747,-4.1449,-4.115,-4.0485,-4.0038,0.0,0.0,0.0,-3.9305,-3.9305,-3.9305,-3.9305,-3.9305,-3.9305,-3.9247,-3.9011,-3.8832,-3.8711,0.0,0.0,0.0,0.0,0.0,0.0,0.0,0.0,0.0,0.0,0.0,0.0,0.0,0.0,0.0,0.0,0.0,0.0,0.0,0.0,0.0,0.0,0.0,-2.3741,-2.3954,-2.3393,-2.3833,-2.5256,-2.4846,-2.5027,-2.5646,-2.5674,-2.4682,-2.2804,-2.1735,-2.1577,0.0,0.0,-2.2366,-2.3566,-2.326,0.0,0.0,0.0,0.0,0.0,0.0,0.0,0.0,-2.4906,-2.4766,-2.458,-2.4886,0.0,0.0,0.0,0.0,0.0,-2.5214,-2.6728,-2.8099,-2.7538,-2.7724,-2.8011,-2.7901,0.0,0.0,0.0,0.0,0.0,-2.8023,-2.9317,0.0,0.0,0.0,0.0,-4.0184,-4.0307,-4.1402,-4.4747,0.0,0.0,0.0,0.0,0.0,0.0,0.0,-4.1739,-4.1001,-4.0974,-4.0933,-4.0838,-4.0838,-4.0838,-4.0838,-4.1028,-4.1123,-4.1123,-4.1028,-4.0703,-4.0187,-4.0092,-3.978,-3.9305,0.0,0.0,-3.9305,-3.9305,-3.9305,-3.9305,-3.9305,-3.9305,-3.9247,-3.9056,-3.8953,-3.8863,0.0,0.0,0.0,0.0,0.0,0.0,0.0,0.0,0.0,0.0,0.0,0.0,0.0,0.0,0.0,0.0,0.0,0.0,0.0,0.0,0.0,0.0,-2.376,-2.4053,-2.4633,-2.3703,-2.4092,-2.5958,-2.5943,-2.6243,-2.6842,-2.696,-2.5559,-2.295,-2.2709,-2.2446,-2.2212,-2.3051,-2.3483,-2.364,-2.4097,0.0,0.0,0.0,0.0,0.0,0.0,0.0,0.0,-2.4906,-2.4806,-2.463,-2.4906,0.0,0.0,0.0,0.0,0.0,-2.6182,-2.8303,-2.9581,-2.6798,-2.7349,-2.8436,-2.7866,0.0,0.0,0.0,0.0,0.0,0.0,-3.1639,-3.3208,0.0,0.0,-4.032,0.0,0.0,-4.3074,0.0,0.0,0.0,0.0,0.0,0.0,0.0,0.0,-4.1744,-4.0409,-4.0323,-4.0092,-3.959,-3.9576,-3.9576,-3.9576,-4.0608,-4.1123,-4.111,-4.058,-4.0282,-4.016,-3.9671,-3.9386,-3.9305,0.0,-3.9305,-3.9305,-3.9305,-3.9305,-3.9305,-3.9305,-3.9305,-3.9305,-3.9247,-3.91,-3.8908,0.0,0.0,0.0,0.0,0.0,0.0,0.0,0.0,0.0,0.0,0.0,0.0,0.0,0.0,0.0,0.0,0.0,0.0,0.0,0.0,0.0,-2.4331,-2.4122,-2.4344,-2.5013,-2.4881,-2.565,-2.7342,-2.7739,-2.7907,-2.7891,-2.6556,-2.4933,-2.3095,-2.2965,-2.2983,-2.3148,-2.3647,-2.411,-2.4513,0.0,0.0,0.0,0.0,0.0,0.0,0.0,0.0,0.0,0.0,-2.4806,-2.4605,-2.4906,0.0,0.0,0.0,0.0,0.0,-2.5545,-2.7593,-2.9245,-2.7634,-2.9313,-3.1275,-3.0964,-2.985,0.0,0.0,0.0,0.0,0.0,0.0,-3.5798,-3.9154,0.0,-4.0916,-4.2228,-4.2216,0.0,0.0,0.0,0.0,0.0,0.0,0.0,0.0,0.0,0.0,-3.9784,-3.9699,-3.959,-3.9305,-3.9305,-3.9305,-3.9305,-3.9861,-4.0133,-4.0133,-3.9848,-3.9699,-3.9699,-3.9427,-3.9305,-3.9305,0.0,-3.9305,-3.9305,-3.9305,-3.9305,-3.9305,-3.9305,-3.9305,-3.9305,-3.9305,-3.9203,-3.9114,0.0,0.0,0.0,0.0,0.0,0.0,0.0,0.0,0.0,0.0,0.0,0.0,0.0,0.0,0.0,0.0,0.0,0.0,0.0,0.0,-2.39,-2.4645,-2.4356,-2.4661,-2.5656,-2.603,-2.7011,-2.8642,-2.9166,-2.9027,-2.8304,-2.6216,-2.4562,-2.3356,-2.3468,-2.3735,-2.408,-2.4203,-2.4672,-2.5253,0.0,0.0,0.0,0.0,0.0,0.0,0.0,0.0,0.0,0.0,0.0,0.0,0.0,0.0,0.0,-2.4886,-2.4926,-2.4985,-2.5153,-2.6914,-2.8754,-2.8912,-3.0902,-3.3002,-3.3664,-3.2265,0.0,0.0,0.0,0.0,0.0,-3.5814,0.0,-4.1124,-4.1228,-4.1294,-4.2454,0.0,0.0,0.0,0.0,0.0,0.0,0.0,0.0,0.0,0.0,0.0,-3.9689,-3.9424,-3.9305,-3.9305,-3.9305,-3.9305,-3.9305,-3.9499,-3.9499,-3.9305,-3.9305,-3.9305,-3.9305,-3.9305,-3.9305,-3.9305,-3.9305,-3.9305,-3.9305,-3.9305,-3.9305,-3.9305,-3.9305,-3.9305,-3.9278,-3.9142,-3.9102,-3.9102,0.0,0.0,0.0,0.0,0.0,0.0,0.0,0.0,0.0,0.0,0.0,0.0,0.0,0.0,0.0,0.0,0.0,0.0,0.0,0.0,-2.3283,-2.4212,-2.4218,-2.5105,-2.7017,-2.6535,-2.7295,-2.9335,-2.9371,-2.8783,-2.7549,-2.6816,-2.5492,-2.3802,-2.4855,-2.5037,-2.459,-2.5156,-2.5342,-2.5238,-2.4717,0.0,0.0,0.0,0.0,0.0,0.0,0.0,0.0,0.0,0.0,0.0,0.0,0.0,-2.4782,-2.465,-2.4726,-2.5044,-2.6075,-2.7511,-2.8948,-3.0001,-3.0458,-3.1305,-3.3858,-3.2826,0.0,-3.4628,0.0,0.0,0.0,-3.7923,-3.9801,-4.1355,0.0,0.0,0.0,0.0,0.0,0.0,0.0,0.0,0.0,0.0,0.0,0.0,0.0,0.0,-4.056,-3.9749,-3.9305,-3.9305,-3.9305,-3.9305,-3.9305,-4.0114,-4.0114,-3.9305,-3.9305,-3.9305,-3.9305,-3.9305,-3.9305,-3.9305,-3.9305,-3.9305,-3.9305,-3.9305,-3.9305,-3.9305,-3.9305,-3.9305,-3.9237,-3.8681,-3.8477,-3.8477,0.0,0.0,0.0,0.0,0.0,0.0,0.0,0.0,0.0,0.0,0.0,0.0,0.0,0.0,0.0,0.0,0.0,0.0,0.0,0.0,-2.4086,-2.4208,-2.425,-2.5023,-2.6673,-2.6896,-2.778,-2.9387,-2.8972,-2.8143,-2.6862,-2.6126,-2.5091,-2.3847,-2.4905,-2.5319,-2.5257,-2.5819,-2.6016,-2.5927,-2.5253,-2.4732,0.0,0.0,0.0,0.0,0.0,0.0,0.0,0.0,-2.4406,-2.4609,-2.4762,-2.4726,-2.4666,-2.4609,-2.463,-2.4755,-2.5139,-2.6884,-2.8766,-2.9591,-3.0735,0.0,0.0,-3.4844,-3.5091,-3.6984,-3.7369,0.0,0.0,0.0,-4.0428,0.0,0.0,0.0,0.0,0.0,0.0,0.0,0.0,0.0,0.0,0.0,0.0,0.0,0.0,0.0,-4.1505,-4.1141,-4.0986,-4.0986,-4.0986,-4.0986,-4.0986,-4.131,-4.131,-4.0986,-4.0374,-3.9823,-3.9305,-3.9305,-3.9102,-3.8749,-3.8749,-3.8545,-3.8163,-3.8163,-3.8222,-3.838,-3.8536,-3.8635,-3.8552,-3.8177,-3.8053,-3.801,0.0,0.0,0.0,0.0,0.0,0.0,0.0,0.0,0.0,0.0,0.0,0.0,0.0,0.0,0.0,0.0,0.0,0.0,-2.0936,-2.2601,-2.3619,-2.3605,-2.3846,-2.4512,-2.5674,-2.635,-2.7388,-2.8781,-2.8319,-2.7407,-2.6111,-2.5557,-2.4916,-2.4295,-2.4998,-2.5511,-2.5848,-2.5999,-2.6041,-2.598,-2.5272,-2.4697,0.0,0.0,0.0,0.0,0.0,0.0,0.0,0.0,-2.3983,-2.4324,-2.4603,-2.4666,-2.4589,-2.4528,-2.4875,-2.5222,-2.5112,-2.6932,-2.9027,-2.9837,0.0,0.0,-3.5599,-3.6307,-3.6999,-3.8785,-3.9121,-3.9259,-3.9721,0.0,0.0,0.0,0.0,0.0,0.0,0.0,0.0,0.0,0.0,0.0,0.0,0.0,0.0,0.0,0.0,0.0,0.0,-4.2155,-4.199,-4.199,-4.199,-4.199,-4.199,-4.2278,-4.2278,-4.199,-4.1616,-4.1,-4.0142,-3.9644,-3.9155,-3.88,-3.8579,-3.8136,-3.7599,-3.7528,-3.7641,-3.7824,-3.8006,-3.8061,-3.8034,-3.7661,-3.7495,-3.7412,0.0,0.0,0.0,0.0,0.0,0.0,0.0,0.0,0.0,0.0,0.0,0.0,0.0,0.0,0.0,0.0,0.0,0.0,-2.1005,-2.1088,-2.147,-2.2274,-2.2932,-2.3585,-2.4172,-2.4845,-2.5899,-2.738,-2.738,-2.6672,-2.5296,-2.5281,-2.5281,-2.5296,-2.5296,-2.5718,-2.6334,-2.5626,-2.5296,-2.5235,-2.4558,-2.4302,-2.4302,0.0,0.0,0.0,0.0,0.0,0.0,0.0,-2.3538,-2.3634,-2.4281,-2.4544,-2.4584,-2.4364,-2.5437,-2.6632,-2.6363,-2.7921,-2.9896,0.0,0.0,0.0,-3.6876,-3.6984,-3.7277,-3.9936,-4.0489,-4.0489,-4.0489,-4.0489,0.0,-4.1478,0.0,0.0,0.0,0.0,0.0,0.0,0.0,0.0,0.0,0.0,0.0,0.0,0.0,0.0,0.0,-4.2452,-4.2017,-4.2017,-4.2017,-4.2017,-4.2017,-4.2871,-4.2871,-4.2017,-4.2871,-4.2845,-4.1976,-4.0348,-3.9634,-3.9676,-3.8975,-3.8352,-3.7797,-3.7585,-3.7627,-3.7797,-3.7797,-3.7797,-3.7729,-3.714,-3.6757,-3.6592,0.0,0.0,0.0,0.0,0.0,0.0,0.0,0.0,0.0,0.0,0.0,0.0,0.0,0.0,0.0,0.0,0.0,0.0,-2.0807,-2.1962,-2.237,-2.163,-2.2686,-2.3334,-2.3417,-2.4141,-2.4943,-2.5853,-2.5853,-2.5623,-2.5157,-2.4783,-2.4792,-2.5173,-2.5275,-2.5419,-2.5626,-2.5389,-2.5296,-2.5235,-2.4558,-2.4302,-2.4302,0.0,0.0,0.0,0.0,0.0,0.0,0.0,0.0,0.0,-2.4436,-2.4766,-2.4981,-2.4456,-2.5033,-2.583,-2.5648,-2.7442,0.0,-3.107,0.0,0.0,0.0,-3.7949,0.0,0.0,-4.0489,-4.0489,-4.0489,0.0,0.0,-4.0782,0.0,0.0,0.0,0.0,0.0,0.0,0.0,0.0,0.0,0.0,0.0,0.0,0.0,0.0,0.0,-4.2561,-4.241,-4.241,-4.241,-4.241,-4.241,-4.3168,-4.3381,-4.3114,-4.3256,-4.2845,-4.1976,-4.0968,-4.0299,-3.988,-3.9222,-3.856,-3.799,-3.7681,-3.7631,-3.7617,-3.7354,-3.7143,-3.6982,-3.6682,-3.6413,-3.6211,0.0,0.0,0.0,0.0,0.0,0.0,0.0,0.0,0.0,0.0,0.0,-2.2271,0.0,0.0,0.0,0.0,0.0,0.0,0.0,-2.1587,-2.1911,-2.1322,-2.2279,-2.3014,-2.3463,-2.3874,-2.4344,-2.4799,-2.4842,-2.4811,-2.4759,-2.4418,-2.4719,-2.5511,-2.4998,-2.5096,-2.5555,-2.5106,-2.4854,-2.4759,-2.443,-2.424,-2.4147,0.0,0.0,0.0,0.0,0.0,0.0,0.0,0.0,0.0,-2.4059,-2.4488,-2.4946,-2.4503,-2.553,-2.6838,-2.7164,-2.9194,0.0,-3.3213,-3.5294,-3.729,-3.8632,0.0,0.0,0.0,0.0,-4.0436,-4.0489,-4.0489,0.0,0.0,0.0,0.0,0.0,0.0,0.0,0.0,0.0,0.0,0.0,0.0,0.0,0.0,0.0,0.0,0.0,-4.2602,-4.2602,-4.2602,-4.2602,-4.2602,-4.2602,-4.2987,-4.3187,-4.3187,-4.3084,-4.2769,-4.2194,-4.1715,-4.1263,-4.0906,-3.9726,-3.8801,-3.8101,-3.8008,-3.7834,-3.7567,-3.7313,-3.7031,-3.6682,-3.6484,-3.6286,-3.6072,0.0,0.0,-2.0934,-2.168,0.0,0.0,0.0,0.0,0.0,0.0,-2.2254,-2.2296,0.0,0.0,0.0,-2.1703,0.0,0.0,0.0,0.0,-2.0744,-2.1327,-2.1903,-2.2746,-2.3994,-2.3943,-2.4006,-2.4202,-2.4255,-2.4312,-2.4374,-2.4259,-2.4875,-2.6031,-2.4624,-2.4641,-2.5689,-2.4627,-2.4055,-2.3884,-2.403,-2.4009,-2.3787,-2.3224,0.0,0.0,0.0,0.0,0.0,0.0,0.0,0.0,-2.3462,-2.4022,-2.4626,-2.4436,-2.6346,-2.8698,-2.9669,-3.1875,0.0,-3.6383,-3.7503,0.0,-3.9687,-3.9975,-3.9996,-4.0242,0.0,-4.0331,-4.047,0.0,0.0,0.0,0.0,0.0,0.0,0.0,0.0,0.0,0.0,0.0,0.0,0.0,0.0,0.0,0.0,0.0,0.0,-4.2417,-4.2417,-4.2417,-4.2417,-4.2417,-4.2417,-4.2479,-4.2525,-4.2525,-4.2586,-4.2602,-4.2581,-4.2327,-4.2286,-4.2226,-4.0506,-3.931,-3.85,-3.8707,-3.8416,-3.7882,-3.7768,-3.7331,-3.6747,-3.647,-3.6286,-3.6072,0.0,0.0,-2.1021,-2.1751,0.0,0.0,0.0,0.0,-2.2228,-2.2268,-2.2282,-2.2296,-2.2296,-2.2296,0.0,-2.2149,-2.2106,0.0,0.0,0.0,-2.1818,-2.17,-2.2447,-2.3275,-2.413,-2.3575,-2.3595,-2.4202,-2.4208,-2.4453,-2.4921,-2.4432,-2.4588,-2.5233,-2.4368,-2.3951,-2.3851,-2.3437,-2.3125,-2.2879,-2.2596,-2.26,-2.2725,-2.2482,-2.2512,0.0,0.0,0.0,0.0,0.0,0.0,0.0,-2.4107,-2.459,-2.4929,-2.3866,-2.5178,-2.7102,-2.7629,-2.9729,0.0,0.0,-3.7736,-3.9405,-3.9692,-3.9625,-3.964,-3.9996,-4.0172,-4.0312,0.0,0.0,0.0,0.0,0.0,0.0,0.0,0.0,0.0,0.0,0.0,0.0,0.0,0.0,0.0,0.0,0.0,0.0,-4.0935,-4.0935,-4.0935,-4.0935,-4.0935,-4.0935,-4.0935,-4.154,-4.1817,0.0,-4.2355,-4.2602,-4.2602,-4.2006,-4.1765,-4.1765,-4.19,-4.1827,-4.1602,-4.1181,-4.0621,-3.9921,-3.9004,-3.8126,-3.7313,-3.6654,-3.6286,-3.6072,0.0,0.0,0.0,0.0,0.0,0.0,0.0,0.0,-2.2659,-2.2347,-2.2296,-2.2175,-2.1803,-2.1769,0.0,0.0,-2.1487,-2.1343,0.0,0.0,0.0,-2.1879,-2.2674,-2.3219,-2.3517,-2.3029,-2.3242,-2.4202,-2.3933,-2.425,-2.5042,-2.4728,-2.5109,-2.6009,-2.4952,-2.4399,-2.421,-2.3559,-2.2956,-2.2396,-2.2317,-2.2286,-2.2262,-2.1876,-2.1952,-2.2255,-2.186,0.0,0.0,0.0,0.0,0.0,0.0,0.0,-2.4369,-2.3999,-2.4884,-2.6392,-2.8119,0.0,0.0,-3.6263,0.0,-3.9553,-3.9553,-3.9496,-3.946,-3.9676,-3.9874,0.0,0.0,0.0,0.0,0.0,0.0,0.0,0.0,0.0,0.0,0.0,0.0,0.0,0.0,0.0,0.0,0.0,0.0,-4.0489,-4.0489,-4.0489,-4.0489,-4.0489,-4.0489,-4.0489,-4.0489,-4.0858,-4.1078,-4.1093,-4.1447,-4.1601,-4.1632,-4.194,-4.1909,-4.1617,-4.1971,-4.1925,-4.1581,-4.1265,-4.0764,-4.0121,-3.9209,-3.8402,-3.762,-3.6733,-3.6325,-3.6192,0.0,0.0,0.0,0.0,0.0,0.0,0.0,0.0,0.0,-2.2381,-2.2296,-2.2023,-2.1275,-2.119,-2.1126,0.0,0.0,0.0,-2.0892,0.0,0.0,0.0,-2.2863,-2.3127,-2.2858,-2.2532,-2.2945,-2.4045,-2.3412,-2.3912,-2.5485,-2.5202,-2.5733,-2.6849,-2.5604,-2.4967,-2.476,-2.3794,-2.2828,-2.1954,-2.2149,-2.2078,-2.1852,-2.128,-2.1436,-2.1904,-2.1439,-2.1658,-2.2262,-2.3005,0.0,0.0,0.0,0.0,-2.3498,-2.3858,-2.4601,-2.5845,-2.8455,0.0,-3.3864,-3.7353,-3.8826,0.0,-3.9388,-3.9388,-3.9388,-3.9388,0.0,0.0,0.0,0.0,0.0,0.0,0.0,0.0,0.0,0.0,0.0,0.0,0.0,0.0,0.0,0.0,0.0,0.0,0.0,-4.0489,-4.0489,-4.0489,-4.0489,-4.0489,-4.0489,-4.0489,-4.0489,-4.0489,-4.0489,-4.0489,-4.0489,-4.0489,-4.0536,-4.1724,-4.2001,-4.1617,-4.1724,-4.1447,-4.0858,-4.0858,-4.0537,-3.9969,-3.9362,-3.87,-3.7924,-3.6929,-3.647,-3.6312,0.0,0.0,0.0,0.0,0.0,0.0,0.0,0.0,0.0,0.0,-2.2296,-2.2023,-2.1275,-2.119,-2.0827,-1.99,-1.9727,-1.9846,0.0,0.0,0.0,0.0,-2.3461,-2.3614,-2.3072,-2.2582,-2.2713,-2.3509,-2.2384,-2.3784,-2.747,-2.6023,-2.5484,-2.5716,-2.5407,-2.4416,-2.2947,-2.2612,-2.1906,-2.0962,-2.0705,-2.0653,-2.0707,-2.056,-2.0539,-2.061,-2.1049,-2.1353,-2.1688,-2.2762,-2.3207,0.0,0.0,0.0,-2.2972,-2.2009,-2.3013,-2.4527,0.0,0.0,-3.4163,0.0,-3.8482,-3.9388,0.0,0.0,-3.9388,0.0,0.0,0.0,0.0,0.0,0.0,0.0,0.0,0.0,0.0,0.0,0.0,0.0,0.0,0.0,0.0,0.0,0.0,0.0,-4.0489,-4.0489,-4.0489,-4.0489,-4.0489,-4.0489,-4.0489,-4.0489,-4.0489,-4.0489,-4.0489,-4.0489,-4.0489,-4.0489,-4.0505,-4.0689,-4.1093,-4.1632,-4.2217,-4.2417,-4.234,-4.234,-4.195,-4.127,-4.0686,-3.9727,-3.856,-3.7558,-3.685,-3.6312,0.0,0.0,0.0,0.0,0.0,0.0,0.0,0.0,0.0,0.0,0.0,-2.1953,-2.1174,-2.0585,-2.008,-1.9638,-1.8917,0.0,0.0,0.0,0.0,0.0,-2.2415,-2.2682,-2.2489,-2.2014,-2.2111,-2.2775,-2.202,-2.3791,-2.7836,-2.7138,-2.7728,-2.9296,-2.7837,-2.6636,-2.5549,-2.3509,-2.2135,-2.1298,-2.0785,-2.1301,-2.2263,-2.1047,-2.1276,-2.2129,-2.1151,-2.0824,-2.0978,-2.1846,-2.2394,-2.2732,-2.2732,0.0,0.0,0.0,-2.2228,0.0,-2.556,-2.9372,-3.3337,0.0,-3.7599,-3.8497,-3.9245,0.0,0.0,0.0,0.0,0.0,0.0,0.0,0.0,0.0,0.0,0.0,0.0,0.0,0.0,0.0,0.0,0.0,0.0,0.0,0.0,0.0,-4.0489,-4.0489,-4.0489,-4.0489,-4.0489,-4.0489,-4.0489,-4.0489,-4.0489,-4.0489,-4.0489,-4.0489,-4.0489,-4.0489,-4.0489,-4.0489,-4.0674,-4.1016,-4.1309,-4.1397,-4.1397,-4.1397,-4.1263,-4.0931,-4.037,-3.9793,-3.9126,-3.7787,-3.7109,-3.6811,0.0,0.0,0.0,0.0,0.0,0.0,0.0,0.0,0.0,0.0,0.0,-2.1852,-2.095,0.0,0.0,0.0,-1.8013,0.0,0.0,0.0,0.0,0.0,0.0,-2.1701,-2.1793,-2.1396,-2.1507,-2.2174,-2.1688,-2.3622,-2.7741,-2.7884,-2.9779,-3.2937,-3.0429,-2.8794,-2.7652,-2.4855,-2.337,-2.2814,-2.2137,-2.2767,-2.4027,-2.298,-2.3397,-2.4312,-2.248,-2.1675,-2.1543,-2.1783,-2.2068,-2.2305,-2.2305,-2.2163,0.0,0.0,0.0,0.0,0.0,0.0,-3.1386,-3.4491,-3.6121,-3.727,0.0,0.0,0.0,0.0,0.0,0.0,0.0,0.0,0.0,0.0,0.0,0.0,0.0,0.0,0.0,0.0,0.0,0.0,0.0,0.0,0.0,0.0,-4.0489,-4.0489,-4.0489,-4.0489,-4.0489,-4.0489,-4.0489,-4.0489,-4.0489,-4.0489,-4.0489,-4.0489,-4.0489,-4.0489,-4.0489,-4.0489,-4.0489,-4.0489,-4.0489,-4.0489,-4.0489,-4.0489,-4.0489,-4.0455,-4.0071,-3.9824,-3.9538,-3.806,-3.7643,-3.7656,0.0,0.0,0.0,0.0,0.0,0.0,0.0,0.0,0.0,0.0,0.0,-2.1752,-2.0566,-1.9857,-1.8988,-1.7716,-1.7024,0.0,0.0,0.0,0.0,0.0,0.0,0.0,-2.1243,-2.0794,-2.0969,-2.1832,-2.1172,-2.3174,-2.7611,-2.7944,-3.0483,-3.4675,-3.219,-2.9604,-2.7099,-2.6214,-2.5819,-2.5724,-2.5049,-2.4768,-2.4972,-2.6967,-2.7259,-2.6541,-2.5717,-2.503,-2.4333,-2.3493,-2.2813,-2.2305,-2.2305,-2.1784,-2.1051,0.0,0.0,0.0,0.0,-2.6183,0.0,-3.1138,0.0,0.0,0.0,0.0,0.0,0.0,0.0,0.0,0.0,0.0,0.0,0.0,0.0,0.0,0.0,0.0,0.0,0.0,0.0,0.0,0.0,0.0,0.0,0.0,-4.0489,-4.0489,-4.0489,-4.0489,-4.0489,-4.0489,-4.0489,-4.0489,-4.0489,-4.0489,-4.0489,-4.0489,-4.0489,-4.0489,-4.0489,-4.0489,-4.0489,-4.0489,-4.0489,-4.0489,-4.0489,-4.0489,-4.0489,-4.0489,-4.0455,-4.0141,-3.9559,-3.8465,-3.862,-3.9024,0.0,0.0,0.0,0.0,0.0,0.0,0.0,0.0,0.0,0.0,0.0,0.0,0.0,-1.9939,-1.8929,-1.8256,-1.7105,0.0,0.0,0.0,0.0,0.0,0.0,0.0,0.0,-2.1237,-2.1124,-2.1089,-2.0887,-2.2757,-2.6495,-2.6687,-2.8129,-3.0523,-3.0045,-3.0069,-3.0188,-2.6293,-2.4934,-2.5333,-2.5096,-2.5772,-2.6961,-2.7336,-2.8349,-2.9423,-2.7794,-2.6418,-2.5212,-2.4465,-2.3641,-2.2736,-2.1427,-2.1406,-2.1664,-2.061,-2.085,0.0,0.0,0.0,0.0,-2.9196,-3.1428,0.0,0.0,0.0,0.0,0.0,0.0,0.0,0.0,0.0,0.0,0.0,0.0,0.0,0.0,0.0,0.0,0.0,0.0,0.0,0.0,0.0,0.0,0.0,0.0,-4.0489,-4.0489,-4.0489,-4.0489,-4.0489,-4.0489,-4.0489,-4.0489,-4.0489,-4.0489,-4.0489,-4.0489,-4.0489,-4.0489,-4.0489,-4.0489,-4.0489,-4.0489,-4.0489,-4.0489,-4.0489,-4.0489,-4.0489,-4.0489,-4.0385,-4.0091,-3.9211,-3.9091,-3.9217,0.0,0.0,0.0,-2.2211,0.0,-2.224,-2.2296,-2.2282,-2.2209,-2.2027,0.0,0.0,0.0,0.0,-1.9108,-1.8529,-1.7379,-1.6778,-1.694,-1.7603,0.0,0.0,0.0,0.0,0.0,-2.1013,-2.0879,-2.0727,-2.0778,-2.2199,-2.4902,-2.5183,-2.6293,-2.8079,-2.7567,-2.8679,-3.0663,-2.7146,-2.5945,-2.6409,-2.6646,-2.7513,-2.8731,-2.9564,-3.0595,-3.1481,-3.0485,-2.9108,-2.7586,-2.6711,-2.5555,-2.4152,-2.2307,-2.1664,-2.1442,-2.0549,-2.1001,-2.1873,-2.2347,0.0,0.0,0.0,0.0,0.0,0.0,0.0,0.0,0.0,0.0,0.0,0.0,0.0,0.0,0.0,0.0,0.0,0.0,0.0,0.0,0.0,0.0,0.0,0.0,0.0,0.0,0.0,0.0,0.0,-4.0489,-4.0489,-4.0489,-4.0489,-4.0489,-4.0489,-4.0489,-4.0489,-4.0489,-4.0489,-4.0489,-4.0489,-4.0489,-4.0489,-4.0489,-4.0489,-4.0489,-4.0489,-4.0489,-4.0489,-4.0489,-4.0489,-4.0489,-4.0489,-4.042,-3.9621,-3.9613,-3.9962,-2.2214,-2.2271,-2.2296,-2.2296,-2.2296,-2.2296,-2.2296,-2.224,-2.2152,-2.2013,0.0,0.0,0.0,0.0,0.0,-1.8331,-1.7818,-1.7754,-1.8176,-1.7727,0.0,0.0,0.0,0.0,0.0,-2.0066,-2.0146,-2.0794,-2.0794,-2.1522,-2.2882,-2.3544,-2.5313,-2.7826,-2.5124,-2.5424,-2.7984,-2.8625,-2.8988,-2.9161,-2.9801,-2.9965,-3.0214,-3.3896,-3.4147,-3.2665,-3.3834,-3.3192,-3.1565,-3.0323,-2.8553,-2.6582,-2.4984,-2.2604,-2.0349,-2.0349,-2.0755,-2.1188,0.0,0.0,0.0,0.0,0.0,0.0,0.0,0.0,0.0,0.0,0.0,0.0,0.0,0.0,0.0,0.0,0.0,0.0,0.0,0.0,0.0,0.0,0.0,0.0,0.0,0.0,0.0,0.0,-4.0401,-4.0489,-4.0489,-4.0489,-4.0505,-4.0489,-4.0489,-4.0489,-4.0489,-4.0489,-4.0489,-4.0489,-4.0489,-4.0489,-4.0489,-4.0489,-4.0489,-4.0489,-4.0489,-4.0489,-4.0489,-4.0489,-4.0489,-4.0489,-4.0489,-4.0489,-4.042,-3.9621,-4.0273,-4.125,-2.2254,-2.2282,-2.2296,-2.2296,-2.2296,-2.2296,-2.2296,-2.224,-2.22,0.0,0.0,0.0,-2.1135,-2.0441,-1.9768,-1.8991,-1.903,-1.8858,-1.8316,-1.8718,-1.9108,-1.9403,-2.0047,-2.049,-2.0712,-2.0604,-2.0605,-2.0794,-2.0794,-2.1268,-2.2169,-2.2325,-2.3067,-2.4337,-2.4014,-2.4065,-2.4353,-2.4523,0.0,-2.8988,-2.7699,-2.9233,0.0,-3.2919,-3.4049,-3.5357,-3.5676,-3.4801,-3.3372,-3.2547,-3.0472,-2.7788,-2.5168,-2.3097,-2.1605,-2.1605,-2.206,-2.2454,-2.2003,0.0,0.0,0.0,0.0,0.0,0.0,0.0,0.0,0.0,0.0,0.0,0.0,0.0,0.0,0.0,0.0,0.0,0.0,0.0,0.0,0.0,0.0,0.0,0.0,0.0,0.0,0.0,-4.0101,-4.0137,-4.0137,-4.0277,-4.0401,-4.0489,-4.0489,-4.0489,-4.0489,-4.0489,-4.0489,-4.0489,-4.0489,-4.0489,-4.0489,-4.0489,-4.0489,-4.0489,-4.0489,-4.0489,-4.0489,-4.0489,-4.0489,-4.0489,-4.0489,-4.0489,-4.0455,-4.0266,-4.0423,-4.0793,-2.2282,-2.2296,-2.2398,-2.2673,-2.2738,-2.2823,-2.307,-2.2853,-2.274,0.0,0.0,0.0,-2.2216,-2.1597,-2.0984,-2.042,-2.0238,-1.9892,-1.9213,-1.9436,-1.9719,-2.0,-2.0457,-2.0727,-2.0794,-2.0794,-2.0794,-2.0794,-2.0794,-2.1015,-2.1442,-2.1393,-2.179,-2.2487,-2.2564,-2.2722,-2.2866,-2.2266,-2.4097,0.0,-2.7968,0.0,0.0,-3.3566,-3.4687,0.0,0.0,0.0,-3.4924,-3.4814,-3.2195,-2.851,-2.5889,-2.4221,-2.3117,-2.23,-2.2884,-2.3603,-2.2671,-2.3219,-2.4064,-2.4195,0.0,0.0,0.0,-2.8056,0.0,0.0,0.0,0.0,0.0,0.0,0.0,0.0,0.0,0.0,0.0,0.0,0.0,0.0,0.0,0.0,0.0,-3.9889,-4.0011,-4.0011,-4.0011,-4.0011,-4.0011,-4.0101,-4.0242,-4.0401,-4.0401,-4.042,-4.0489,-4.042,-4.042,-4.0489,-4.0436,-4.047,-4.0489,-4.0489,-4.0489,-4.0489,-4.0489,-4.0489,-4.0489,-4.0489,-4.0489,-4.0489,-4.0489,-4.0489,-4.0489,-4.0489,-4.0489,-4.0551,0.0,-2.2296,-2.2502,-2.3186,-2.3348,-2.3587,-2.414,-2.3736,-2.3551,0.0,-2.3499,-2.3321,-2.3967,-2.3399,-2.2708,-2.2102,-2.1431,-2.0868,-2.0472,-1.9983,-2.0018,-2.0645,-2.0693,-2.0727,-2.0794,-2.0794,-2.0794,-2.0794,-2.0794,-2.0794,-2.0794,-2.0794,-2.1142,-2.1742,-2.1079,-2.1506,-2.2598,-2.1506,-2.2566,-2.5338,-2.9106,-3.0854,0.0,0.0,-3.5616,-3.5157,-3.7537,-3.7441,-3.6215,-3.6639,-3.3584,-2.9246,-2.7091,-2.5978,-2.5047,-2.3091,-2.3831,-2.4987,-2.377,-2.3833,-2.452,-2.5621,-2.4817,0.0,-2.6927,-2.7278,-2.7689,0.0,0.0,0.0,0.0,0.0,0.0,0.0,0.0,0.0,0.0,0.0,0.0,0.0,0.0,0.0,-3.9681,-3.9854,-3.9945,-3.9905,-3.9813,-3.9783,-3.9818,-3.9879,-3.9995,-4.0189,-4.0189,-4.0289,-4.0489,-4.0213,-4.0182,-4.0382,-4.0259,-4.0293,-4.0382,-4.0459,-4.0489,-4.0489,-4.0489,-4.0489,-4.0489,-4.0489,-4.0489,-4.0489,-4.0489,-4.0489,-4.0489,-4.0489,-4.0489,-4.0489,-2.2296,-2.2296,-2.2533,-2.3243,-2.3351,-2.3558,-2.4252,-2.4109,-2.3995,-2.416,-2.377,-2.3862,-2.4844,-2.43,-2.3436,-2.2409,-2.2461,-2.203,-2.0738,-2.0535,-2.0503,-2.0544,-2.0644,-2.0727,-2.0794,-2.0794,-2.0794,-2.0794,-2.0794,-2.0794,-2.0794,-2.0794,-2.0873,-2.1,-2.0857,-2.0952,-2.1269,-2.2139,-2.3452,-2.5112,-2.6467,-2.9682,-3.3713,-3.4419,-3.5638,-3.6999,-3.7498,-3.7466,-3.7028,-3.573,-3.3959,-3.1807,-2.9245,-2.8586,-2.8368,-2.6443,-2.6919,-2.7926,-2.7061,-2.6974,-2.6892,-2.602,-2.6792,0.0,-2.5353,-2.6062,-2.7067,0.0,0.0,0.0,0.0,0.0,0.0,0.0,0.0,0.0,0.0,0.0,0.0,0.0,0.0,0.0,-3.9636,-3.9732,-3.9592,-3.9202,-3.8641,-3.839,-3.8544,-3.9062,-3.947,-3.9656,-3.9656,-3.9951,-4.0489,-3.9413,-3.9152,-3.9674,-3.9656,-3.969,-3.9705,-4.0243,-4.0489,-4.0489,-4.0489,-4.0489,-4.0489,-4.0489,-4.0489,-4.0489,-4.0489,-4.0489,-4.0489,-4.0489,-4.0489,-4.0489,-2.2296,-2.2296,-2.2651,-2.3705,-2.3906,-2.4231,-2.5196,-2.5029,-2.5062,-2.5799,-2.5521,-2.5352,-2.5621,-2.4647,-2.3697,-2.2912,-2.2918,-2.2297,-2.0804,-2.1041,-2.1072,-2.0677,-2.0711,-2.0777,-2.0794,-2.0794,-2.0794,-2.0794,-2.0794,-2.0778,-2.0744,-2.0778,-2.1157,-2.1785,-2.1472,-2.1726,-2.2374,-2.274,-2.3515,-2.4681,-2.7478,0.0,-3.3941,-3.5347,-3.6577,-3.7557,-3.7875,-3.7789,-3.7171,-3.5133,-3.3691,0.0,-3.0383,-3.0135,-3.0203,0.0,-2.8647,-2.9485,-2.8456,-2.8211,-2.8097,-2.7409,0.0,0.0,0.0,-2.607,-2.6716,-2.7288,0.0,0.0,0.0,0.0,0.0,0.0,0.0,0.0,0.0,0.0,0.0,0.0,0.0,0.0,-3.8933,-3.8948,-3.8827,-3.8474,-3.8125,-3.7946,-3.8047,-3.8366,-3.865,-3.8867,-3.8867,-3.9069,-3.949,-3.8731,-3.8563,-3.9016,-3.89,-3.89,-3.9031,-3.969,-3.9982,-4.0013,-4.0336,-4.0489,-4.0489,-4.0489,-4.0489,-4.0489,-4.0489,-4.0489,-4.0489,-4.0489,-4.0489,-4.0489,-2.2296,-2.2296,-2.2704,-2.3995,-2.4346,-2.4854,-2.5948,-2.5849,-2.6118,-2.7408,-2.7402,-2.7121,-2.6766,-2.5745,-2.4944,-2.4569,-2.3855,-2.2891,-2.166,-2.1706,-2.155,-2.1015,-2.0857,-2.0841,-2.0966,-2.0857,-2.0778,-2.0778,-2.0778,-2.0744,-2.0644,-2.0744,-2.1359,-2.2393,-2.2181,-2.2672,-2.3645,0.0,0.0,-2.5447,0.0,-3.1703,-3.2835,-3.59,-3.7114,-3.7209,-3.8017,-3.7826,-3.6905,-3.4942,-3.3668,-3.2632,-3.1165,-3.1316,0.0,0.0,-2.9968,-3.0806,-2.952,-2.9265,-2.922,-2.8801,0.0,-2.8338,0.0,0.0,0.0,-2.7956,0.0,0.0,0.0,0.0,0.0,0.0,0.0,0.0,0.0,0.0,0.0,0.0,0.0,0.0,0.0,-3.7634,-3.7569,-3.7801,-3.7312,-3.7223,-3.7618,-3.777,-3.7897,-3.8063,-3.8063,-3.819,-3.8508,-3.8067,-3.8039,-3.8323,-3.8129,-3.8161,-3.8338,-3.9016,-3.94,-3.9521,-4.0059,-4.0366,-4.0489,-4.0489,-4.0489,-4.0489,-4.0489,-4.0489,-4.0489,-4.0489,-4.0489,-4.0489,-2.2296,-2.2296,-2.255,-2.3361,-2.401,-2.4639,-2.5313,-2.5864,-2.6515,-2.7387,-2.8091,-2.8638,-2.8982,-2.9206,-2.9231,-2.8979,-2.673,-2.5115,-2.4719,-2.2814,-2.1701,-2.1692,-2.1058,-2.0993,-2.1588,-2.1024,-2.071,-2.071,-2.071,-2.0644,-2.0527,-2.0644,-2.0788,-2.0993,-2.2228,0.0,0.0,0.0,-2.6408,0.0,-3.0618,-3.0494,0.0,-3.4099,-3.5631,-3.5805,-3.7146,-3.7001,-3.6085,0.0,-3.485,-3.3918,0.0,-3.2662,-3.3665,-3.1046,0.0,0.0,0.0,0.0,0.0,0.0,-3.0283,0.0,0.0,0.0,-2.8001,-2.6598,0.0,0.0,0.0,0.0,0.0,0.0,0.0,0.0,0.0,0.0,0.0,0.0,0.0,0.0,0.0,-3.5508,-3.5645,-3.7413,-3.5292,-3.4724,-3.6552,-3.7213,-3.7551,-3.7583,-3.7583,-3.7875,-3.8508,-3.7291,-3.7015,-3.7615,-3.7583,-3.7583,-3.7646,-3.8323,-3.8954,-3.949,-3.9567,-3.9936,-4.0489,-4.0489,-4.0489,-4.0489,-4.0489,-4.0489,-4.0489,-4.0489,-4.0489,-4.0489,-2.2296,-2.2296,-2.2533,-2.3274,-2.3634,-2.4148,-2.5146,-2.7387,-2.8736,-2.8108,-2.9507,-3.0597,-3.0717,-3.0032,-2.9752,-3.0285,-2.9108,-2.7499,0.0,-2.4858,-2.3854,-2.2337,-2.1994,-2.1788,-2.1657,-2.1412,-2.1051,-2.0594,-2.0594,-2.0543,0.0,0.0,-2.12,-2.2365,-2.3488,0.0,-2.5764,0.0,-2.7328,0.0,0.0,0.0,0.0,-3.4557,-3.642,-3.6381,-3.6781,-3.6569,-3.5964,0.0,-3.4257,0.0,0.0,0.0,0.0,-3.2452,0.0,0.0,0.0,0.0,0.0,0.0,0.0,0.0,-2.753,0.0,-2.7485,0.0,0.0,0.0,0.0,0.0,0.0,0.0,0.0,0.0,0.0,0.0,0.0,0.0,0.0,0.0,0.0,0.0,0.0,0.0,-3.4291,-3.4137,-3.5814,-3.6553,-3.6923,-3.6923,-3.6923,-3.7046,-3.7338,-3.6769,-3.663,-3.6923,-3.6923,-3.6923,-3.6938,-3.7615,-3.8077,-3.8369,-3.8769,-3.929,-3.9905,-3.9905,-4.0136,-4.0489,-4.0489,-4.0489,-4.0489,-4.0489,-4.0489,-4.0489,-2.2598,-2.2431,-2.2465,-2.3004,-2.3274,-2.3907,-2.538,-2.8072,-2.9682,-2.9059,-3.076,-3.2186,-3.2634,-3.175,-3.1625,-3.2804,-3.1857,-3.0255,0.0,-2.7098,-2.5863,-2.4097,-2.3127,-2.2486,-2.2217,-2.1829,-2.1247,-2.051,-2.0477,-2.0551,0.0,0.0,-2.1377,-2.304,-2.4201,-2.5722,-2.7476,0.0,-2.8708,-2.9178,-3.0698,-3.1265,-3.1579,-3.5174,-3.6671,-3.6754,-3.6585,-3.632,-3.5871,-3.4561,-3.3968,0.0,-3.3559,0.0,-3.311,0.0,0.0,0.0,-3.2004,0.0,0.0,0.0,0.0,0.0,0.0,0.0,0.0,0.0,0.0,0.0,0.0,0.0,0.0,0.0,0.0,0.0,0.0,0.0,0.0,0.0,0.0,0.0,0.0,0.0,0.0,0.0,0.0,-3.3,-3.5353,-3.5953,-3.6307,-3.6492,-3.6492,-3.6492,-3.6492,-3.6492,-3.6492,-3.6492,-3.6492,-3.6492,-3.6507,-3.6999,-3.7323,-3.7523,-3.8015,-3.8616,-3.9262,-3.9413,-3.9782,-4.0228,-4.0428,-4.0489,-4.0489,-4.0489,-4.0489,-4.0489,-2.3359,-2.2801,-2.2296,-2.233,-2.2936,-2.4076,-2.605,-2.696,-2.8127,-3.0158,-3.1523,0.0,0.0,0.0,0.0,-3.8112,0.0,-3.3557,-3.3712,-2.9315,-2.6978,-2.762,-2.4286,-2.2811,-2.3707,-2.2225,-2.1111,-2.051,-2.0424,-2.0731,0.0,0.0,0.0,0.0,-2.3658,-2.5172,-2.6404,-2.8611,-3.1246,-3.3975,-3.4048,-3.5013,-3.6367,0.0,-3.5486,-3.6242,-3.6414,0.0,0.0,-3.5138,-3.4724,0.0,0.0,0.0,0.0,0.0,0.0,0.0,0.0,0.0,0.0,-2.9445,0.0,0.0,0.0,0.0,-2.8353,0.0,0.0,0.0,0.0,0.0,-2.8083,-2.6806,-2.6596,0.0,0.0,0.0,0.0,0.0,0.0,0.0,0.0,0.0,0.0,0.0,0.0,0.0,-3.523,-3.5537,-3.5845,-3.6476,-3.6492,-3.6492,-3.6492,-3.6492,-3.6492,-3.6492,-3.6492,-3.6492,-3.6492,-3.6507,-3.6892,-3.7507,-3.7523,-3.7923,-3.86,-3.9213,-3.949,-3.9582,-4.0243,-4.0489,-4.0489,-4.0489,-4.0489,-4.0489,-2.3393,-2.2818,-2.2615,-2.3594,-2.3156,-2.3504,-2.6016,-2.8536,-3.094,0.0,-3.4176,0.0,0.0,-3.8655,-3.8697,0.0,0.0,-3.618,-3.4622,-3.1732,-3.0094,-3.011,-2.7751,-2.6445,-2.6448,-2.4601,-2.3064,-2.1884,-2.0928,-2.0584,0.0,0.0,0.0,0.0,0.0,-2.6061,0.0,0.0,0.0,0.0,0.0,-3.4718,-3.6306,0.0,0.0,-3.6068,-3.6132,-3.5958,0.0,-3.5527,-3.5038,-3.4548,-3.4756,-3.4367,-3.3858,-3.4114,-3.3993,0.0,0.0,0.0,-3.3485,-3.0582,0.0,0.0,0.0,0.0,0.0,0.0,0.0,0.0,0.0,-2.8607,-2.8158,-2.6811,-2.5854,-2.4874,0.0,0.0,0.0,0.0,0.0,0.0,0.0,0.0,0.0,0.0,-2.9348,0.0,0.0,-3.4953,-3.5614,-3.5845,-3.6261,-3.6492,-3.6492,-3.6492,-3.6492,-3.6492,-3.6492,-3.6492,-3.6492,-3.6492,-3.6615,-3.683,-3.683,-3.7215,-3.7892,-3.8569,-3.9108,-3.9585,-4.0228,-4.0489,-4.0489,-4.0489,-4.0489,-4.0489,-2.3444,-2.3021,-2.2919,-2.3596,0.0,-2.4539,-2.6835,-3.0128,0.0,0.0,-3.6215,0.0,-4.063,0.0,-4.0215,0.0,-4.01,-3.8603,-3.6393,-3.444,0.0,-3.2286,-3.0495,-2.917,-2.8483,-2.6658,-2.4801,-2.2926,-2.1644,-2.0961,-2.0817,0.0,0.0,0.0,0.0,-2.6176,-2.8038,-3.0778,-3.2139,0.0,0.0,-3.4881,0.0,0.0,-3.5973,-3.5973,0.0,-3.5782,-3.5688,-3.5638,-3.5272,-3.4921,-3.537,-3.4921,-3.4292,-3.4726,-3.4547,-3.4158,-3.3903,-3.4189,0.0,-3.148,-3.0866,0.0,-2.8408,0.0,0.0,0.0,0.0,0.0,0.0,0.0,-2.8233,-2.7111,-2.5839,-2.4634,0.0,-2.3415,0.0,0.0,0.0,0.0,0.0,0.0,-2.5614,-2.8364,0.0,0.0,0.0,0.0,-3.5079,-3.5309,-3.603,-3.6383,-3.6383,-3.646,-3.6492,-3.6492,-3.6492,-3.6492,-3.6492,-3.6492,-3.6492,-3.6492,-3.6492,-3.6738,-3.72,-3.7877,-3.8554,-3.9198,-3.9874,-4.0274,-4.0489,-4.0489,-4.0489,-4.0489,-2.3579,-2.3511,0.0,0.0,-2.4725,0.0,0.0,0.0,-3.4319,0.0,-3.7569,-3.9113,-4.042,-4.096,-4.1398,-4.181,-4.1566,-4.0733,-3.9126,-3.7334,0.0,0.0,-3.2517,-3.1022,-2.995,-2.83,-2.6214,-2.3685,-2.2539,-2.1751,-2.1383,0.0,0.0,0.0,-2.3694,0.0,-2.6937,-3.0391,-3.2882,-3.4563,-3.5235,-3.5668,-3.5941,-3.5619,-3.5701,-3.5941,-3.5634,-3.5572,-3.5671,-3.5554,-3.5504,-3.5504,-3.5504,-3.5504,-3.5504,-3.5504,-3.5504,-3.5355,-3.4728,-3.4563,-3.4068,-3.2123,0.0,0.0,0.0,0.0,-3.0432,0.0,0.0,0.0,0.0,0.0,0.0,-2.772,-2.6467,-2.5151,0.0,0.0,0.0,0.0,0.0,0.0,0.0,-2.2473,-2.3479,-2.7414,-2.6548,0.0,0.0,0.0,-3.4197,-3.4942,-3.572,-3.618,-3.6196,-3.6383,-3.6492,-3.6492,-3.6492,-3.6492,-3.6492,-3.6492,-3.6492,-3.6492,-3.6492,-3.6492,-3.6538,-3.7215,-3.7877,-3.8539,-3.9198,-3.989,-4.0489,-4.0489,-4.0489,-4.0455,-2.4255,-2.5021,-2.5832,0.0,-2.6909,-2.8179,0.0,0.0,0.0,0.0,-3.9302,-4.0729,-4.2912,-4.3044,-4.2894,-4.2724,-4.1893,0.0,0.0,0.0,0.0,-3.7725,-3.5843,-3.4282,-3.3211,-2.9827,-2.7495,-2.6334,-2.3023,-2.1348,-2.1237,0.0,0.0,0.0,0.0,0.0,-2.6983,-2.8997,-3.1797,-3.4908,-3.5332,-3.5604,0.0,0.0,-3.5604,-3.5767,-3.5554,-3.5537,-3.5554,-3.5504,-3.5504,-3.5504,-3.5504,-3.5504,-3.5504,-3.5504,-3.5504,-3.5474,-3.5295,-3.5235,-3.4996,-3.3978,-3.2976,-3.2093,0.0,0.0,0.0,0.0,0.0,0.0,0.0,0.0,0.0,-2.7944,-2.6467,-2.5315,0.0,0.0,0.0,-2.3932,0.0,0.0,0.0,-2.29,-2.4507,-2.6051,-2.6482,0.0,0.0,0.0,0.0,-3.4212,-3.4942,-3.5566,-3.6053,-3.61,-3.6195,-3.6274,-3.6274,-3.6352,-3.6492,-3.6492,-3.6492,-3.6492,-3.6492,-3.6492,-3.6538,-3.7215,-3.76,-3.7877,-3.8864,-3.9616,-4.0137,-4.0312,-4.0331,-4.0347,-2.5324,0.0,0.0,-2.9326,0.0,0.0,-3.2435,-3.3848,0.0,-3.847,-4.0001,0.0,-4.2748,-4.3319,-4.3522,-4.3281,-4.2705,0.0,-4.143,0.0,0.0,-3.8376,-3.7676,-3.6463,-3.4667,-3.1824,0.0,-2.762,-2.4602,0.0,-2.1106,0.0,0.0,0.0,0.0,-2.3739,-2.6525,-2.938,-3.2204,-3.4815,-3.5299,0.0,0.0,-3.5522,-3.5554,-3.5589,-3.5537,-3.5504,-3.5504,-3.5504,-3.5504,-3.5504,-3.5504,-3.5504,-3.5504,-3.5504,-3.5504,-3.5504,-3.5504,-3.5504,-3.5415,-3.5026,-3.4367,-3.3664,-3.308,-3.2946,-3.2841,0.0,0.0,0.0,0.0,0.0,0.0,-2.7096,-2.5854,-2.5128,0.0,0.0,0.0,0.0,-2.4425,0.0,0.0,-2.2467,-2.3842,-2.5068,-2.5664,0.0,0.0,0.0,0.0,-3.2869,-3.4197,-3.506,-3.5424,-3.5821,-3.6037,-3.6116,-3.6116,-3.6179,-3.6383,-3.632,-3.6367,-3.6492,-3.6414,-3.6414,-3.6522,-3.6829,-3.7088,-3.7487,-3.8669,-3.9295,-3.9621,-3.9909,-4.0086,-4.0137,-2.6686,0.0,0.0,0.0,0.0,0.0,0.0,-3.6032,0.0,-3.851,0.0,-4.1707,-4.1707,-4.282,-4.3598,-4.3598,0.0,-4.3052,-4.1761,-4.2274,-4.1171,-3.7807,-3.8585,-3.7772,-3.5045,-3.3546,-3.124,-2.8071,-2.6242,-2.3846,-2.097,0.0,0.0,0.0,0.0,0.0,0.0,-3.0552,-3.3215,-3.4444,-3.519,-3.5504,-3.5504,-3.5504,-3.5504,-3.5504,-3.5504,-3.5504,-3.5504,-3.5504,-3.5504,-3.5504,-3.5504,-3.5504,-3.5504,-3.5504,-3.5504,-3.5504,-3.5504,-3.5504,-3.5504,-3.5504,-3.5504,-3.519,-3.4023,-3.3754,-3.3754,-3.3754,-3.2856,-3.2467,0.0,0.0,0.0,0.0,0.0,0.0,0.0,0.0,0.0,0.0,0.0,0.0,0.0,0.0,-2.2712,-2.4231,-2.4373,0.0,0.0,0.0,0.0,-3.1481,-3.3306,0.0,-3.4662,0.0,-3.5866,-3.5973,-3.5973,-3.6022,-3.6179,-3.6053,-3.6163,-3.6429,-3.6242,-3.6274,-3.6429,-3.6258,-3.6545,-3.7245,-3.8375,-3.8888,-3.897,-3.9476,-3.9768,-3.9889,-2.8257,0.0,0.0,0.0,0.0,-3.5142,-3.6357,-3.7427,-3.8738,-4.0597,-4.2224,-4.3201,-4.3201,-4.3449,-4.3598,-4.3598,-4.3598,0.0,0.0,0.0,0.0,-3.9278,-3.9295,-3.8138,-3.5452,-3.3006,-3.0683,-2.849,-2.5443,-2.2853,-2.0745,0.0,0.0,0.0,0.0,0.0,-2.5914,-3.0552,0.0,-3.3769,-3.5011,-3.5504,-3.5504,-3.5504,-3.5504,-3.5504,-3.5504,-3.5504,-3.5504,-3.5504,-3.5504,-3.5504,-3.5504,-3.5504,-3.5504,-3.5504,-3.5504,-3.5504,-3.5504,-3.5504,-3.5504,-3.5504,-3.5504,-3.5444,-3.5205,-3.516,-3.516,-3.516,-3.4966,-3.4412,-3.3095,0.0,0.0,0.0,0.0,0.0,0.0,0.0,0.0,0.0,0.0,-2.5689,0.0,0.0,-2.3804,-2.3092,0.0,0.0,0.0,0.0,0.0,0.0,-3.1869,0.0,0.0,0.0,-3.5097,-3.5752,-3.5752,-3.5863,-3.6037,-3.6005,-3.6037,-3.6068,-3.6068,-3.6068,-3.6068,-3.6068,-3.6336,-3.6854,-3.7639,-3.817,-3.8572,-3.9227,-3.9445,-3.9496,-3.0959,0.0,0.0,0.0,0.0,0.0,0.0,-3.9458,-4.0138,-4.0796,-4.1806,-4.2456,-4.2456,-4.3135,-4.3598,-4.3598,-4.3598,-4.3598,-4.3598,-4.295,-4.1808,-4.0087,-3.9014,-3.7684,-3.5988,-3.3697,-3.1584,-2.9594,-2.6602,-2.3969,-2.1724,-2.1036,-2.0524,-2.0303,0.0,-2.4507,0.0,0.0,0.0,-3.3619,-3.4966,-3.5504,-3.5504,-3.5504,-3.5504,-3.5504,-3.5504,-3.5504,-3.5504,-3.5504,-3.5504,-3.5504,-3.5504,-3.5504,-3.5504,-3.5504,-3.5504,-3.5504,-3.5504,-3.5504,-3.5504,-3.5504,-3.5504,-3.5504,-3.5504,-3.5235,-3.4966,-3.4966,-3.4696,-3.3963,-3.2288,-3.0672,0.0,0.0,0.0,0.0,0.0,0.0,-2.8218,0.0,0.0,0.0,0.0,0.0,0.0,0.0,0.0,0.0,0.0,0.0,0.0,0.0,0.0,0.0,0.0,0.0,0.0,-3.5604,-3.5604,-3.5686,-3.5831,-3.5765,-3.5829,-3.6005,-3.5894,-3.5894,-3.6005,-3.5894,-3.5946,-3.616,-3.682,-3.7398,-3.7958,-3.8631,-3.911,-3.9388,0.0,-3.524,0.0,0.0,-3.8093,0.0,-3.9913,-4.0734,-4.1147,-4.0878,-4.1442,-4.186,-4.186,-4.2886,-4.3598,-4.3598,-4.3449,-4.3367,-4.3367,-4.2225,-4.1116,-4.0119,-3.8574,-3.7233,-3.6242,-3.4573,-3.2647,0.0,-2.8173,-2.5525,0.0,-2.1904,-2.16,-2.1854,0.0,0.0,0.0,0.0,-3.2976,-3.3814,-3.5026,-3.5504,-3.5504,-3.5504,-3.5504,-3.5504,-3.5504,-3.5504,-3.5504,-3.5504,-3.5504,-3.5504,-3.5504,-3.5504,-3.5504,-3.5504,-3.5504,-3.5504,-3.5504,-3.5504,-3.5504,-3.5504,-3.5504,-3.5474,-3.5325,-3.4861,-3.4474,-3.4324,-3.3739,-3.2931,-3.172,-3.0687,0.0,0.0,0.0,0.0,0.0,0.0,0.0,0.0,0.0,0.0,-2.2787,0.0,0.0,0.0,0.0,0.0,0.0,0.0,0.0,0.0,0.0,-3.1645,-3.3275,0.0,-3.4681,0.0,-3.5504,-3.5554,-3.5638,-3.5554,-3.5651,-3.5878,-3.575,-3.575,-3.5878,-3.5703,-3.5604,-3.5564,-3.6237,-3.6791,-3.7285,-3.7943,-3.8527,-3.8955,0.0,0.0,0.0,0.0,0.0,0.0,-3.9046,-3.9972,-4.1144,-4.2179,-4.2936,-4.3383,-4.3383,-4.3515,-4.3598,-4.3598,-4.2986,-4.2589,-4.2589,-4.1865,-4.0618,-3.8767,-3.8521,-3.7515,-3.5634,-3.4803,-3.311,0.0,0.0,-2.6437,0.0,-2.3759,-2.456,-2.5196,0.0,0.0,0.0,-3.1629,-3.3245,-3.4474,-3.5205,-3.5504,-3.5504,-3.5504,-3.5504,-3.5504,-3.5504,-3.5504,-3.5504,-3.5504,-3.5504,-3.5504,-3.5504,-3.5504,-3.5504,-3.5504,-3.5504,-3.5504,-3.5504,-3.5504,-3.5504,-3.5504,-3.5504,-3.534,-3.4711,-3.4563,-3.4339,-3.3709,-3.3066,-3.2363,-3.1645,-3.1406,-3.0928,0.0,0.0,0.0,0.0,0.0,-2.922,-2.8502,0.0,0.0,0.0,0.0,0.0,0.0,0.0,0.0,0.0,0.0,0.0,-2.8577,0.0,-3.0073,-3.2587,-3.326,-3.4233,-3.5504,-3.5504,-3.5504,-3.5537,-3.5504,-3.5504,-3.5537,-3.5537,-3.5537,-3.5537,-3.5537,-3.5504,-3.5564,-3.6237,-3.6522,-3.6656,-3.727,-3.7539,-3.7599,0.0,0.0,0.0,0.0,0.0,0.0,0.0,-4.0356,-4.0488,-4.0423,-4.1195,-4.188,-4.23,-4.2349,-4.2506,-4.2974,-4.2334,-4.1926,-4.1956,-4.0537,-3.9317,-3.8519,-3.7328,-3.6486,-3.6053,-3.5023,-3.38,0.0,0.0,0.0,0.0,-2.554,-2.6004,0.0,0.0,-2.9834,-3.145,-3.3021,-3.3993,-3.4563,-3.5235,-3.5504,-3.5504,-3.5504,-3.5504,-3.5504,-3.5504,-3.5504,-3.5504,-3.5504,-3.5504,-3.5504,-3.5504,-3.5504,-3.5504,-3.5504,-3.5504,-3.5504,-3.5504,-3.5504,-3.5504,-3.5504,-3.5504,-3.5429,-3.516,-3.4472,-3.3814,-3.3544,-3.2662,-3.1809,-3.1555,-3.1167,-3.0853,0.0,0.0,0.0,0.0,0.0,0.0,-2.8682,0.0,-2.6183,0.0,0.0,0.0,0.0,0.0,-2.1789,-2.2428,0.0,0.0,-2.732,0.0,-3.0073,-3.1869,-3.2961,-3.3963,-3.4891,-3.531,-3.5504,-3.5504,-3.5504,-3.5504,-3.5504,-3.5504,-3.5504,-3.5504,-3.5504,-3.5504,-3.5534,-3.5804,-3.6148,-3.6522,-3.6761,-3.709,-3.7404,-4.0172,0.0,-3.9991,0.0,-4.1278,-4.0413,-4.0721,-4.0435,-3.9832,-3.881,-3.939,-4.025,-4.1194,-4.1399,-4.1722,-4.2221,-4.1594,-4.1193,-4.1255,-3.9495,-3.8477,-3.8466,-3.6733,0.0,-3.6423,-3.5356,-3.4488,-3.3784,-3.1763,0.0,0.0,-2.753,-2.7844,0.0,-3.0687,-3.1839,-3.3155,-3.4114,-3.4623,-3.4848,-3.531,-3.5504,-3.5504,-3.5504,-3.5504,-3.5504,-3.5504,-3.5504,-3.5504,-3.5504,-3.5624,-3.5759,-3.5564,-3.5504,-3.5504,-3.5504,-3.5504,-3.5504,-3.5504,-3.5504,-3.5504,-3.5504,-3.5504,-3.54,-3.5011,-3.4173,-3.338,-3.2991,-3.2153,-3.1511,-3.1511,-3.1107,-3.0868,-3.1152,0.0,0.0,0.0,-3.0283,0.0,-2.8951,-2.753,-2.6303,-2.5555,0.0,0.0,0.0,0.0,-2.3131,-2.2862,0.0,0.0,0.0,0.0,0.0,0.0,-3.2841,-3.3829,-3.4518,-3.5175,-3.5504,-3.5504,-3.5504,-3.5504,-3.5504,-3.5504,-3.5504,-3.5504,-3.5504,-3.5504,-3.5504,-3.5504,-3.5789,-3.6193,-3.6193,-3.6477,-3.6851,-4.0845,-4.0737,-4.096,-4.3125,-4.2798,-4.1789,-4.0433,-3.9916,-3.9285,-3.8089,-3.8215,-3.9006,-4.0626,-4.1212,-4.1492,-4.1525,-4.0845,-4.0402,-4.0402,-3.914,-3.8404,0.0,0.0,-3.6421,-3.6495,-3.5833,-3.516,-3.4503,0.0,0.0,-3.0462,-2.9834,-3.0582,-3.2437,-3.2482,-3.3215,-3.4488,-3.4503,-3.4861,-3.5489,-3.5504,-3.5504,-3.5504,-3.5504,-3.5504,-3.5504,-3.5504,-3.5504,-3.5504,-3.5504,-3.5938,-3.6357,-3.5714,-3.5504,-3.5504,-3.5504,-3.5504,-3.5504,-3.5504,-3.5504,-3.5504,-3.5504,-3.5504,-3.516,-3.3829,-3.3499,-3.3125,-3.1795,-3.1511,-3.1511,-3.1511,-3.1496,-3.1271,-3.0627,0.0,0.0,0.0,0.0,0.0,-2.9592,-2.7814,-2.6866,-2.7495,0.0,0.0,0.0,0.0,-2.4859,-2.5525,0.0,0.0,-2.8442,-2.8607,0.0,-3.1481,-3.2841,-3.3829,-3.4518,-3.5175,-3.5504,-3.5504,-3.5504,-3.5504,-3.5504,-3.5504,-3.5504,-3.5504,-3.5504,-3.5504,-3.5504,-3.5504,-3.5504,-3.5519,-3.5519,-3.5519,-3.5534,-4.1756,-4.1437,-4.1354,-4.2596,-4.2046,-4.1016,-3.9882,-3.9435,-3.8825,-3.7759,-3.8198,-3.886,-3.9493,-3.9853,-4.027,0.0,-4.0135,-3.9747,0.0,-3.891,-3.8198,-3.7729,-3.7303,-3.6887,-3.6525,-3.6282,-3.5848,-3.5175,0.0,0.0,0.0,-3.2826,-3.3275,-3.3873,-3.4337,-3.4786,-3.5175,-3.5175,-3.5295,-3.5504,-3.5504,-3.5504,-3.5549,-3.6013,-3.6178,-3.6237,-3.6656,-3.6806,-3.6806,-3.6806,-3.6941,-3.709,-3.6866,-3.6507,-3.6088,-3.5639,-3.5504,-3.5504,-3.5504,-3.5504,-3.5504,-3.5504,-3.5504,-3.5385,-3.4966,-3.4158,-3.3125,-3.178,-3.1511,-3.1511,-3.1511,-3.1511,-3.1436,-3.1212,-3.1361,0.0,0.0,0.0,-2.9442,-2.8966,-2.8353,-2.7859,0.0,-2.721,0.0,0.0,0.0,0.0,0.0,0.0,0.0,0.0,-2.8966,0.0,-3.0821,-3.2602,-3.3604,-3.3829,-3.4966,-3.5504,-3.5504,-3.5504,-3.5504,-3.5504,-3.5504,-3.5504,-3.5504,-3.5504,-3.5504,-3.5504,-3.5504,-3.5504,-3.5504,-3.5504,-3.5504,-3.5504,-4.1885,-4.1459,-4.1209,-4.1933,-4.126,-4.0328,-3.9428,-3.9278,-3.8922,-3.7883,-3.8591,-3.9163,-3.9078,-3.941,0.0,-4.0056,-3.966,-3.9417,-3.9466,-3.8793,-3.8315,-3.8153,-3.7674,-3.7345,-3.721,-3.6956,0.0,-3.6222,-3.5564,-3.4923,-3.4262,-3.4666,-3.4861,-3.4876,-3.531,-3.5504,-3.5504,-3.5504,-3.5504,-3.5504,-3.5504,-3.5654,-3.5923,-3.6327,-3.6626,-3.6881,-3.727,-3.7404,-3.7404,-3.7404,-3.7569,-3.7734,-3.7479,-3.7315,-3.703,-3.6133,-3.5878,-3.5818,-3.5564,-3.5504,-3.5504,-3.5504,-3.5504,-3.5429,-3.5175,-3.4277,-3.3185,-3.2093,-3.1869,-3.1795,-3.1555,-3.1511,-3.1511,-3.1511,-3.1511,-3.1271,-3.0597,0.0,-2.943,0.0,0.0,0.0,0.0,-2.8349,-2.8109,0.0,0.0,0.0,0.0,0.0,0.0,-2.7694,-2.952,0.0,-3.1255,-3.2751,-3.3619,-3.3873,-3.4981,-3.5504,-3.5504,-3.5504,-3.5504,-3.5504,-3.5504,-3.5504,-3.5504,-3.5504,-3.5504,-3.5504,-3.5504,-3.5504,-3.5504,-3.5504,-3.5504,-3.5504,-4.1276,-4.0888,-4.0646,0.0,-4.0578,0.0,-3.91,-3.937,-3.9344,-3.8376,-3.9234,-3.9762,-3.931,-3.9706,-3.9854,-3.9445,0.0,0.0,0.0,-3.8811,-3.8751,-3.9358,-3.8212,-3.7808,-3.8377,-3.7793,-3.7464,-3.7404,-3.6836,-3.6207,-3.5579,-3.5579,-3.5549,-3.5504,-3.5504,-3.5504,-3.5504,-3.5504,-3.5534,-3.5579,-3.5579,-3.5968,-3.6552,-3.6596,-3.6971,-3.7479,-3.7524,-3.7554,-3.7554,-3.7554,-3.7958,-3.8362,-3.7749,-3.7973,-3.8197,-3.6881,-3.6492,-3.6342,-3.5684,-3.5504,-3.5504,-3.5504,-3.5504,-3.5325,-3.4668,-3.4039,-3.338,-3.2721,-3.2512,-3.2303,-3.169,-3.154,-3.1511,-3.1511,-3.1466,-3.1197,-3.0537,0.0,0.0,0.0,0.0,0.0,0.0,-2.9696,-2.9879,0.0,0.0,0.0,0.0,0.0,-2.7735,-2.9579,-3.0298,-3.1255,-3.2497,-3.3215,-3.3903,-3.4593,-3.519,-3.5504,-3.5504,-3.5504,-3.5504,-3.5504,-3.5504,-3.5504,-3.5504,-3.5504,-3.5504,-3.5504,-3.5504,-3.5504,-3.5504,-3.5504,-3.5504,-3.5504,0.0,0.0,-4.0401,-4.0524,-4.0366,-3.9997,-3.9261,-3.9257,-3.9226,-3.8974,-3.9127,-3.9443,-3.9986,-4.001,-3.996,-3.9869,-3.9696,-3.9553,-3.9424,-3.9275,-3.9245,-3.9373,-3.911,-3.8766,-3.8407,-3.8242,-3.7913,-3.7404,-3.727,-3.6866,-3.6252,-3.6252,-3.5983,-3.5504,-3.5504,-3.5504,-3.5504,-3.5504,-3.5804,-3.6252,-3.6252,-3.6626,-3.724,-3.7749,-3.8033,-3.8227,-3.8751,-3.8945,-3.8945,-3.8945,-3.905,-3.9155,-3.899,-3.905,-3.8826,-3.7015,-3.6492,-3.6342,-3.5684,-3.5504,-3.5504,-3.5504,-3.5504,-3.5325,-3.4668,-3.4384,-3.4053,-3.3395,-3.2856,-3.2437,-3.2273,-3.1854,-3.1511,-3.1511,-3.1062,-3.0522,-2.9894,-2.9696,0.0,0.0,-2.9549,-2.9924,-2.9636,-3.0492,-3.0298,0.0,0.0,0.0,0.0,-2.9101,-2.9789,-3.0268,-3.1435,-3.2198,-3.2512,-3.3664,-3.4592,-3.5265,-3.5429,-3.5504,-3.5504,-3.5504,-3.5504,-3.5504,-3.5504,-3.5504,-3.5504,-3.5504,-3.5504,-3.5504,-3.5504,-3.5504,-3.5504,-3.5504,-3.5504,-3.5504,-4.0226,-4.0331,-4.0331,-4.0172,-4.0242,-4.0032,-3.9242,-3.9429,-3.9574,-3.9253,-3.9478,-3.9829,-4.0266,-4.0277,-4.0207,-4.0137,-3.996,-3.9768,-3.9676,-3.9604,-3.9553,-3.9553,-3.9445,-3.9245,-3.8871,-3.8856,-3.8527,-3.7853,-3.7853,-3.7389,-3.6492,-3.6776,-3.6567,-3.5968,-3.6252,-3.6372,-3.6372,-3.6372,-3.6582,-3.6911,-3.6911,-3.7285,-3.7898,-3.8257,-3.8586,-3.8901,-3.929,-3.9388,-3.9388,-3.9388,-3.9388,-3.9388,-3.9388,-3.9388,-3.9155,-3.7764,-3.715,-3.6761,-3.6133,-3.5729,-3.5504,-3.5504,-3.5504,-3.54,-3.504,-3.4951,-3.4756,-3.4114,-3.3664,-3.323,-3.2617,-3.2183,-3.1854,-3.1555,-3.1197,-3.0746,-3.0103,-2.9998,0.0,-2.952,-3.0088,-3.0492,-3.0477,-3.1092,-3.0913,-2.949,-3.0372,0.0,-2.9445,-3.0387,-3.0943,-3.0943,-3.1944,-3.2796,-3.341,-3.4427,-3.513,-3.5504,-3.5504,-3.5504,-3.5504,-3.5504,-3.5504,-3.5504,-3.5504,-3.5504,-3.5504,-3.5504,-3.5504,-3.5504,-3.5504,-3.5504,-3.5504,-3.5504,-3.5504,-3.5504,-4.0246,-4.0316,-4.0246,-3.9925,-4.0066,-3.9973,-3.9167,-3.9771,-4.0047,-3.9417,-3.9983,-4.0436,-4.0331,-4.0436,-4.0455,-4.0331,-4.0172,-4.0031,-3.996,-3.9803,-3.9696,-3.9661,-3.9481,-3.9388,-3.9388,-3.9424,-3.9161,-3.8612,-3.8612,-3.7978,-3.6791,-3.7315,-3.7225,-3.6656,-3.718,-3.7404,-3.7404,-3.7404,-3.7464,-3.7554,-3.7554,-3.7958,-3.8542,-3.8542,-3.8901,-3.9388,-3.9388,-3.9388,-3.9388,-3.9388,-3.9388,-3.9388,-3.9388,-3.9388,-3.9305,-3.8721,-3.8003,-3.727,-3.6656,-3.6013,-3.5504,-3.5504,-3.5504,-3.5504,-3.5504,-3.5504,-3.534,-3.4788,-3.4578,-3.4159,-3.3021,-3.2647,-3.2303,-3.1735,-3.1481,-3.1152,-3.0582,0.0,-3.0507,-3.0507,-3.0597,-3.0853,-3.1451,-3.1511,-3.1511,-3.1511,-3.1511,-3.1511,-3.1511,-3.1511,-3.1585,-3.1795,-3.2333,-3.329,-3.4653,-3.522,-3.5504,-3.5504,-3.5504,-3.5504,-3.5504,-3.5504,-3.5504,-3.5504,-3.5504,-3.5504,-3.5504,-3.5504,-3.5504,-3.5504,-3.5504,-3.5504,-3.5504,-3.5504,-3.5504,-3.5504,-3.9358,-3.9451,-3.9487,-3.9286,-3.9696,-3.9895,-3.9433,-3.9884,-4.0196,-3.9914,-4.013,-4.0366,-4.047,-4.0489,-4.0489,-4.0455,-4.042,-4.0226,-3.9768,-3.9732,-3.961,-3.9445,-3.9424,-3.9388,-3.9388,-3.9553,-3.96,-3.9495,-3.9495,-3.9018,-3.8093,-3.8197,-3.7883,-3.727,-3.736,-3.7404,-3.7404,-3.7404,-3.7734,-3.8242,-3.8242,-3.8646,-3.926,-3.926,-3.9334,-3.9388,-3.9388,-3.9388,-3.9388,-3.9388,-3.9388,-3.9388,-3.9388,-3.9388,-3.9394,-3.929,-3.8377,-3.727,-3.6656,-3.6013,-3.5504,-3.5504,-3.5504,-3.5504,-3.5504,-3.5504,-3.5474,-3.537,-3.4876,-3.4444,-3.4234,-3.326,-3.2482,-3.2348,-3.1376,-3.0627,-3.0507,0.0,-3.0507,-3.0507,-3.0987,-3.1391,-3.1496,-3.1511,-3.1511,-3.1511,-3.1511,-3.1511,-3.1511,-3.1511,-3.2019,-3.3155,-3.329,-3.3993,-3.5325,-3.5444,-3.5504,-3.5504,-3.5504,-3.5504,-3.5504,-3.5504,-3.5504,-3.5504,-3.5504,-3.5504,-3.5504,-3.5504,-3.5504,-3.5504,-3.5504,-3.5504,-3.5504,-3.5504,-3.5504,-3.5504,-3.9235,-3.9451,-3.9502,-3.9177,-3.9286,-3.9275,-3.8773,-3.9526,-3.9929,-3.9375,-3.9963,-4.0401,-4.0401,-4.047,-4.0489,-4.0489,-4.0489,-4.0351,-4.0051,-3.991,-3.9818,-3.9711,-3.9532,-3.9388,-3.9388,-3.9589,-3.9681,-3.9681,-3.9803,-3.9456,-3.8721,-3.8978,-3.8762,-3.8112,-3.8367,-3.8497,-3.8497,-3.8497,-3.8676,-3.8945,-3.8945,-3.9125,-3.9388,-3.9388,-3.9388,-3.9388,-3.9388,-3.9388,-3.9388,-3.9388,-3.9388,-3.9388,-3.9388,-3.9388,-3.9388,-3.9388,-3.8467,-3.7195,-3.6222,-3.5744,-3.5504,-3.5504,-3.5504,-3.5504,-3.5504,-3.5504,-3.5504,-3.5504,-3.525,-3.4921,-3.4578,-3.3694,-3.3036,-3.3036,-3.1928,0.0,0.0,-3.1256,-3.1032,-3.1032,-3.1316,-3.1511,-3.1511,-3.1511,-3.1511,-3.1511,-3.1511,-3.1511,-3.1511,-3.1511,-3.1944,-3.2931,-3.4008,-3.4876,-3.5489,-3.5504,-3.5504,-3.5504,-3.5504,-3.5504,-3.5504,-3.5504,-3.5504,-3.5504,-3.5504,-3.5504,-3.5504,-3.5504,-3.5504,-3.5504,-3.5504,-3.5504,-3.5504,-3.5504,-3.5504,-3.5504,-3.9038,-3.9271,-3.9322,-3.8943,-3.8943,-3.8766,-3.8248,-3.9137,-3.9607,-3.8888,-3.9631,-4.0211,-4.0086,-4.0176,-4.0231,-4.0231,-4.0316,-4.0331,-4.0242,-4.0137,-4.0031,-4.0011,-3.9711,-3.9568,-3.9604,-3.9768,-3.9839,-3.9839,-3.9996,-3.9792,-3.9241,-3.9597,-3.9496,-3.9028,-3.9364,-3.9532,-3.9532,-3.9532,-3.9532,-3.9532,-3.9532,-3.9532,-3.9532,-3.9532,-3.9532,-3.9532,-3.9496,-3.9445,-3.9445,-3.9424,-3.9388,-3.9388,-3.9388,-3.9388,-3.9388,-3.9388,-3.8467,-3.7165,-3.6043,-3.5624,-3.5504,-3.5504,-3.5504,-3.5504,-3.5504,-3.5504,-3.5504,-3.5504,-3.5504,-3.534,-3.4848,-3.4173,-3.3679,-3.3529,0.0,0.0,0.0,-3.1824,-3.1511,-3.1511,-3.1511,-3.1511,-3.1511,-3.1511,-3.1511,-3.1511,-3.1511,-3.1511,-3.1511,-3.1511,-3.1809,-3.2497,-3.4307,-3.534,-3.5504,-3.5504,-3.5504,-3.5504,-3.5504,-3.5504,-3.5504,-3.5504,-3.5504,-3.5504,-3.5504,-3.5504,-3.5504,-3.5504,-3.5504,-3.5504,-3.5504,-3.5504,-3.5504,-3.5504,-3.5504,-3.5504,-3.8277,-3.8315,-3.8315,-3.8277,-3.8575,-3.8745,-3.8531,-3.9023,-3.9349,-3.9103,-3.9313,-3.9487,-3.9487,-3.9487,-3.9472,-3.9472,-3.9839,-4.0031,-4.0031,-4.0172,-4.0207,-4.0011,-3.996,-4.0031,-4.0242,-4.0242,-4.0277,-4.0277,-4.0277,-4.0141,-3.9935,-3.998,-3.9945,-3.99,-3.9945,-3.9975,-3.9975,-3.9975,-3.9975,-3.9975,-3.9975,-3.9975,-3.9975,-3.9975,-3.9975,-3.9925,-3.9732,-3.9696,-3.9661,-3.9445,-3.9388,-3.9388,-3.9388,-3.9388,-3.9388,-3.9388,-3.8467,-3.727,-3.6596,-3.5968,-3.5504,-3.5504,-3.5504,-3.5504,-3.5504,-3.5504,-3.5504,-3.5504,-3.5504,-3.5489,-3.5444,-3.4861,-3.4234,-3.3589,0.0,0.0,-3.1645,-3.1525,-3.1511,-3.1511,-3.1511,-3.1511,-3.1511,-3.1511,-3.1511,-3.1511,-3.1511,-3.1511,-3.1511,-3.1511,-3.1809,-3.2497,-3.3844,-3.4861,-3.5489,-3.5504,-3.5504,-3.5504,-3.5504,-3.5504,-3.5504,-3.5504,-3.5504,-3.5504,-3.5504,-3.5504,-3.5504,-3.5504,-3.5504,-3.5504,-3.5504,-3.5504,-3.5504,-3.5504,-3.5504,-3.5504,-3.8202,-3.8202,-3.8202,-3.8202,-3.7929,-3.7711,-3.7747,-3.8149,-3.8438,-3.8381,-3.896,-3.94,-3.94,-3.94,-3.94,-3.94,-3.9523,-3.9646,-3.9646,-3.9717,-3.9824,-3.9996,-4.0011,-4.0046,-4.0101,-4.0242,-4.0312,-4.0312,-4.0366,-4.0366,-4.0296,-4.0226,-4.0172,-4.0172,-4.0081,-4.0011,-4.0011,-4.0011,-4.0011,-4.0011,-4.0011,-4.0011,-4.0011,-4.0011,-4.0011,-3.996,-3.9768,-3.9681,-3.9661,-3.9445,-3.9388,-3.9388,-3.9388,-3.9388,-3.9388,-3.9388,-3.8467,-3.736,-3.712,-3.6297,-3.5504,-3.5504,-3.5504,-3.5504,-3.5504,-3.5504,-3.5504,-3.5504,-3.5504,-3.5504,-3.5504,-3.4936,-3.4429,-3.4174,0.0,-3.2392,-3.2153,-3.1765,-3.1511,-3.1511,-3.1511,-3.1511,-3.1511,-3.1511,-3.1511,-3.1511,-3.1511,-3.1511,-3.1511,-3.1511,-3.1989,-3.3095,-3.3604,-3.4188,-3.4861,-3.5295,-3.5504,-3.5504,-3.5504,-3.5504,-3.5504,-3.5504,-3.5504,-3.5504,-3.5504,-3.5504,-3.5504,-3.5504,-3.5504,-3.5504,-3.5504,-3.5504,-3.5504,-3.5504,-3.5504,-3.5504,-3.7651,-3.7781,-3.7926,-3.7926,-3.7622,-3.7418,-3.7564,-3.7813,-3.7981,-3.7981,-3.859,-3.9002,-3.9002,-3.9002,-3.9002,-3.9002,-3.9147,-3.922,-3.922,-3.9328,-3.9574,-3.996,-4.0011,-4.0031,-4.0156,-4.0296,-4.0366,-4.0366,-4.0455,-4.0489,-4.0489,-4.0401,-4.0366,-4.0366,-4.0242,-4.0172,-4.0172,-4.0172,-4.0137,-4.0101,-4.0101,-4.0066,-4.0011,-4.0011,-4.0011,-3.996,-3.9768,-3.9681,-3.9661,-3.9445,-3.9388,-3.9388,-3.9388,-3.9388,-3.9388,-3.9388,-3.8467,-3.7404,-3.7404,-3.6477,-3.5504,-3.5504,-3.5504,-3.5504,-3.5504,-3.5504,-3.5504,-3.5504,-3.5504,-3.5504,-3.5504,-3.5115,-3.4758,-3.4533,-3.3544,-3.2751,-3.2542,-3.1914,-3.1511,-3.1511,-3.1511,-3.1511,-3.1511,-3.1511,-3.1511,-3.1511,-3.1511,-3.1511,-3.1511,-3.1511,-3.2004,-3.3155,-3.338,-3.3814,-3.4503,-3.516,-3.5504,-3.5504,-3.5504,-3.5504,-3.5504,-3.5504,-3.5504,-3.5504,-3.5504,-3.5504,-3.5504,-3.5504,-3.5504,-3.5504,-3.5504,-3.5504,-3.5504,-3.5504,-3.5504,-3.5504,-3.6446,-3.6838,-3.7302,-3.7302,-3.7781,-3.8188,-3.8188,-3.8188,-3.8188,-3.8188,-3.8202,-3.8202,-3.8202,-3.8202,-3.8202,-3.8202,-3.856,-3.8797,-3.8797,-3.9184,-3.9559,-3.996,-4.0011,-4.0172,-4.0489,-4.0489,-4.0489,-4.0489,-4.0489,-4.0489,-4.0489,-4.0489,-4.0489,-4.0489,-4.0489,-4.0489,-4.0489,-4.0489,-4.0436,-4.0312,-4.0312,-4.0172,-4.0011,-4.0011,-4.0011,-3.996,-3.9768,-3.9681,-3.9661,-3.9445,-3.9388,-3.9388,-3.9388,-3.9388,-3.9388,-3.9388,-3.8431,-3.7419,-3.7404,-3.6477,-3.5519,-3.5504,-3.5504,-3.5504,-3.5504,-3.5504,-3.5504,-3.5504,-3.5504,-3.5504,-3.5504,-3.5504,-3.5265,-3.4623,-3.3918,-3.326,-3.2572,-3.1929,-3.1511,-3.1511,-3.1511,-3.1511,-3.1511,-3.1511,-3.1511,-3.1511,-3.1511,-3.1511,-3.1511,-3.1511,-3.1809,-3.2497,-3.3155,-3.3814,-3.4503,-3.516,-3.5504,-3.5504,-3.5504,-3.5489,-3.5489,-3.5489,-3.5489,-3.5489,-3.5504,-3.5504,-3.5504,-3.5504,-3.5504,-3.5504,-3.5504,-3.5504,-3.5504,-3.5504,-3.5504,-3.5504,-3.6344,-3.646,-3.6606,-3.6606,-3.6388,-3.6395,-3.6809,-3.6881,-3.7041,-3.752,-3.7941,-3.8202,-3.8202,-3.8202,-3.8202,-3.8202,-3.8315,-3.8389,-3.8389,-3.8486,-3.876,-3.9126,-3.9696,-4.0031,-4.0137,-4.0366,-4.0489,-4.0489,-4.0489,-4.0489,-4.0489,-4.0489,-4.0489,-4.0505,-4.0401,-4.0366,-4.0331,-4.0207,-4.0137,-4.0101,-4.0101,-4.0031,-4.0011,-4.0011,-4.0011,-3.996,-3.9768,-3.9681,-3.9661,-3.9445,-3.9388,-3.9388,-3.9388,-3.9388,-3.9388,-3.9388,-3.8796,-3.8003,-3.7539,-3.6806,-3.6088,-3.5624,-3.5504,-3.5504,-3.5504,-3.5504,-3.5504,-3.5504,-3.5504,-3.5504,-3.5504,-3.5115,-3.4711,-3.4533,-3.3918,-3.326,-3.2572,-3.2318,-3.2019,-3.1555,-3.1511,-3.1511,-3.1511,-3.1511,-3.1511,-3.1511,-3.1511,-3.1511,-3.1511,-3.1511,-3.1809,-3.2497,-3.3155,-3.3814,-3.4503,-3.516,-3.5504,-3.5489,-3.5011,-3.4786,-3.4786,-3.4786,-3.4786,-3.4801,-3.5295,-3.5504,-3.5504,-3.5504,-3.5504,-3.5504,-3.5504,-3.5504,-3.5504,-3.5504,-3.5504,-3.5504,-3.5604,-3.5764,-3.5923,-3.5923,-3.5822,-3.5865,-3.6243,-3.6301,-3.646,-3.6867,-3.7462,-3.7839,-3.7839,-3.8057,-3.8202,-3.8202,-3.8202,-3.8202,-3.8202,-3.8202,-3.8315,-3.856,-3.9162,-3.9661,-3.9996,-4.0331,-4.0489,-4.0489,-4.0489,-4.0489,-4.0489,-4.0489,-4.0489,-4.0489,-4.0366,-4.0312,-4.0277,-4.0081,-3.996,-3.9889,-3.9889,-3.9818,-3.9747,-3.9747,-3.9747,-3.9747,-3.9625,-3.9589,-3.9553,-3.946,-3.9388,-3.9388,-3.9388,-3.9388,-3.9388,-3.9388,-3.8931,-3.8302,-3.7898,-3.715,-3.6387,-3.5998,-3.5699,-3.5504,-3.5504,-3.5504,-3.5504,-3.5504,-3.5504,-3.5504,-3.5504,-3.516,-3.4891,-3.4891,-3.4098,-3.344,-3.3305,-3.2617,-3.2049,-3.1914,-3.166,-3.1511,-3.1511,-3.1511,-3.1511,-3.1511,-3.1511,-3.1511,-3.1511,-3.1511,-3.1929,-3.2871,-3.329,-3.3814,-3.4503,-3.4891,-3.51,-3.51,-3.4412,-3.4249,-3.4503,-3.4234,-3.4264,-3.4533,-3.4921,-3.51,-3.5115,-3.5385,-3.5504,-3.5504,-3.5504,-3.5504,-3.5504,-3.5504,-3.5504,-3.5504,-3.453,-3.4878,-3.5319,-3.5319,-3.5749,-3.6141,-3.6141,-3.6185,-3.6228,-3.6228,-3.6809,-3.7244,-3.7302,-3.7796,-3.8144,-3.8202,-3.8202,-3.8202,-3.8202,-3.8202,-3.8202,-3.8202,-3.8612,-3.9126,-3.9889,-4.0261,-4.0455,-4.0489,-4.0489,-4.0489,-4.0489,-4.0455,-4.0455,-4.047,-4.0331,-4.0242,-4.0226,-4.0031,-3.9854,-3.9661,-3.9661,-3.9553,-3.9388,-3.9388,-3.9388,-3.9388,-3.9388,-3.9388,-3.9388,-3.9388,-3.9388,-3.9388,-3.9388,-3.9388,-3.9388,-3.9388,-3.8975,-3.8467,-3.8407,-3.7494,-3.6552,-3.6492,-3.5998,-3.5504,-3.5504,-3.5504,-3.5504,-3.5504,-3.5504,-3.5504,-3.5504,-3.5459,-3.5429,-3.5489,-3.4427,-3.3784,-3.4414,-3.2931,-3.1974,-3.2512,-3.1989,-3.1585,-3.1585,-3.154,-3.1511,-3.1511,-3.1511,-3.1511,-3.1511,-3.157,-3.2138,-3.3365,-3.3529,-3.3844,-3.4414,-3.4414,-3.4414,-3.4414,-3.3724,-3.3724,-3.4309,-3.3739,-3.3784,-3.4339,-3.4459,-3.4474,-3.4474,-3.507,-3.537,-3.5415,-3.5415,-3.5444,-3.5504,-3.5504,-3.5504,-3.5504,-3.4443,-3.453,-3.4617,-3.4617,-3.4733,-3.482,-3.482,-3.5256,-3.561,-3.561,-3.6127,-3.6722,-3.7244,-3.7418,-3.7694,-3.8159,-3.8202,-3.8202,-3.8202,-3.8202,-3.8202,-3.8202,-3.8612,-3.8892,-3.9053,-3.9768,-4.0242,-4.0489,-4.0401,-4.0401,-4.0489,-4.0226,-4.0207,-4.0331,-3.9965,-3.9839,-3.9839,-3.9625,-3.9481,-3.9445,-3.9445,-3.946,-3.9388,-3.9388,-3.9388,-3.9388,-3.9388,-3.9388,-3.9388,-3.9388,-3.9388,-3.9388,-3.9388,-3.9388,-3.9388,-3.9388,-3.932,-3.908,-3.8542,-3.7808,-3.709,-3.6611,-3.5998,-3.5504,-3.5504,-3.5504,-3.5504,-3.5504,-3.5504,-3.5504,-3.5504,-3.5055,-3.4876,-3.5415,-3.4816,-3.4339,-3.4488,-3.4098,-3.3709,-3.332,-3.2706,-3.2273,-3.2273,-3.1809,-3.1511,-3.1511,-3.1511,-3.1511,-3.1511,-3.1989,-3.2437,-3.2721,-3.3724,-3.4114,-3.3709,-3.3709,-3.3709,-3.3709,-3.3036,-3.2796,-3.2961,-3.332,-3.329,-3.2991,-3.4023,-3.4219,-3.3724,-3.3858,-3.4233,-3.4728,-3.4728,-3.5026,-3.5504,-3.5504,-3.5504,-3.5504,-3.4414,-3.4414,-3.4414,-3.4414,-3.4414,-3.4414,-3.4414,-3.4704,-3.4907,-3.4907,-3.5473,-3.5981,-3.6344,-3.6939,-3.7549,-3.8144,-3.8202,-3.8202,-3.8202,-3.8104,-3.8066,-3.8066,-3.8179,-3.8315,-3.8501,-3.8922,-3.9466,-4.0106,-4.0121,-4.0207,-4.0261,-4.0172,-4.0137,-4.0137,-3.9839,-3.9681,-3.9696,-3.9496,-3.9388,-3.9388,-3.9388,-3.9388,-3.9388,-3.9388,-3.9388,-3.9388,-3.9388,-3.9388,-3.9388,-3.9388,-3.9388,-3.9388,-3.9388,-3.9388,-3.9388,-3.9388,-3.9388,-3.9298,-3.8975,-3.8153,-3.733,-3.7,-3.6207,-3.5504,-3.5504,-3.5504,-3.5504,-3.5504,-3.5504,-3.5504,-3.5504,-3.5205,-3.5085,-3.5444,-3.4921,-3.4623,-3.4921,-3.4412,-3.3993,-3.3994,-3.338,-3.2856,-3.2542,-3.1884,-3.1511,-3.1511,-3.1511,-3.1511,-3.1511,-3.2123,-3.2512,-3.2512,-3.3484,-3.3694,-3.3036,-3.3021,-3.2871,-3.2557,-3.2183,-3.2183,-3.2512,-3.2512,-3.2542,-3.2557,-3.3245,-3.335,-3.3051,-3.3365,-3.3709,-3.4008,-3.4008,-3.4427,-3.5011,-3.5011,-3.522,-3.5459,-3.4414,-3.4414,-3.4414,-3.4414,-3.4414,-3.4414,-3.4414,-3.4414,-3.4414,-3.4414,-3.4878,-3.5276,-3.5392,-3.6533,-3.7549,-3.8144,-3.8115,-3.8043,-3.8043,-3.7768,-3.7656,-3.7809,-3.762,-3.7686,-3.8127,-3.8127,-3.8575,-3.9538,-3.9661,-3.9747,-3.9818,-3.998,-3.998,-3.9854,-3.9696,-3.9661,-3.9661,-3.9445,-3.9388,-3.9388,-3.9388,-3.9388,-3.9388,-3.9388,-3.9388,-3.9388,-3.9388,-3.9388,-3.9388,-3.9388,-3.9388,-3.9388,-3.9388,-3.9388,-3.9388,-3.9388,-3.9388,-3.9388,-3.9388,-3.8512,-3.7539,-3.7434,-3.6537,-3.5639,-3.5534,-3.5504,-3.5504,-3.5504,-3.5504,-3.5504,-3.5504,-3.5504,-3.5504,-3.5504,-3.5026,-3.4861,-3.5429,-3.4547,-3.4038,-3.4608,-3.3963,-3.3245,-3.2587,-3.1884,-3.1511,-3.1511,-3.1511,-3.1511,-3.1511,-3.2123,-3.2512,-3.2512,-3.3155,-3.3185,-3.2497,-3.2512,-3.2153,-3.1511,-3.1511,-3.1795,-3.2303,-3.1869,-3.1914,-3.2333,-3.2437,-3.2422,-3.2363,-3.2931,-3.323,-3.332,-3.332,-3.3724,-3.4339,-3.4339,-3.4666,-3.5085,-3.4414,-3.4414,-3.4414,-3.4414,-3.4414,-3.4414,-3.4414,-3.4414,-3.4414,-3.4414,-3.4486,-3.4748,-3.5334,-3.6533,-3.7549,-3.8144,-3.7723,-3.7433,-3.7433,-3.6845,-3.6802,-3.7367,-3.7197,-3.7345,-3.7915,-3.7777,-3.8089,-3.8929,-3.876,-3.8811,-3.8965,-3.898,-3.909,-3.9213,-3.9373,-3.946,-3.946,-3.9409,-3.9388,-3.9388,-3.9388,-3.9388,-3.9388,-3.9388,-3.9388,-3.9388,-3.9388,-3.9388,-3.9388,-3.9388,-3.9388,-3.9388,-3.9388,-3.9388,-3.9388,-3.9388,-3.9388,-3.9388,-3.9388,-3.8856,-3.8123,-3.7554,-3.6881,-3.6207,-3.5639,-3.5504,-3.5504,-3.5504,-3.5504,-3.5504,-3.5504,-3.5504,-3.5504,-3.5504,-3.5429,-3.54,-3.5489,-3.5355,-3.5265,-3.5355,-3.4262,-3.3245,-3.2587,-3.1884,-3.1511,-3.1511,-3.1511,-3.1511,-3.1511,-3.2123,-3.2512,-3.2512,-3.3155,-3.3185,-3.2497,-3.2512,-3.2153,-3.1511,-3.1511,-3.1555,-3.1645,-3.2123,-3.2093,-3.1675,-3.2243,-3.2168,-3.1645,-3.1735,-3.2108,-3.2647,-3.2647,-3.3051,-3.3634,-3.3634,-3.3679,-3.3754,-3.4414,-3.4414,-3.4414,-3.4414,-3.4414,-3.4414,-3.4414,-3.4414,-3.4414,-3.4414,-3.4414,-3.4516,-3.4806,-3.5981,-3.7012,-3.7651,-3.7767,-3.7665,-3.7331,-3.7139,-3.7065,-3.7119,-3.7062,-3.7187,-3.7572,-3.738,-3.7443,-3.7772,-3.8165,-3.8389,-3.8464,-3.8575,-3.8723,-3.8943,-3.9017,-3.9177,-3.9388,-3.9388,-3.9388,-3.9388,-3.9388,-3.9388,-3.9388,-3.9388,-3.9388,-3.9388,-3.9388,-3.9388,-3.9388,-3.9388,-3.9388,-3.9388,-3.9388,-3.9388,-3.9388,-3.9388,-3.9388,-3.9298,-3.8945,-3.8616,-3.8153,-3.715,-3.6686,-3.6312,-3.5654,-3.5504,-3.5504,-3.5504,-3.5504,-3.5504,-3.5504,-3.5504,-3.5504,-3.5504,-3.5504,-3.5504,-3.5504,-3.5504,-3.5504,-3.5504,-3.4322,-3.338,-3.3095,-3.2108,-3.1511,-3.1511,-3.1511,-3.1511,-3.1511,-3.2123,-3.2318,-3.1944,-3.2602,-3.2632,-3.1944,-3.1929,-3.1795,-3.1511,-3.1511,-3.1511,-3.1511,-3.1809,-3.178,-3.1525,-3.1809,-3.1765,-3.1511,-3.1511,-3.1675,-3.1929,-3.1929,-3.2333,-3.2991,-3.3365,-3.3499,-3.344]}]]